<?xml version='1.0' encoding='UTF-8'?><gpx version="1.1" creator="JPX - https://github.com/jenetics/jpx" xmlns="http://www.topografix.com/GPX/1/1"><trk><trkseg><trkpt lat="44.0389033" lon="12.1824933"><ele>111.0</ele><time>2026-03-28T09:36:46.658Z</time></trkpt><trkpt lat="44.0388317" lon="12.1824783"><ele>111.0</ele><time>2026-03-28T09:36:48.658Z</time></trkpt><trkpt lat="44.0387433" lon="12.1824583"><ele>111.0</ele><time>2026-03-28T09:36:50.659Z</time></trkpt><trkpt lat="44.03864" lon="12.182465"><ele>111.0</ele><time>2026-03-28T09:36:52.657Z</time></trkpt><trkpt lat="44.038535" lon="12.182485"><ele>111.0</ele><time>2026-03-28T09:36:54.658Z</time></trkpt><trkpt lat="44.0384383" lon="12.1824983"><ele>111.0</ele><time>2026-03-28T09:36:56.659Z</time></trkpt><trkpt lat="44.03851" lon="12.1824867"><ele>111.0</ele><time>2026-03-28T09:37:09.656Z</time></trkpt><trkpt lat="44.0385833" lon="12.182545"><ele>111.0</ele><time>2026-03-28T09:37:18.656Z</time></trkpt><trkpt lat="44.03871" lon="12.1825217"><ele>111.0</ele><time>2026-03-28T09:37:20.657Z</time></trkpt><trkpt lat="44.0387917" lon="12.1825083"><ele>111.0</ele><time>2026-03-28T09:37:21.655Z</time></trkpt><trkpt lat="44.0388867" lon="12.182495"><ele>111.0</ele><time>2026-03-28T09:37:22.654Z</time></trkpt><trkpt lat="44.0389817" lon="12.18248"><ele>111.0</ele><time>2026-03-28T09:37:23.659Z</time></trkpt><trkpt lat="44.03908" lon="12.1824617"><ele>111.0</ele><time>2026-03-28T09:37:24.658Z</time></trkpt><trkpt lat="44.0391783" lon="12.18245"><ele>111.0</ele><time>2026-03-28T09:37:25.658Z</time></trkpt><trkpt lat="44.03928" lon="12.182435"><ele>111.0</ele><time>2026-03-28T09:37:26.658Z</time></trkpt><trkpt lat="44.0393833" lon="12.1824183"><ele>110.75</ele><time>2026-03-28T09:37:27.656Z</time></trkpt><trkpt lat="44.0394933" lon="12.1824017"><ele>110.5</ele><time>2026-03-28T09:37:28.659Z</time></trkpt><trkpt lat="44.0396067" lon="12.18239"><ele>110.25</ele><time>2026-03-28T09:37:29.656Z</time></trkpt><trkpt lat="44.03972" lon="12.1823767"><ele>110.0</ele><time>2026-03-28T09:37:30.658Z</time></trkpt><trkpt lat="44.0398367" lon="12.1823633"><ele>110.25</ele><time>2026-03-28T09:37:31.659Z</time></trkpt><trkpt lat="44.0399583" lon="12.1823467"><ele>110.5</ele><time>2026-03-28T09:37:32.655Z</time></trkpt><trkpt lat="44.04008" lon="12.18233"><ele>110.75</ele><time>2026-03-28T09:37:33.656Z</time></trkpt><trkpt lat="44.0401967" lon="12.182315"><ele>111.0</ele><time>2026-03-28T09:37:34.657Z</time></trkpt><trkpt lat="44.0403083" lon="12.1823033"><ele>111.0</ele><time>2026-03-28T09:37:35.658Z</time></trkpt><trkpt lat="44.040415" lon="12.1822917"><ele>111.0</ele><time>2026-03-28T09:37:36.656Z</time></trkpt><trkpt lat="44.0405217" lon="12.18227"><ele>111.0</ele><time>2026-03-28T09:37:37.657Z</time></trkpt><trkpt lat="44.0406317" lon="12.1822267"><ele>111.0</ele><time>2026-03-28T09:37:38.656Z</time></trkpt><trkpt lat="44.0407433" lon="12.1821633"><ele>110.25</ele><time>2026-03-28T09:37:39.657Z</time></trkpt><trkpt lat="44.0408533" lon="12.1820867"><ele>109.5</ele><time>2026-03-28T09:37:40.658Z</time></trkpt><trkpt lat="44.0409617" lon="12.1819983"><ele>108.75</ele><time>2026-03-28T09:37:41.658Z</time></trkpt><trkpt lat="44.04107" lon="12.1819067"><ele>108.0</ele><time>2026-03-28T09:37:42.659Z</time></trkpt><trkpt lat="44.0411767" lon="12.181815"><ele>108.0</ele><time>2026-03-28T09:37:43.659Z</time></trkpt><trkpt lat="44.0412833" lon="12.181715"><ele>108.0</ele><time>2026-03-28T09:37:44.659Z</time></trkpt><trkpt lat="44.0413967" lon="12.1816217"><ele>108.0</ele><time>2026-03-28T09:37:45.658Z</time></trkpt><trkpt lat="44.0415083" lon="12.1815233"><ele>108.0</ele><time>2026-03-28T09:37:46.658Z</time></trkpt><trkpt lat="44.04162" lon="12.1814167"><ele>107.5</ele><time>2026-03-28T09:37:47.659Z</time></trkpt><trkpt lat="44.0417283" lon="12.1813167"><ele>107.0</ele><time>2026-03-28T09:37:48.659Z</time></trkpt><trkpt lat="44.04184" lon="12.1812267"><ele>106.5</ele><time>2026-03-28T09:37:49.659Z</time></trkpt><trkpt lat="44.0419483" lon="12.181155"><ele>106.0</ele><time>2026-03-28T09:37:50.658Z</time></trkpt><trkpt lat="44.042065" lon="12.18111"><ele>106.0</ele><time>2026-03-28T09:37:51.658Z</time></trkpt><trkpt lat="44.0421917" lon="12.181075"><ele>106.0</ele><time>2026-03-28T09:37:52.658Z</time></trkpt><trkpt lat="44.04232" lon="12.1810467"><ele>106.0</ele><time>2026-03-28T09:37:53.659Z</time></trkpt><trkpt lat="44.042445" lon="12.1810217"><ele>106.0</ele><time>2026-03-28T09:37:54.662Z</time></trkpt><trkpt lat="44.0425683" lon="12.1810033"><ele>105.0</ele><time>2026-03-28T09:37:55.658Z</time></trkpt><trkpt lat="44.042685" lon="12.180985"><ele>104.0</ele><time>2026-03-28T09:37:56.659Z</time></trkpt><trkpt lat="44.042805" lon="12.180965"><ele>103.0</ele><time>2026-03-28T09:37:57.658Z</time></trkpt><trkpt lat="44.0429233" lon="12.1809433"><ele>102.0</ele><time>2026-03-28T09:37:58.654Z</time></trkpt><trkpt lat="44.0430383" lon="12.1809217"><ele>102.0</ele><time>2026-03-28T09:37:59.659Z</time></trkpt><trkpt lat="44.0431517" lon="12.1809167"><ele>102.0</ele><time>2026-03-28T09:38:00.654Z</time></trkpt><trkpt lat="44.0432583" lon="12.1809117"><ele>102.0</ele><time>2026-03-28T09:38:01.656Z</time></trkpt><trkpt lat="44.04337" lon="12.1809117"><ele>102.0</ele><time>2026-03-28T09:38:02.655Z</time></trkpt><trkpt lat="44.0434833" lon="12.1809117"><ele>102.0</ele><time>2026-03-28T09:38:03.654Z</time></trkpt><trkpt lat="44.0435933" lon="12.18091"><ele>101.8</ele><time>2026-03-28T09:38:04.655Z</time></trkpt><trkpt lat="44.0437" lon="12.1809083"><ele>101.6</ele><time>2026-03-28T09:38:05.656Z</time></trkpt><trkpt lat="44.0438067" lon="12.1809017"><ele>101.39999999999999</ele><time>2026-03-28T09:38:06.654Z</time></trkpt><trkpt lat="44.043915" lon="12.1808933"><ele>101.19999999999999</ele><time>2026-03-28T09:38:07.656Z</time></trkpt><trkpt lat="44.0440217" lon="12.18088"><ele>101.0</ele><time>2026-03-28T09:38:08.656Z</time></trkpt><trkpt lat="44.0441283" lon="12.1808633"><ele>101.19999999999999</ele><time>2026-03-28T09:38:09.658Z</time></trkpt><trkpt lat="44.044235" lon="12.180835"><ele>101.39999999999999</ele><time>2026-03-28T09:38:10.659Z</time></trkpt><trkpt lat="44.0443417" lon="12.1807967"><ele>101.6</ele><time>2026-03-28T09:38:11.659Z</time></trkpt><trkpt lat="44.0444467" lon="12.1807483"><ele>101.8</ele><time>2026-03-28T09:38:12.658Z</time></trkpt><trkpt lat="44.0445583" lon="12.1806883"><ele>102.0</ele><time>2026-03-28T09:38:13.658Z</time></trkpt><trkpt lat="44.0446717" lon="12.1806217"><ele>102.5</ele><time>2026-03-28T09:38:14.658Z</time></trkpt><trkpt lat="44.044785" lon="12.1805567"><ele>103.0</ele><time>2026-03-28T09:38:15.657Z</time></trkpt><trkpt lat="44.0448983" lon="12.1804933"><ele>103.5</ele><time>2026-03-28T09:38:16.658Z</time></trkpt><trkpt lat="44.0450167" lon="12.1804317"><ele>104.0</ele><time>2026-03-28T09:38:17.658Z</time></trkpt><trkpt lat="44.0451317" lon="12.1803733"><ele>104.0</ele><time>2026-03-28T09:38:18.659Z</time></trkpt><trkpt lat="44.0452433" lon="12.1803217"><ele>104.0</ele><time>2026-03-28T09:38:19.659Z</time></trkpt><trkpt lat="44.0453483" lon="12.180275"><ele>104.0</ele><time>2026-03-28T09:38:20.658Z</time></trkpt><trkpt lat="44.0454533" lon="12.1802317"><ele>104.0</ele><time>2026-03-28T09:38:21.658Z</time></trkpt><trkpt lat="44.0455533" lon="12.1801883"><ele>104.0</ele><time>2026-03-28T09:38:22.658Z</time></trkpt><trkpt lat="44.0456583" lon="12.180145"><ele>104.0</ele><time>2026-03-28T09:38:23.659Z</time></trkpt><trkpt lat="44.04576" lon="12.1800983"><ele>104.0</ele><time>2026-03-28T09:38:24.658Z</time></trkpt><trkpt lat="44.045855" lon="12.1800533"><ele>104.0</ele><time>2026-03-28T09:38:25.659Z</time></trkpt><trkpt lat="44.0459483" lon="12.18001"><ele>104.0</ele><time>2026-03-28T09:38:26.658Z</time></trkpt><trkpt lat="44.046035" lon="12.1799717"><ele>104.0</ele><time>2026-03-28T09:38:27.656Z</time></trkpt><trkpt lat="44.0461183" lon="12.1799333"><ele>104.33333333333333</ele><time>2026-03-28T09:38:28.655Z</time></trkpt><trkpt lat="44.0462" lon="12.1798967"><ele>104.66666666666666</ele><time>2026-03-28T09:38:29.659Z</time></trkpt><trkpt lat="44.0462817" lon="12.1798633"><ele>105.0</ele><time>2026-03-28T09:38:30.655Z</time></trkpt><trkpt lat="44.04636" lon="12.1798333"><ele>105.33333333333334</ele><time>2026-03-28T09:38:31.658Z</time></trkpt><trkpt lat="44.046435" lon="12.1798"><ele>105.66666666666667</ele><time>2026-03-28T09:38:32.659Z</time></trkpt><trkpt lat="44.046505" lon="12.179765"><ele>106.0</ele><time>2026-03-28T09:38:33.659Z</time></trkpt><trkpt lat="44.0465667" lon="12.17973"><ele>106.0</ele><time>2026-03-28T09:38:34.658Z</time></trkpt><trkpt lat="44.046655" lon="12.1796783"><ele>106.0</ele><time>2026-03-28T09:38:36.656Z</time></trkpt><trkpt lat="44.04672" lon="12.1795767"><ele>106.0</ele><time>2026-03-28T09:38:45.659Z</time></trkpt><trkpt lat="44.046755" lon="12.1794983"><ele>106.0</ele><time>2026-03-28T09:38:47.659Z</time></trkpt><trkpt lat="44.0466767" lon="12.1795667"><ele>106.0</ele><time>2026-03-28T09:38:59.66Z</time></trkpt><trkpt lat="44.04659" lon="12.179675"><ele>106.0</ele><time>2026-03-28T09:39:01.658Z</time></trkpt><trkpt lat="44.046505" lon="12.179715"><ele>106.0</ele><time>2026-03-28T09:39:03.659Z</time></trkpt><trkpt lat="44.0464967" lon="12.17956"><ele>106.0</ele><time>2026-03-28T09:39:06.657Z</time></trkpt><trkpt lat="44.04652" lon="12.1794667"><ele>106.0</ele><time>2026-03-28T09:39:07.658Z</time></trkpt><trkpt lat="44.0465367" lon="12.1793717"><ele>106.0</ele><time>2026-03-28T09:39:08.659Z</time></trkpt><trkpt lat="44.046545" lon="12.1791983"><ele>106.0</ele><time>2026-03-28T09:39:10.659Z</time></trkpt><trkpt lat="44.0465433" lon="12.1791017"><ele>106.0</ele><time>2026-03-28T09:39:11.658Z</time></trkpt><trkpt lat="44.0465383" lon="12.1789883"><ele>106.0</ele><time>2026-03-28T09:39:12.659Z</time></trkpt><trkpt lat="44.0465233" lon="12.1788617"><ele>106.0</ele><time>2026-03-28T09:39:13.659Z</time></trkpt><trkpt lat="44.0464933" lon="12.1787233"><ele>106.0</ele><time>2026-03-28T09:39:14.658Z</time></trkpt><trkpt lat="44.0464567" lon="12.1785767"><ele>108.4</ele><time>2026-03-28T09:39:15.659Z</time></trkpt><trkpt lat="44.046425" lon="12.1784283"><ele>110.8</ele><time>2026-03-28T09:39:16.659Z</time></trkpt><trkpt lat="44.0464067" lon="12.1782917"><ele>113.20000000000002</ele><time>2026-03-28T09:39:17.654Z</time></trkpt><trkpt lat="44.0463867" lon="12.1781883"><ele>115.60000000000001</ele><time>2026-03-28T09:39:18.656Z</time></trkpt><trkpt lat="44.0463167" lon="12.1780767"><ele>118.0</ele><time>2026-03-28T09:39:20.655Z</time></trkpt><trkpt lat="44.0462183" lon="12.17811"><ele>118.00000000000001</ele><time>2026-03-28T09:39:22.656Z</time></trkpt><trkpt lat="44.0461583" lon="12.178215"><ele>118.0</ele><time>2026-03-28T09:39:23.656Z</time></trkpt><trkpt lat="44.0461033" lon="12.17829"><ele>118.0</ele><time>2026-03-28T09:39:24.659Z</time></trkpt><trkpt lat="44.046" lon="12.178305"><ele>118.0</ele><time>2026-03-28T09:39:26.656Z</time></trkpt><trkpt lat="44.0459867" lon="12.1782167"><ele>118.00000000000001</ele><time>2026-03-28T09:39:27.655Z</time></trkpt><trkpt lat="44.045975" lon="12.1781167"><ele>118.0</ele><time>2026-03-28T09:39:28.659Z</time></trkpt><trkpt lat="44.0459717" lon="12.1779833"><ele>120.0</ele><time>2026-03-28T09:39:29.659Z</time></trkpt><trkpt lat="44.04597" lon="12.1778283"><ele>122.0</ele><time>2026-03-28T09:39:30.658Z</time></trkpt><trkpt lat="44.04597" lon="12.1776617"><ele>124.0</ele><time>2026-03-28T09:39:31.658Z</time></trkpt><trkpt lat="44.045975" lon="12.1775"><ele>126.0</ele><time>2026-03-28T09:39:32.658Z</time></trkpt><trkpt lat="44.045975" lon="12.1773483"><ele>126.4</ele><time>2026-03-28T09:39:33.658Z</time></trkpt><trkpt lat="44.045965" lon="12.1771983"><ele>126.8</ele><time>2026-03-28T09:39:34.658Z</time></trkpt><trkpt lat="44.0459433" lon="12.17705"><ele>127.20000000000002</ele><time>2026-03-28T09:39:35.659Z</time></trkpt><trkpt lat="44.0459117" lon="12.1769183"><ele>127.60000000000001</ele><time>2026-03-28T09:39:36.657Z</time></trkpt><trkpt lat="44.0458817" lon="12.176815"><ele>128.0</ele><time>2026-03-28T09:39:37.66Z</time></trkpt><trkpt lat="44.045855" lon="12.1767333"><ele>127.99999999999999</ele><time>2026-03-28T09:39:38.658Z</time></trkpt><trkpt lat="44.0457983" lon="12.1766833"><ele>128.0</ele><time>2026-03-28T09:39:40.658Z</time></trkpt><trkpt lat="44.0457417" lon="12.1768067"><ele>128.0</ele><time>2026-03-28T09:39:42.658Z</time></trkpt><trkpt lat="44.045745" lon="12.1769417"><ele>128.0</ele><time>2026-03-28T09:39:43.658Z</time></trkpt><trkpt lat="44.04576" lon="12.1770583"><ele>127.99999999999999</ele><time>2026-03-28T09:39:44.659Z</time></trkpt><trkpt lat="44.045755" lon="12.177175"><ele>128.0</ele><time>2026-03-28T09:39:45.659Z</time></trkpt><trkpt lat="44.045725" lon="12.1772917"><ele>131.20000000000002</ele><time>2026-03-28T09:39:46.658Z</time></trkpt><trkpt lat="44.045675" lon="12.1773917"><ele>134.4</ele><time>2026-03-28T09:39:47.657Z</time></trkpt><trkpt lat="44.0456217" lon="12.1774867"><ele>137.60000000000002</ele><time>2026-03-28T09:39:48.656Z</time></trkpt><trkpt lat="44.0455417" lon="12.177555"><ele>140.8</ele><time>2026-03-28T09:39:49.658Z</time></trkpt><trkpt lat="44.0454467" lon="12.1775967"><ele>144.0</ele><time>2026-03-28T09:39:50.656Z</time></trkpt><trkpt lat="44.0453317" lon="12.177605"><ele>144.0</ele><time>2026-03-28T09:39:51.657Z</time></trkpt><trkpt lat="44.0452067" lon="12.177595"><ele>144.0</ele><time>2026-03-28T09:39:52.656Z</time></trkpt><trkpt lat="44.0450733" lon="12.1775733"><ele>144.0</ele><time>2026-03-28T09:39:53.657Z</time></trkpt><trkpt lat="44.04495" lon="12.177545"><ele>144.0</ele><time>2026-03-28T09:39:54.656Z</time></trkpt><trkpt lat="44.0448417" lon="12.1775283"><ele>143.8</ele><time>2026-03-28T09:39:55.658Z</time></trkpt><trkpt lat="44.04476" lon="12.1775117"><ele>143.60000000000002</ele><time>2026-03-28T09:39:56.657Z</time></trkpt><trkpt lat="44.0446883" lon="12.1774983"><ele>143.4</ele><time>2026-03-28T09:39:57.657Z</time></trkpt><trkpt lat="44.0446167" lon="12.1774233"><ele>143.20000000000002</ele><time>2026-03-28T09:39:59.658Z</time></trkpt><trkpt lat="44.0446433" lon="12.1772983"><ele>143.0</ele><time>2026-03-28T09:40:01.664Z</time></trkpt><trkpt lat="44.0447517" lon="12.17724"><ele>146.60000000000002</ele><time>2026-03-28T09:40:03.659Z</time></trkpt><trkpt lat="44.0448483" lon="12.1772433"><ele>150.20000000000002</ele><time>2026-03-28T09:40:04.659Z</time></trkpt><trkpt lat="44.044965" lon="12.17726"><ele>153.8</ele><time>2026-03-28T09:40:05.658Z</time></trkpt><trkpt lat="44.0450617" lon="12.1772567"><ele>157.4</ele><time>2026-03-28T09:40:06.659Z</time></trkpt><trkpt lat="44.0451517" lon="12.1772183"><ele>161.0</ele><time>2026-03-28T09:40:07.658Z</time></trkpt><trkpt lat="44.0452433" lon="12.1771467"><ele>161.0</ele><time>2026-03-28T09:40:08.658Z</time></trkpt><trkpt lat="44.045295" lon="12.1770383"><ele>161.0</ele><time>2026-03-28T09:40:09.659Z</time></trkpt><trkpt lat="44.045335" lon="12.1769217"><ele>161.0</ele><time>2026-03-28T09:40:10.659Z</time></trkpt><trkpt lat="44.0453467" lon="12.1768067"><ele>161.0</ele><time>2026-03-28T09:40:11.662Z</time></trkpt><trkpt lat="44.0453333" lon="12.1766883"><ele>161.0</ele><time>2026-03-28T09:40:12.659Z</time></trkpt><trkpt lat="44.0452933" lon="12.1765667"><ele>162.0</ele><time>2026-03-28T09:40:13.659Z</time></trkpt><trkpt lat="44.0452383" lon="12.1764417"><ele>163.0</ele><time>2026-03-28T09:40:14.659Z</time></trkpt><trkpt lat="44.0451733" lon="12.1763233"><ele>164.0</ele><time>2026-03-28T09:40:15.659Z</time></trkpt><trkpt lat="44.0450983" lon="12.1762283"><ele>165.0</ele><time>2026-03-28T09:40:16.658Z</time></trkpt><trkpt lat="44.0450067" lon="12.1761517"><ele>166.0</ele><time>2026-03-28T09:40:17.657Z</time></trkpt><trkpt lat="44.0449067" lon="12.176085"><ele>166.0</ele><time>2026-03-28T09:40:18.657Z</time></trkpt><trkpt lat="44.044805" lon="12.176035"><ele>166.0</ele><time>2026-03-28T09:40:19.659Z</time></trkpt><trkpt lat="44.0446983" lon="12.176"><ele>166.0</ele><time>2026-03-28T09:40:20.656Z</time></trkpt><trkpt lat="44.04459" lon="12.17597"><ele>166.0</ele><time>2026-03-28T09:40:21.658Z</time></trkpt><trkpt lat="44.0444867" lon="12.1759333"><ele>166.0</ele><time>2026-03-28T09:40:22.659Z</time></trkpt><trkpt lat="44.04439" lon="12.17589"><ele>166.0</ele><time>2026-03-28T09:40:23.659Z</time></trkpt><trkpt lat="44.0443033" lon="12.1758383"><ele>166.0</ele><time>2026-03-28T09:40:24.657Z</time></trkpt><trkpt lat="44.0442217" lon="12.1757817"><ele>166.0</ele><time>2026-03-28T09:40:25.657Z</time></trkpt><trkpt lat="44.0441367" lon="12.1757283"><ele>166.0</ele><time>2026-03-28T09:40:26.662Z</time></trkpt><trkpt lat="44.0440533" lon="12.1756817"><ele>166.0</ele><time>2026-03-28T09:40:27.657Z</time></trkpt><trkpt lat="44.0439767" lon="12.1756233"><ele>169.4</ele><time>2026-03-28T09:40:28.658Z</time></trkpt><trkpt lat="44.043905" lon="12.1755483"><ele>172.8</ele><time>2026-03-28T09:40:29.659Z</time></trkpt><trkpt lat="44.0438333" lon="12.1754633"><ele>176.20000000000002</ele><time>2026-03-28T09:40:30.659Z</time></trkpt><trkpt lat="44.043765" lon="12.1753733"><ele>179.60000000000002</ele><time>2026-03-28T09:40:31.658Z</time></trkpt><trkpt lat="44.0437017" lon="12.175285"><ele>183.0</ele><time>2026-03-28T09:40:32.658Z</time></trkpt><trkpt lat="44.0436433" lon="12.1751983"><ele>183.0</ele><time>2026-03-28T09:40:33.658Z</time></trkpt><trkpt lat="44.04359" lon="12.1751033"><ele>183.0</ele><time>2026-03-28T09:40:34.658Z</time></trkpt><trkpt lat="44.0435317" lon="12.1749967"><ele>183.0</ele><time>2026-03-28T09:40:35.659Z</time></trkpt><trkpt lat="44.0434767" lon="12.17489"><ele>183.0</ele><time>2026-03-28T09:40:36.659Z</time></trkpt><trkpt lat="44.04343" lon="12.1747983"><ele>183.0</ele><time>2026-03-28T09:40:37.66Z</time></trkpt><trkpt lat="44.0433817" lon="12.174725"><ele>183.0</ele><time>2026-03-28T09:40:38.658Z</time></trkpt><trkpt lat="44.043325" lon="12.1746683"><ele>183.2</ele><time>2026-03-28T09:40:39.658Z</time></trkpt><trkpt lat="44.0432567" lon="12.1746217"><ele>183.4</ele><time>2026-03-28T09:40:40.658Z</time></trkpt><trkpt lat="44.0431817" lon="12.174585"><ele>183.6</ele><time>2026-03-28T09:40:41.658Z</time></trkpt><trkpt lat="44.0430983" lon="12.1745633"><ele>183.79999999999998</ele><time>2026-03-28T09:40:42.659Z</time></trkpt><trkpt lat="44.0429917" lon="12.174545"><ele>184.0</ele><time>2026-03-28T09:40:43.659Z</time></trkpt><trkpt lat="44.042875" lon="12.17453"><ele>184.0</ele><time>2026-03-28T09:40:44.659Z</time></trkpt><trkpt lat="44.0427533" lon="12.1745117"><ele>184.0</ele><time>2026-03-28T09:40:45.659Z</time></trkpt><trkpt lat="44.04264" lon="12.1745"><ele>184.0</ele><time>2026-03-28T09:40:46.656Z</time></trkpt><trkpt lat="44.0425367" lon="12.1744917"><ele>184.0</ele><time>2026-03-28T09:40:47.658Z</time></trkpt><trkpt lat="44.0424333" lon="12.1744867"><ele>184.0</ele><time>2026-03-28T09:40:48.659Z</time></trkpt><trkpt lat="44.04234" lon="12.1744883"><ele>187.39999999999998</ele><time>2026-03-28T09:40:49.657Z</time></trkpt><trkpt lat="44.042255" lon="12.1744967"><ele>190.8</ele><time>2026-03-28T09:40:50.658Z</time></trkpt><trkpt lat="44.0421733" lon="12.1745183"><ele>194.2</ele><time>2026-03-28T09:40:51.658Z</time></trkpt><trkpt lat="44.0420833" lon="12.1745517"><ele>197.60000000000002</ele><time>2026-03-28T09:40:52.659Z</time></trkpt><trkpt lat="44.0419917" lon="12.1745967"><ele>201.0</ele><time>2026-03-28T09:40:53.657Z</time></trkpt><trkpt lat="44.0418983" lon="12.174655"><ele>201.0</ele><time>2026-03-28T09:40:54.658Z</time></trkpt><trkpt lat="44.041805" lon="12.1747233"><ele>201.0</ele><time>2026-03-28T09:40:55.658Z</time></trkpt><trkpt lat="44.0417133" lon="12.1748017"><ele>201.0</ele><time>2026-03-28T09:40:56.658Z</time></trkpt><trkpt lat="44.0416233" lon="12.1748733"><ele>201.0</ele><time>2026-03-28T09:40:57.659Z</time></trkpt><trkpt lat="44.0415283" lon="12.1749433"><ele>201.0</ele><time>2026-03-28T09:40:58.659Z</time></trkpt><trkpt lat="44.0414383" lon="12.1749983"><ele>200.8</ele><time>2026-03-28T09:40:59.658Z</time></trkpt><trkpt lat="44.0413483" lon="12.175035"><ele>200.60000000000002</ele><time>2026-03-28T09:41:00.655Z</time></trkpt><trkpt lat="44.0412483" lon="12.175045"><ele>200.4</ele><time>2026-03-28T09:41:01.658Z</time></trkpt><trkpt lat="44.041135" lon="12.1750433"><ele>200.2</ele><time>2026-03-28T09:41:02.659Z</time></trkpt><trkpt lat="44.04102" lon="12.17502"><ele>200.0</ele><time>2026-03-28T09:41:03.658Z</time></trkpt><trkpt lat="44.0409" lon="12.1749883"><ele>202.0</ele><time>2026-03-28T09:41:04.659Z</time></trkpt><trkpt lat="44.04077" lon="12.1749633"><ele>204.0</ele><time>2026-03-28T09:41:05.659Z</time></trkpt><trkpt lat="44.0406433" lon="12.174945"><ele>206.0</ele><time>2026-03-28T09:41:06.659Z</time></trkpt><trkpt lat="44.040525" lon="12.1749317"><ele>208.0</ele><time>2026-03-28T09:41:07.659Z</time></trkpt><trkpt lat="44.0404067" lon="12.1749217"><ele>208.0</ele><time>2026-03-28T09:41:08.658Z</time></trkpt><trkpt lat="44.0402967" lon="12.1749033"><ele>208.0</ele><time>2026-03-28T09:41:09.659Z</time></trkpt><trkpt lat="44.0401967" lon="12.1748683"><ele>208.0</ele><time>2026-03-28T09:41:10.659Z</time></trkpt><trkpt lat="44.0401" lon="12.1748067"><ele>208.0</ele><time>2026-03-28T09:41:11.658Z</time></trkpt><trkpt lat="44.0400117" lon="12.1747217"><ele>208.0</ele><time>2026-03-28T09:41:12.659Z</time></trkpt><trkpt lat="44.0399133" lon="12.1746217"><ele>209.75</ele><time>2026-03-28T09:41:13.659Z</time></trkpt><trkpt lat="44.0398033" lon="12.1745133"><ele>211.5</ele><time>2026-03-28T09:41:14.658Z</time></trkpt><trkpt lat="44.039685" lon="12.1744017"><ele>213.25</ele><time>2026-03-28T09:41:15.658Z</time></trkpt><trkpt lat="44.0395733" lon="12.1742933"><ele>215.0</ele><time>2026-03-28T09:41:16.655Z</time></trkpt><trkpt lat="44.0394783" lon="12.1741833"><ele>215.0</ele><time>2026-03-28T09:41:17.655Z</time></trkpt><trkpt lat="44.0393917" lon="12.1740783"><ele>215.0</ele><time>2026-03-28T09:41:18.657Z</time></trkpt><trkpt lat="44.039315" lon="12.173975"><ele>215.0</ele><time>2026-03-28T09:41:19.656Z</time></trkpt><trkpt lat="44.0392417" lon="12.1738717"><ele>215.0</ele><time>2026-03-28T09:41:20.654Z</time></trkpt><trkpt lat="44.03917" lon="12.1737667"><ele>215.0</ele><time>2026-03-28T09:41:21.657Z</time></trkpt><trkpt lat="44.0390967" lon="12.1736667"><ele>214.6</ele><time>2026-03-28T09:41:22.656Z</time></trkpt><trkpt lat="44.0390167" lon="12.173575"><ele>214.2</ele><time>2026-03-28T09:41:23.658Z</time></trkpt><trkpt lat="44.038925" lon="12.17349"><ele>213.8</ele><time>2026-03-28T09:41:24.658Z</time></trkpt><trkpt lat="44.0388267" lon="12.1734217"><ele>213.4</ele><time>2026-03-28T09:41:25.658Z</time></trkpt><trkpt lat="44.0387167" lon="12.1733717"><ele>213.0</ele><time>2026-03-28T09:41:26.658Z</time></trkpt><trkpt lat="44.0386" lon="12.1733433"><ele>213.0</ele><time>2026-03-28T09:41:27.659Z</time></trkpt><trkpt lat="44.0384683" lon="12.173335"><ele>213.0</ele><time>2026-03-28T09:41:28.659Z</time></trkpt><trkpt lat="44.038315" lon="12.173345"><ele>213.0</ele><time>2026-03-28T09:41:29.658Z</time></trkpt><trkpt lat="44.038155" lon="12.1733533"><ele>213.0</ele><time>2026-03-28T09:41:30.659Z</time></trkpt><trkpt lat="44.038" lon="12.17335"><ele>215.0</ele><time>2026-03-28T09:41:31.658Z</time></trkpt><trkpt lat="44.0378583" lon="12.17334"><ele>217.0</ele><time>2026-03-28T09:41:32.659Z</time></trkpt><trkpt lat="44.0377283" lon="12.1733217"><ele>219.0</ele><time>2026-03-28T09:41:33.659Z</time></trkpt><trkpt lat="44.03761" lon="12.1732883"><ele>221.0</ele><time>2026-03-28T09:41:34.659Z</time></trkpt><trkpt lat="44.0374983" lon="12.1732333"><ele>224.0</ele><time>2026-03-28T09:41:35.658Z</time></trkpt><trkpt lat="44.0373933" lon="12.1731483"><ele>227.0</ele><time>2026-03-28T09:41:36.659Z</time></trkpt><trkpt lat="44.0372967" lon="12.1730533"><ele>230.0</ele><time>2026-03-28T09:41:37.658Z</time></trkpt><trkpt lat="44.0372033" lon="12.1729683"><ele>233.0</ele><time>2026-03-28T09:41:38.657Z</time></trkpt><trkpt lat="44.0371133" lon="12.17291"><ele>233.00000000000003</ele><time>2026-03-28T09:41:39.659Z</time></trkpt><trkpt lat="44.0370283" lon="12.17288"><ele>233.0</ele><time>2026-03-28T09:41:40.659Z</time></trkpt><trkpt lat="44.0369433" lon="12.1728617"><ele>233.0</ele><time>2026-03-28T09:41:41.659Z</time></trkpt><trkpt lat="44.0368583" lon="12.172845"><ele>233.0</ele><time>2026-03-28T09:41:42.659Z</time></trkpt><trkpt lat="44.0367683" lon="12.1728083"><ele>233.00000000000003</ele><time>2026-03-28T09:41:43.661Z</time></trkpt><trkpt lat="44.0366967" lon="12.1727317"><ele>233.0</ele><time>2026-03-28T09:41:44.658Z</time></trkpt><trkpt lat="44.036645" lon="12.17263"><ele>233.2</ele><time>2026-03-28T09:41:45.658Z</time></trkpt><trkpt lat="44.0365967" lon="12.172515"><ele>233.4</ele><time>2026-03-28T09:41:46.656Z</time></trkpt><trkpt lat="44.0365517" lon="12.1724083"><ele>233.59999999999997</ele><time>2026-03-28T09:41:47.656Z</time></trkpt><trkpt lat="44.0365033" lon="12.1723267"><ele>233.79999999999998</ele><time>2026-03-28T09:41:48.657Z</time></trkpt><trkpt lat="44.036405" lon="12.172255"><ele>234.0</ele><time>2026-03-28T09:41:50.659Z</time></trkpt><trkpt lat="44.03629" lon="12.17234"><ele>234.0</ele><time>2026-03-28T09:41:52.656Z</time></trkpt><trkpt lat="44.0362417" lon="12.1724133"><ele>234.0</ele><time>2026-03-28T09:41:53.658Z</time></trkpt><trkpt lat="44.0362017" lon="12.1724833"><ele>234.0</ele><time>2026-03-28T09:41:54.658Z</time></trkpt><trkpt lat="44.0361033" lon="12.172525"><ele>234.0</ele><time>2026-03-28T09:41:56.658Z</time></trkpt><trkpt lat="44.0360017" lon="12.17243"><ele>234.0</ele><time>2026-03-28T09:41:58.658Z</time></trkpt><trkpt lat="44.0359617" lon="12.17235"><ele>234.0</ele><time>2026-03-28T09:41:59.659Z</time></trkpt><trkpt lat="44.0359167" lon="12.1722617"><ele>234.79999999999998</ele><time>2026-03-28T09:42:00.659Z</time></trkpt><trkpt lat="44.0358633" lon="12.1721617"><ele>235.59999999999997</ele><time>2026-03-28T09:42:01.659Z</time></trkpt><trkpt lat="44.03581" lon="12.1720617"><ele>236.4</ele><time>2026-03-28T09:42:02.659Z</time></trkpt><trkpt lat="44.0357467" lon="12.171975"><ele>237.2</ele><time>2026-03-28T09:42:03.659Z</time></trkpt><trkpt lat="44.03567" lon="12.1719"><ele>238.0</ele><time>2026-03-28T09:42:04.659Z</time></trkpt><trkpt lat="44.035585" lon="12.1718233"><ele>238.25</ele><time>2026-03-28T09:42:05.657Z</time></trkpt><trkpt lat="44.03549" lon="12.1717383"><ele>238.5</ele><time>2026-03-28T09:42:06.659Z</time></trkpt><trkpt lat="44.0353833" lon="12.1716533"><ele>238.75</ele><time>2026-03-28T09:42:07.661Z</time></trkpt><trkpt lat="44.0352633" lon="12.171565"><ele>239.0</ele><time>2026-03-28T09:42:08.659Z</time></trkpt><trkpt lat="44.0351283" lon="12.1714867"><ele>239.0</ele><time>2026-03-28T09:42:09.658Z</time></trkpt><trkpt lat="44.03499" lon="12.1714217"><ele>239.0</ele><time>2026-03-28T09:42:10.659Z</time></trkpt><trkpt lat="44.0348583" lon="12.1713683"><ele>239.0</ele><time>2026-03-28T09:42:11.659Z</time></trkpt><trkpt lat="44.0347367" lon="12.171315"><ele>239.0</ele><time>2026-03-28T09:42:12.658Z</time></trkpt><trkpt lat="44.034625" lon="12.1712633"><ele>241.39999999999998</ele><time>2026-03-28T09:42:13.659Z</time></trkpt><trkpt lat="44.0345217" lon="12.1712017"><ele>243.79999999999998</ele><time>2026-03-28T09:42:14.659Z</time></trkpt><trkpt lat="44.03443" lon="12.1711267"><ele>246.20000000000002</ele><time>2026-03-28T09:42:15.659Z</time></trkpt><trkpt lat="44.0343533" lon="12.1710333"><ele>248.60000000000002</ele><time>2026-03-28T09:42:16.658Z</time></trkpt><trkpt lat="44.03428" lon="12.170935"><ele>251.0</ele><time>2026-03-28T09:42:17.658Z</time></trkpt><trkpt lat="44.0342033" lon="12.170835"><ele>250.4</ele><time>2026-03-28T09:42:18.659Z</time></trkpt><trkpt lat="44.0341267" lon="12.1707433"><ele>249.8</ele><time>2026-03-28T09:42:19.659Z</time></trkpt><trkpt lat="44.03405" lon="12.1706667"><ele>249.20000000000002</ele><time>2026-03-28T09:42:20.658Z</time></trkpt><trkpt lat="44.0339683" lon="12.1706083"><ele>248.60000000000002</ele><time>2026-03-28T09:42:21.66Z</time></trkpt><trkpt lat="44.0338833" lon="12.17057"><ele>248.0</ele><time>2026-03-28T09:42:22.659Z</time></trkpt><trkpt lat="44.0337967" lon="12.1705567"><ele>248.0</ele><time>2026-03-28T09:42:23.659Z</time></trkpt><trkpt lat="44.0336967" lon="12.1705967"><ele>248.0</ele><time>2026-03-28T09:42:24.658Z</time></trkpt><trkpt lat="44.0335967" lon="12.170655"><ele>248.0</ele><time>2026-03-28T09:42:25.658Z</time></trkpt><trkpt lat="44.033495" lon="12.1707183"><ele>248.0</ele><time>2026-03-28T09:42:26.658Z</time></trkpt><trkpt lat="44.0333933" lon="12.1707833"><ele>248.0</ele><time>2026-03-28T09:42:27.658Z</time></trkpt><trkpt lat="44.0332933" lon="12.1708533"><ele>246.0</ele><time>2026-03-28T09:42:28.659Z</time></trkpt><trkpt lat="44.0332083" lon="12.1709433"><ele>244.0</ele><time>2026-03-28T09:42:29.658Z</time></trkpt><trkpt lat="44.0331317" lon="12.1710533"><ele>242.0</ele><time>2026-03-28T09:42:30.658Z</time></trkpt><trkpt lat="44.033055" lon="12.1711683"><ele>240.0</ele><time>2026-03-28T09:42:31.658Z</time></trkpt><trkpt lat="44.0329733" lon="12.17128"><ele>238.0</ele><time>2026-03-28T09:42:32.658Z</time></trkpt><trkpt lat="44.032885" lon="12.1713883"><ele>238.0</ele><time>2026-03-28T09:42:33.658Z</time></trkpt><trkpt lat="44.0327917" lon="12.17149"><ele>238.0</ele><time>2026-03-28T09:42:34.659Z</time></trkpt><trkpt lat="44.032695" lon="12.1715933"><ele>238.0</ele><time>2026-03-28T09:42:35.658Z</time></trkpt><trkpt lat="44.0325933" lon="12.1716933"><ele>238.0</ele><time>2026-03-28T09:42:36.659Z</time></trkpt><trkpt lat="44.032495" lon="12.171785"><ele>244.0</ele><time>2026-03-28T09:42:37.658Z</time></trkpt><trkpt lat="44.0324" lon="12.171865"><ele>250.0</ele><time>2026-03-28T09:42:38.659Z</time></trkpt><trkpt lat="44.0322983" lon="12.1719217"><ele>256.0</ele><time>2026-03-28T09:42:39.658Z</time></trkpt><trkpt lat="44.0321883" lon="12.1719533"><ele>262.0</ele><time>2026-03-28T09:42:40.659Z</time></trkpt><trkpt lat="44.03207" lon="12.1719683"><ele>262.0</ele><time>2026-03-28T09:42:41.658Z</time></trkpt><trkpt lat="44.0319517" lon="12.1719833"><ele>262.0</ele><time>2026-03-28T09:42:42.662Z</time></trkpt><trkpt lat="44.0318283" lon="12.1719867"><ele>262.0</ele><time>2026-03-28T09:42:43.658Z</time></trkpt><trkpt lat="44.0317017" lon="12.1719683"><ele>262.0</ele><time>2026-03-28T09:42:44.658Z</time></trkpt><trkpt lat="44.0315767" lon="12.1719367"><ele>263.25</ele><time>2026-03-28T09:42:45.658Z</time></trkpt><trkpt lat="44.0314533" lon="12.1718983"><ele>264.5</ele><time>2026-03-28T09:42:46.659Z</time></trkpt><trkpt lat="44.031335" lon="12.1718733"><ele>265.75</ele><time>2026-03-28T09:42:47.658Z</time></trkpt><trkpt lat="44.03122" lon="12.1718633"><ele>267.0</ele><time>2026-03-28T09:42:48.658Z</time></trkpt><trkpt lat="44.0311033" lon="12.17187"><ele>267.0</ele><time>2026-03-28T09:42:49.659Z</time></trkpt><trkpt lat="44.0309833" lon="12.1718817"><ele>267.0</ele><time>2026-03-28T09:42:50.659Z</time></trkpt><trkpt lat="44.03086" lon="12.17189"><ele>267.0</ele><time>2026-03-28T09:42:51.658Z</time></trkpt><trkpt lat="44.0307433" lon="12.17189"><ele>267.0</ele><time>2026-03-28T09:42:52.659Z</time></trkpt><trkpt lat="44.0306333" lon="12.1718883"><ele>266.4</ele><time>2026-03-28T09:42:53.659Z</time></trkpt><trkpt lat="44.03053" lon="12.1718817"><ele>265.79999999999995</ele><time>2026-03-28T09:42:54.658Z</time></trkpt><trkpt lat="44.0304383" lon="12.171865"><ele>265.2</ele><time>2026-03-28T09:42:55.66Z</time></trkpt><trkpt lat="44.0303533" lon="12.1718333"><ele>264.59999999999997</ele><time>2026-03-28T09:42:56.659Z</time></trkpt><trkpt lat="44.0302733" lon="12.1717833"><ele>264.0</ele><time>2026-03-28T09:42:57.659Z</time></trkpt><trkpt lat="44.0302017" lon="12.1717083"><ele>264.0</ele><time>2026-03-28T09:42:58.658Z</time></trkpt><trkpt lat="44.03014" lon="12.171625"><ele>264.0</ele><time>2026-03-28T09:42:59.659Z</time></trkpt><trkpt lat="44.0300883" lon="12.1715417"><ele>264.0</ele><time>2026-03-28T09:43:00.658Z</time></trkpt><trkpt lat="44.030045" lon="12.171455"><ele>264.0</ele><time>2026-03-28T09:43:01.658Z</time></trkpt><trkpt lat="44.0300117" lon="12.17137"><ele>264.0</ele><time>2026-03-28T09:43:02.658Z</time></trkpt><trkpt lat="44.02998" lon="12.1712867"><ele>264.0</ele><time>2026-03-28T09:43:03.658Z</time></trkpt><trkpt lat="44.0299467" lon="12.1712083"><ele>264.0</ele><time>2026-03-28T09:43:04.658Z</time></trkpt><trkpt lat="44.0299067" lon="12.171135"><ele>262.7142857142857</ele><time>2026-03-28T09:43:05.659Z</time></trkpt><trkpt lat="44.0298583" lon="12.1710733"><ele>261.42857142857144</ele><time>2026-03-28T09:43:06.658Z</time></trkpt><trkpt lat="44.029795" lon="12.17104"><ele>260.14285714285717</ele><time>2026-03-28T09:43:07.659Z</time></trkpt><trkpt lat="44.0297217" lon="12.1710217"><ele>258.8571428571429</ele><time>2026-03-28T09:43:08.659Z</time></trkpt><trkpt lat="44.029655" lon="12.1709983"><ele>257.5714285714286</ele><time>2026-03-28T09:43:09.66Z</time></trkpt><trkpt lat="44.0295933" lon="12.1709683"><ele>256.2857142857143</ele><time>2026-03-28T09:43:10.659Z</time></trkpt><trkpt lat="44.029535" lon="12.170925"><ele>255.0</ele><time>2026-03-28T09:43:11.659Z</time></trkpt><trkpt lat="44.0294783" lon="12.1708633"><ele>255.0</ele><time>2026-03-28T09:43:12.658Z</time></trkpt><trkpt lat="44.02942" lon="12.1707917"><ele>255.0</ele><time>2026-03-28T09:43:13.659Z</time></trkpt><trkpt lat="44.0293583" lon="12.1707217"><ele>255.0</ele><time>2026-03-28T09:43:14.658Z</time></trkpt><trkpt lat="44.0292917" lon="12.1706617"><ele>255.0</ele><time>2026-03-28T09:43:15.658Z</time></trkpt><trkpt lat="44.0292217" lon="12.1706183"><ele>255.0</ele><time>2026-03-28T09:43:16.658Z</time></trkpt><trkpt lat="44.0291467" lon="12.1705867"><ele>255.0</ele><time>2026-03-28T09:43:17.658Z</time></trkpt><trkpt lat="44.0290683" lon="12.1705517"><ele>252.6</ele><time>2026-03-28T09:43:18.658Z</time></trkpt><trkpt lat="44.0289933" lon="12.1704933"><ele>250.2</ele><time>2026-03-28T09:43:19.659Z</time></trkpt><trkpt lat="44.0289217" lon="12.1704217"><ele>247.8</ele><time>2026-03-28T09:43:20.659Z</time></trkpt><trkpt lat="44.0288467" lon="12.1703383"><ele>245.4</ele><time>2026-03-28T09:43:21.656Z</time></trkpt><trkpt lat="44.028795" lon="12.1702333"><ele>243.0</ele><time>2026-03-28T09:43:22.658Z</time></trkpt><trkpt lat="44.0287517" lon="12.1701183"><ele>243.0</ele><time>2026-03-28T09:43:23.658Z</time></trkpt><trkpt lat="44.0287083" lon="12.1699883"><ele>243.0</ele><time>2026-03-28T09:43:24.658Z</time></trkpt><trkpt lat="44.0286667" lon="12.1698533"><ele>243.0</ele><time>2026-03-28T09:43:25.66Z</time></trkpt><trkpt lat="44.0286167" lon="12.1697167"><ele>243.0</ele><time>2026-03-28T09:43:26.659Z</time></trkpt><trkpt lat="44.028555" lon="12.1695883"><ele>243.0</ele><time>2026-03-28T09:43:27.659Z</time></trkpt><trkpt lat="44.0284783" lon="12.16948"><ele>244.0</ele><time>2026-03-28T09:43:28.659Z</time></trkpt><trkpt lat="44.0283883" lon="12.1693883"><ele>245.0</ele><time>2026-03-28T09:43:29.66Z</time></trkpt><trkpt lat="44.0283017" lon="12.169315"><ele>246.0</ele><time>2026-03-28T09:43:30.658Z</time></trkpt><trkpt lat="44.0282217" lon="12.16924"><ele>247.0</ele><time>2026-03-28T09:43:31.659Z</time></trkpt><trkpt lat="44.0281583" lon="12.1691533"><ele>248.0</ele><time>2026-03-28T09:43:32.658Z</time></trkpt><trkpt lat="44.0281083" lon="12.1690567"><ele>250.0</ele><time>2026-03-28T09:43:33.659Z</time></trkpt><trkpt lat="44.0280683" lon="12.1689483"><ele>252.0</ele><time>2026-03-28T09:43:34.657Z</time></trkpt><trkpt lat="44.02804" lon="12.168835"><ele>254.0</ele><time>2026-03-28T09:43:35.658Z</time></trkpt><trkpt lat="44.028" lon="12.16873"><ele>256.0</ele><time>2026-03-28T09:43:36.659Z</time></trkpt><trkpt lat="44.0279367" lon="12.1686317"><ele>258.0</ele><time>2026-03-28T09:43:37.659Z</time></trkpt><trkpt lat="44.0278567" lon="12.1685383"><ele>258.0</ele><time>2026-03-28T09:43:38.658Z</time></trkpt><trkpt lat="44.0277733" lon="12.1684467"><ele>258.0</ele><time>2026-03-28T09:43:39.657Z</time></trkpt><trkpt lat="44.0276917" lon="12.1683433"><ele>258.0</ele><time>2026-03-28T09:43:40.66Z</time></trkpt><trkpt lat="44.0276217" lon="12.1682267"><ele>258.0</ele><time>2026-03-28T09:43:41.659Z</time></trkpt><trkpt lat="44.0275617" lon="12.1681"><ele>258.0</ele><time>2026-03-28T09:43:42.658Z</time></trkpt><trkpt lat="44.0275117" lon="12.167965"><ele>257.4</ele><time>2026-03-28T09:43:43.659Z</time></trkpt><trkpt lat="44.0274683" lon="12.167825"><ele>256.8</ele><time>2026-03-28T09:43:44.661Z</time></trkpt><trkpt lat="44.0274283" lon="12.1676883"><ele>256.2</ele><time>2026-03-28T09:43:45.658Z</time></trkpt><trkpt lat="44.0273833" lon="12.16756"><ele>255.6</ele><time>2026-03-28T09:43:46.659Z</time></trkpt><trkpt lat="44.0273217" lon="12.1674317"><ele>255.0</ele><time>2026-03-28T09:43:47.659Z</time></trkpt><trkpt lat="44.0272483" lon="12.167305"><ele>256.8</ele><time>2026-03-28T09:43:48.658Z</time></trkpt><trkpt lat="44.0271717" lon="12.167185"><ele>258.6</ele><time>2026-03-28T09:43:49.659Z</time></trkpt><trkpt lat="44.0271" lon="12.167065"><ele>260.4</ele><time>2026-03-28T09:43:50.658Z</time></trkpt><trkpt lat="44.0270433" lon="12.166945"><ele>262.2</ele><time>2026-03-28T09:43:51.658Z</time></trkpt><trkpt lat="44.027005" lon="12.1668283"><ele>264.0</ele><time>2026-03-28T09:43:52.658Z</time></trkpt><trkpt lat="44.026965" lon="12.1667033"><ele>264.0</ele><time>2026-03-28T09:43:53.659Z</time></trkpt><trkpt lat="44.0269183" lon="12.166575"><ele>264.0</ele><time>2026-03-28T09:43:54.658Z</time></trkpt><trkpt lat="44.026865" lon="12.1664383"><ele>264.0</ele><time>2026-03-28T09:43:55.656Z</time></trkpt><trkpt lat="44.0268183" lon="12.1662983"><ele>264.0</ele><time>2026-03-28T09:43:56.655Z</time></trkpt><trkpt lat="44.026785" lon="12.1661583"><ele>264.0</ele><time>2026-03-28T09:43:57.657Z</time></trkpt><trkpt lat="44.0267683" lon="12.1660233"><ele>264.8</ele><time>2026-03-28T09:43:58.659Z</time></trkpt><trkpt lat="44.026765" lon="12.165905"><ele>265.59999999999997</ele><time>2026-03-28T09:43:59.657Z</time></trkpt><trkpt lat="44.02677" lon="12.1657983"><ele>266.4</ele><time>2026-03-28T09:44:00.658Z</time></trkpt><trkpt lat="44.0268483" lon="12.1656767"><ele>267.2</ele><time>2026-03-28T09:44:02.66Z</time></trkpt><trkpt lat="44.0269667" lon="12.1656667"><ele>268.0</ele><time>2026-03-28T09:44:04.658Z</time></trkpt><trkpt lat="44.0270417" lon="12.1656867"><ele>268.0</ele><time>2026-03-28T09:44:05.658Z</time></trkpt><trkpt lat="44.0271133" lon="12.1657017"><ele>268.0</ele><time>2026-03-28T09:44:06.66Z</time></trkpt><trkpt lat="44.0271783" lon="12.1657"><ele>268.0</ele><time>2026-03-28T09:44:07.658Z</time></trkpt><trkpt lat="44.0272817" lon="12.1656267"><ele>268.0</ele><time>2026-03-28T09:44:09.659Z</time></trkpt><trkpt lat="44.027325" lon="12.1655533"><ele>268.0</ele><time>2026-03-28T09:44:10.659Z</time></trkpt><trkpt lat="44.0273617" lon="12.165465"><ele>268.0</ele><time>2026-03-28T09:44:11.658Z</time></trkpt><trkpt lat="44.02739" lon="12.1653533"><ele>268.25</ele><time>2026-03-28T09:44:12.66Z</time></trkpt><trkpt lat="44.027415" lon="12.1652083"><ele>268.5</ele><time>2026-03-28T09:44:13.659Z</time></trkpt><trkpt lat="44.02743" lon="12.1650467"><ele>268.75</ele><time>2026-03-28T09:44:14.658Z</time></trkpt><trkpt lat="44.0274333" lon="12.1648833"><ele>269.0</ele><time>2026-03-28T09:44:15.659Z</time></trkpt><trkpt lat="44.02743" lon="12.164705"><ele>269.0</ele><time>2026-03-28T09:44:16.657Z</time></trkpt><trkpt lat="44.027425" lon="12.1645017"><ele>269.0</ele><time>2026-03-28T09:44:17.659Z</time></trkpt><trkpt lat="44.0274167" lon="12.1643017"><ele>269.0</ele><time>2026-03-28T09:44:18.658Z</time></trkpt><trkpt lat="44.0274117" lon="12.1641367"><ele>269.0</ele><time>2026-03-28T09:44:19.659Z</time></trkpt><trkpt lat="44.02741" lon="12.164005"><ele>268.1666666666667</ele><time>2026-03-28T09:44:20.659Z</time></trkpt><trkpt lat="44.0274017" lon="12.1638933"><ele>267.33333333333337</ele><time>2026-03-28T09:44:21.659Z</time></trkpt><trkpt lat="44.02738" lon="12.163795"><ele>266.5</ele><time>2026-03-28T09:44:22.658Z</time></trkpt><trkpt lat="44.0273433" lon="12.1636967"><ele>265.6666666666667</ele><time>2026-03-28T09:44:23.66Z</time></trkpt><trkpt lat="44.0272883" lon="12.1635917"><ele>264.8333333333333</ele><time>2026-03-28T09:44:24.658Z</time></trkpt><trkpt lat="44.0272017" lon="12.163475"><ele>264.0</ele><time>2026-03-28T09:44:25.659Z</time></trkpt><trkpt lat="44.0271017" lon="12.1633483"><ele>264.0</ele><time>2026-03-28T09:44:26.659Z</time></trkpt><trkpt lat="44.0269917" lon="12.1632133"><ele>264.0</ele><time>2026-03-28T09:44:27.656Z</time></trkpt><trkpt lat="44.0268833" lon="12.1630767"><ele>264.0</ele><time>2026-03-28T09:44:28.656Z</time></trkpt><trkpt lat="44.0267783" lon="12.1629417"><ele>264.0</ele><time>2026-03-28T09:44:29.655Z</time></trkpt><trkpt lat="44.0266833" lon="12.162815"><ele>263.0</ele><time>2026-03-28T09:44:30.655Z</time></trkpt><trkpt lat="44.026595" lon="12.1626983"><ele>262.0</ele><time>2026-03-28T09:44:31.657Z</time></trkpt><trkpt lat="44.026515" lon="12.16259"><ele>261.0</ele><time>2026-03-28T09:44:32.655Z</time></trkpt><trkpt lat="44.026445" lon="12.1624917"><ele>260.0</ele><time>2026-03-28T09:44:33.656Z</time></trkpt><trkpt lat="44.0263733" lon="12.162405"><ele>259.0</ele><time>2026-03-28T09:44:34.656Z</time></trkpt><trkpt lat="44.0262883" lon="12.1623333"><ele>257.5</ele><time>2026-03-28T09:44:35.656Z</time></trkpt><trkpt lat="44.02619" lon="12.16228"><ele>256.0</ele><time>2026-03-28T09:44:36.656Z</time></trkpt><trkpt lat="44.0260767" lon="12.1622433"><ele>254.5</ele><time>2026-03-28T09:44:37.657Z</time></trkpt><trkpt lat="44.0259533" lon="12.16221"><ele>253.0</ele><time>2026-03-28T09:44:38.655Z</time></trkpt><trkpt lat="44.025835" lon="12.1621767"><ele>253.0</ele><time>2026-03-28T09:44:39.656Z</time></trkpt><trkpt lat="44.0257167" lon="12.1621533"><ele>253.0</ele><time>2026-03-28T09:44:40.657Z</time></trkpt><trkpt lat="44.025605" lon="12.1621283"><ele>253.0</ele><time>2026-03-28T09:44:41.655Z</time></trkpt><trkpt lat="44.025505" lon="12.162105"><ele>253.0</ele><time>2026-03-28T09:44:42.655Z</time></trkpt><trkpt lat="44.025425" lon="12.1620733"><ele>253.0</ele><time>2026-03-28T09:44:43.656Z</time></trkpt><trkpt lat="44.0253533" lon="12.1620233"><ele>253.0</ele><time>2026-03-28T09:44:44.658Z</time></trkpt><trkpt lat="44.0252817" lon="12.1619517"><ele>253.0</ele><time>2026-03-28T09:44:45.658Z</time></trkpt><trkpt lat="44.025225" lon="12.1618433"><ele>253.0</ele><time>2026-03-28T09:44:46.659Z</time></trkpt><trkpt lat="44.02516" lon="12.1617317"><ele>253.0</ele><time>2026-03-28T09:44:47.66Z</time></trkpt><trkpt lat="44.0250883" lon="12.161615"><ele>253.0</ele><time>2026-03-28T09:44:48.659Z</time></trkpt><trkpt lat="44.0249983" lon="12.1615"><ele>251.0</ele><time>2026-03-28T09:44:49.659Z</time></trkpt><trkpt lat="44.0248917" lon="12.1613817"><ele>249.0</ele><time>2026-03-28T09:44:50.659Z</time></trkpt><trkpt lat="44.02477" lon="12.16126"><ele>247.0</ele><time>2026-03-28T09:44:51.658Z</time></trkpt><trkpt lat="44.0246417" lon="12.1611367"><ele>245.0</ele><time>2026-03-28T09:44:52.659Z</time></trkpt><trkpt lat="44.0245167" lon="12.1610183"><ele>245.0</ele><time>2026-03-28T09:44:53.654Z</time></trkpt><trkpt lat="44.0244" lon="12.1609033"><ele>245.0</ele><time>2026-03-28T09:44:54.66Z</time></trkpt><trkpt lat="44.0242883" lon="12.1607933"><ele>245.0</ele><time>2026-03-28T09:44:55.658Z</time></trkpt><trkpt lat="44.0241833" lon="12.1606817"><ele>245.0</ele><time>2026-03-28T09:44:56.658Z</time></trkpt><trkpt lat="44.0240717" lon="12.160565"><ele>244.5</ele><time>2026-03-28T09:44:57.658Z</time></trkpt><trkpt lat="44.0239533" lon="12.1604483"><ele>244.0</ele><time>2026-03-28T09:44:58.658Z</time></trkpt><trkpt lat="44.0238283" lon="12.1603333"><ele>243.5</ele><time>2026-03-28T09:44:59.658Z</time></trkpt><trkpt lat="44.0237017" lon="12.16022"><ele>243.0</ele><time>2026-03-28T09:45:00.658Z</time></trkpt><trkpt lat="44.0235733" lon="12.1601133"><ele>243.0</ele><time>2026-03-28T09:45:01.659Z</time></trkpt><trkpt lat="44.0234433" lon="12.1600117"><ele>243.0</ele><time>2026-03-28T09:45:02.659Z</time></trkpt><trkpt lat="44.023315" lon="12.1599067"><ele>243.0</ele><time>2026-03-28T09:45:03.658Z</time></trkpt><trkpt lat="44.0231867" lon="12.1598033"><ele>243.0</ele><time>2026-03-28T09:45:04.658Z</time></trkpt><trkpt lat="44.0230533" lon="12.159705"><ele>243.0</ele><time>2026-03-28T09:45:05.658Z</time></trkpt><trkpt lat="44.0229233" lon="12.1596067"><ele>243.0</ele><time>2026-03-28T09:45:06.658Z</time></trkpt><trkpt lat="44.0227917" lon="12.1595067"><ele>243.0</ele><time>2026-03-28T09:45:07.658Z</time></trkpt><trkpt lat="44.02266" lon="12.1594033"><ele>243.0</ele><time>2026-03-28T09:45:08.658Z</time></trkpt><trkpt lat="44.0225333" lon="12.1592967"><ele>242.75</ele><time>2026-03-28T09:45:09.661Z</time></trkpt><trkpt lat="44.022415" lon="12.1591817"><ele>242.5</ele><time>2026-03-28T09:45:10.658Z</time></trkpt><trkpt lat="44.022305" lon="12.1590633"><ele>242.25</ele><time>2026-03-28T09:45:11.659Z</time></trkpt><trkpt lat="44.0221967" lon="12.1589383"><ele>242.0</ele><time>2026-03-28T09:45:12.659Z</time></trkpt><trkpt lat="44.02209" lon="12.1588117"><ele>243.0</ele><time>2026-03-28T09:45:13.658Z</time></trkpt><trkpt lat="44.02198" lon="12.15868"><ele>244.0</ele><time>2026-03-28T09:45:14.659Z</time></trkpt><trkpt lat="44.0218733" lon="12.15855"><ele>245.0</ele><time>2026-03-28T09:45:15.659Z</time></trkpt><trkpt lat="44.0217633" lon="12.1584167"><ele>246.0</ele><time>2026-03-28T09:45:16.659Z</time></trkpt><trkpt lat="44.0216517" lon="12.1582783"><ele>247.75</ele><time>2026-03-28T09:45:17.658Z</time></trkpt><trkpt lat="44.0215383" lon="12.1581417"><ele>249.5</ele><time>2026-03-28T09:45:18.658Z</time></trkpt><trkpt lat="44.021425" lon="12.158005"><ele>251.25</ele><time>2026-03-28T09:45:19.66Z</time></trkpt><trkpt lat="44.0213117" lon="12.1578733"><ele>253.0</ele><time>2026-03-28T09:45:20.659Z</time></trkpt><trkpt lat="44.0211983" lon="12.157745"><ele>253.0</ele><time>2026-03-28T09:45:21.659Z</time></trkpt><trkpt lat="44.0210967" lon="12.1576283"><ele>253.0</ele><time>2026-03-28T09:45:22.658Z</time></trkpt><trkpt lat="44.0210067" lon="12.1575083"><ele>253.0</ele><time>2026-03-28T09:45:23.658Z</time></trkpt><trkpt lat="44.020925" lon="12.157385"><ele>253.0</ele><time>2026-03-28T09:45:24.658Z</time></trkpt><trkpt lat="44.02085" lon="12.1572533"><ele>253.0</ele><time>2026-03-28T09:45:25.66Z</time></trkpt><trkpt lat="44.02078" lon="12.157115"><ele>253.0</ele><time>2026-03-28T09:45:26.659Z</time></trkpt><trkpt lat="44.020715" lon="12.1569683"><ele>253.0</ele><time>2026-03-28T09:45:27.659Z</time></trkpt><trkpt lat="44.0206517" lon="12.1568233"><ele>253.0</ele><time>2026-03-28T09:45:28.659Z</time></trkpt><trkpt lat="44.0205967" lon="12.1566717"><ele>253.0</ele><time>2026-03-28T09:45:29.659Z</time></trkpt><trkpt lat="44.0205467" lon="12.1565133"><ele>253.0</ele><time>2026-03-28T09:45:30.659Z</time></trkpt><trkpt lat="44.02051" lon="12.15635"><ele>253.0</ele><time>2026-03-28T09:45:31.662Z</time></trkpt><trkpt lat="44.020485" lon="12.1561817"><ele>253.0</ele><time>2026-03-28T09:45:32.658Z</time></trkpt><trkpt lat="44.02047" lon="12.15602"><ele>253.0</ele><time>2026-03-28T09:45:33.659Z</time></trkpt><trkpt lat="44.0204667" lon="12.15586"><ele>253.0</ele><time>2026-03-28T09:45:34.658Z</time></trkpt><trkpt lat="44.0204717" lon="12.1557017"><ele>253.0</ele><time>2026-03-28T09:45:35.659Z</time></trkpt><trkpt lat="44.0204883" lon="12.155535"><ele>253.0</ele><time>2026-03-28T09:45:36.658Z</time></trkpt><trkpt lat="44.0205083" lon="12.15537"><ele>251.0</ele><time>2026-03-28T09:45:37.659Z</time></trkpt><trkpt lat="44.0205333" lon="12.155215"><ele>249.0</ele><time>2026-03-28T09:45:38.658Z</time></trkpt><trkpt lat="44.0205683" lon="12.1550567"><ele>247.0</ele><time>2026-03-28T09:45:39.659Z</time></trkpt><trkpt lat="44.0206083" lon="12.154905"><ele>245.0</ele><time>2026-03-28T09:45:40.659Z</time></trkpt><trkpt lat="44.020655" lon="12.1547533"><ele>246.0</ele><time>2026-03-28T09:45:41.659Z</time></trkpt><trkpt lat="44.0207067" lon="12.1546"><ele>247.0</ele><time>2026-03-28T09:45:42.659Z</time></trkpt><trkpt lat="44.0207567" lon="12.154445"><ele>248.0</ele><time>2026-03-28T09:45:43.659Z</time></trkpt><trkpt lat="44.0208067" lon="12.154285"><ele>249.0</ele><time>2026-03-28T09:45:44.659Z</time></trkpt><trkpt lat="44.0208567" lon="12.1541317"><ele>249.0</ele><time>2026-03-28T09:45:45.66Z</time></trkpt><trkpt lat="44.0209033" lon="12.1539867"><ele>248.99999999999997</ele><time>2026-03-28T09:45:46.655Z</time></trkpt><trkpt lat="44.0209517" lon="12.1538467"><ele>248.99999999999997</ele><time>2026-03-28T09:45:47.656Z</time></trkpt><trkpt lat="44.0209983" lon="12.1537133"><ele>249.0</ele><time>2026-03-28T09:45:48.656Z</time></trkpt><trkpt lat="44.02104" lon="12.153585"><ele>249.0</ele><time>2026-03-28T09:45:49.656Z</time></trkpt><trkpt lat="44.0210717" lon="12.153465"><ele>249.0</ele><time>2026-03-28T09:45:50.656Z</time></trkpt><trkpt lat="44.02109" lon="12.15336"><ele>248.99999999999997</ele><time>2026-03-28T09:45:51.655Z</time></trkpt><trkpt lat="44.0211017" lon="12.1532633"><ele>249.0</ele><time>2026-03-28T09:45:52.657Z</time></trkpt><trkpt lat="44.0211067" lon="12.1531717"><ele>249.0</ele><time>2026-03-28T09:45:53.659Z</time></trkpt><trkpt lat="44.0210883" lon="12.1530867"><ele>248.99999999999997</ele><time>2026-03-28T09:45:54.658Z</time></trkpt><trkpt lat="44.0210467" lon="12.1530083"><ele>249.0</ele><time>2026-03-28T09:45:55.659Z</time></trkpt><trkpt lat="44.0209867" lon="12.15295"><ele>249.0</ele><time>2026-03-28T09:45:56.658Z</time></trkpt><trkpt lat="44.0209067" lon="12.1529117"><ele>246.79999999999998</ele><time>2026-03-28T09:45:57.659Z</time></trkpt><trkpt lat="44.020805" lon="12.1528933"><ele>244.59999999999997</ele><time>2026-03-28T09:45:58.658Z</time></trkpt><trkpt lat="44.0207033" lon="12.1528717"><ele>242.4</ele><time>2026-03-28T09:45:59.659Z</time></trkpt><trkpt lat="44.0206033" lon="12.1528433"><ele>240.2</ele><time>2026-03-28T09:46:00.658Z</time></trkpt><trkpt lat="44.0205133" lon="12.152805"><ele>238.0</ele><time>2026-03-28T09:46:01.66Z</time></trkpt><trkpt lat="44.0204283" lon="12.1527617"><ele>237.99999999999997</ele><time>2026-03-28T09:46:02.659Z</time></trkpt><trkpt lat="44.0203567" lon="12.15272"><ele>238.0</ele><time>2026-03-28T09:46:03.659Z</time></trkpt><trkpt lat="44.0202933" lon="12.15267"><ele>238.0</ele><time>2026-03-28T09:46:04.659Z</time></trkpt><trkpt lat="44.0202283" lon="12.15261"><ele>238.0</ele><time>2026-03-28T09:46:05.659Z</time></trkpt><trkpt lat="44.02017" lon="12.15253"><ele>237.99999999999997</ele><time>2026-03-28T09:46:06.658Z</time></trkpt><trkpt lat="44.0201167" lon="12.15242"><ele>238.0</ele><time>2026-03-28T09:46:07.658Z</time></trkpt><trkpt lat="44.0200633" lon="12.1522933"><ele>237.75</ele><time>2026-03-28T09:46:08.658Z</time></trkpt><trkpt lat="44.0200083" lon="12.15215"><ele>237.5</ele><time>2026-03-28T09:46:09.659Z</time></trkpt><trkpt lat="44.0199517" lon="12.1519983"><ele>237.25</ele><time>2026-03-28T09:46:10.658Z</time></trkpt><trkpt lat="44.0198867" lon="12.1518583"><ele>237.0</ele><time>2026-03-28T09:46:11.659Z</time></trkpt><trkpt lat="44.019815" lon="12.1517267"><ele>236.6</ele><time>2026-03-28T09:46:12.659Z</time></trkpt><trkpt lat="44.0197417" lon="12.1516133"><ele>236.2</ele><time>2026-03-28T09:46:13.659Z</time></trkpt><trkpt lat="44.019665" lon="12.15151"><ele>235.8</ele><time>2026-03-28T09:46:14.658Z</time></trkpt><trkpt lat="44.0195933" lon="12.1513917"><ele>235.4</ele><time>2026-03-28T09:46:15.658Z</time></trkpt><trkpt lat="44.0195317" lon="12.1512617"><ele>235.0</ele><time>2026-03-28T09:46:16.655Z</time></trkpt><trkpt lat="44.0194683" lon="12.1511333"><ele>235.0</ele><time>2026-03-28T09:46:17.656Z</time></trkpt><trkpt lat="44.0193917" lon="12.1510133"><ele>235.0</ele><time>2026-03-28T09:46:18.655Z</time></trkpt><trkpt lat="44.0193067" lon="12.1509"><ele>235.0</ele><time>2026-03-28T09:46:19.656Z</time></trkpt><trkpt lat="44.0192183" lon="12.1507883"><ele>235.0</ele><time>2026-03-28T09:46:20.656Z</time></trkpt><trkpt lat="44.0191417" lon="12.150665"><ele>232.5</ele><time>2026-03-28T09:46:21.656Z</time></trkpt><trkpt lat="44.0190783" lon="12.1505267"><ele>230.0</ele><time>2026-03-28T09:46:22.656Z</time></trkpt><trkpt lat="44.01903" lon="12.15038"><ele>227.5</ele><time>2026-03-28T09:46:23.659Z</time></trkpt><trkpt lat="44.0189867" lon="12.1502283"><ele>225.0</ele><time>2026-03-28T09:46:24.659Z</time></trkpt><trkpt lat="44.0189533" lon="12.15007"><ele>225.0</ele><time>2026-03-28T09:46:25.658Z</time></trkpt><trkpt lat="44.0189283" lon="12.149905"><ele>225.0</ele><time>2026-03-28T09:46:26.658Z</time></trkpt><trkpt lat="44.0189183" lon="12.14974"><ele>225.0</ele><time>2026-03-28T09:46:27.66Z</time></trkpt><trkpt lat="44.0189217" lon="12.149585"><ele>225.0</ele><time>2026-03-28T09:46:28.658Z</time></trkpt><trkpt lat="44.0189317" lon="12.149445"><ele>226.2</ele><time>2026-03-28T09:46:29.658Z</time></trkpt><trkpt lat="44.018935" lon="12.1493167"><ele>227.4</ele><time>2026-03-28T09:46:30.659Z</time></trkpt><trkpt lat="44.0189233" lon="12.149185"><ele>228.60000000000002</ele><time>2026-03-28T09:46:31.659Z</time></trkpt><trkpt lat="44.01889" lon="12.14905"><ele>229.8</ele><time>2026-03-28T09:46:32.659Z</time></trkpt><trkpt lat="44.0188533" lon="12.1489117"><ele>231.0</ele><time>2026-03-28T09:46:33.66Z</time></trkpt><trkpt lat="44.0188117" lon="12.1487717"><ele>234.20000000000002</ele><time>2026-03-28T09:46:34.655Z</time></trkpt><trkpt lat="44.0187733" lon="12.1486383"><ele>237.40000000000003</ele><time>2026-03-28T09:46:35.658Z</time></trkpt><trkpt lat="44.0187367" lon="12.148525"><ele>240.6</ele><time>2026-03-28T09:46:36.659Z</time></trkpt><trkpt lat="44.018685" lon="12.148425"><ele>243.8</ele><time>2026-03-28T09:46:37.658Z</time></trkpt><trkpt lat="44.0186183" lon="12.1483383"><ele>247.0</ele><time>2026-03-28T09:46:38.659Z</time></trkpt><trkpt lat="44.01854" lon="12.1482633"><ele>247.6</ele><time>2026-03-28T09:46:39.658Z</time></trkpt><trkpt lat="44.0184617" lon="12.14819"><ele>248.2</ele><time>2026-03-28T09:46:40.658Z</time></trkpt><trkpt lat="44.0183817" lon="12.1481117"><ele>248.8</ele><time>2026-03-28T09:46:41.659Z</time></trkpt><trkpt lat="44.0183017" lon="12.1480267"><ele>249.4</ele><time>2026-03-28T09:46:42.658Z</time></trkpt><trkpt lat="44.0182267" lon="12.1479417"><ele>250.0</ele><time>2026-03-28T09:46:43.659Z</time></trkpt><trkpt lat="44.018155" lon="12.1478517"><ele>249.99999999999997</ele><time>2026-03-28T09:46:44.658Z</time></trkpt><trkpt lat="44.018085" lon="12.1477567"><ele>250.0</ele><time>2026-03-28T09:46:45.658Z</time></trkpt><trkpt lat="44.0180217" lon="12.1476567"><ele>250.0</ele><time>2026-03-28T09:46:46.656Z</time></trkpt><trkpt lat="44.0179667" lon="12.1475517"><ele>250.0</ele><time>2026-03-28T09:46:47.657Z</time></trkpt><trkpt lat="44.01793" lon="12.147445"><ele>249.99999999999997</ele><time>2026-03-28T09:46:48.657Z</time></trkpt><trkpt lat="44.0179067" lon="12.1473483"><ele>250.0</ele><time>2026-03-28T09:46:49.657Z</time></trkpt><trkpt lat="44.01791" lon="12.1472367"><ele>251.8</ele><time>2026-03-28T09:46:50.657Z</time></trkpt><trkpt lat="44.017915" lon="12.1471183"><ele>253.6</ele><time>2026-03-28T09:46:51.658Z</time></trkpt><trkpt lat="44.017915" lon="12.1469917"><ele>255.39999999999998</ele><time>2026-03-28T09:46:52.658Z</time></trkpt><trkpt lat="44.0178967" lon="12.146865"><ele>257.2</ele><time>2026-03-28T09:46:53.662Z</time></trkpt><trkpt lat="44.0178617" lon="12.1467367"><ele>259.0</ele><time>2026-03-28T09:46:54.658Z</time></trkpt><trkpt lat="44.0178083" lon="12.1466067"><ele>258.8</ele><time>2026-03-28T09:46:55.658Z</time></trkpt><trkpt lat="44.0177433" lon="12.1464933"><ele>258.59999999999997</ele><time>2026-03-28T09:46:56.659Z</time></trkpt><trkpt lat="44.01766" lon="12.1463933"><ele>258.4</ele><time>2026-03-28T09:46:57.658Z</time></trkpt><trkpt lat="44.0175767" lon="12.1463"><ele>258.2</ele><time>2026-03-28T09:46:58.658Z</time></trkpt><trkpt lat="44.0175" lon="12.1462133"><ele>258.0</ele><time>2026-03-28T09:46:59.659Z</time></trkpt><trkpt lat="44.017425" lon="12.1461433"><ele>258.0</ele><time>2026-03-28T09:47:00.659Z</time></trkpt><trkpt lat="44.0173417" lon="12.146085"><ele>258.0</ele><time>2026-03-28T09:47:01.658Z</time></trkpt><trkpt lat="44.01725" lon="12.14604"><ele>258.0</ele><time>2026-03-28T09:47:02.658Z</time></trkpt><trkpt lat="44.0171483" lon="12.1460133"><ele>258.0</ele><time>2026-03-28T09:47:03.661Z</time></trkpt><trkpt lat="44.0170367" lon="12.1460067"><ele>258.0</ele><time>2026-03-28T09:47:04.657Z</time></trkpt><trkpt lat="44.016915" lon="12.14602"><ele>258.0</ele><time>2026-03-28T09:47:05.659Z</time></trkpt><trkpt lat="44.0167867" lon="12.14604"><ele>258.0</ele><time>2026-03-28T09:47:06.659Z</time></trkpt><trkpt lat="44.0166533" lon="12.146055"><ele>258.0</ele><time>2026-03-28T09:47:07.658Z</time></trkpt><trkpt lat="44.0165133" lon="12.14607"><ele>258.0</ele><time>2026-03-28T09:47:08.659Z</time></trkpt><trkpt lat="44.016375" lon="12.1460883"><ele>258.5</ele><time>2026-03-28T09:47:09.658Z</time></trkpt><trkpt lat="44.0162417" lon="12.1461017"><ele>259.0</ele><time>2026-03-28T09:47:10.658Z</time></trkpt><trkpt lat="44.016115" lon="12.146105"><ele>259.5</ele><time>2026-03-28T09:47:11.659Z</time></trkpt><trkpt lat="44.0159883" lon="12.1461117"><ele>260.0</ele><time>2026-03-28T09:47:12.658Z</time></trkpt><trkpt lat="44.0158633" lon="12.1461283"><ele>260.25</ele><time>2026-03-28T09:47:13.661Z</time></trkpt><trkpt lat="44.0157367" lon="12.1461567"><ele>260.5</ele><time>2026-03-28T09:47:14.659Z</time></trkpt><trkpt lat="44.01561" lon="12.1461917"><ele>260.75</ele><time>2026-03-28T09:47:15.659Z</time></trkpt><trkpt lat="44.01548" lon="12.1462367"><ele>261.0</ele><time>2026-03-28T09:47:16.656Z</time></trkpt><trkpt lat="44.0153517" lon="12.146275"><ele>261.0</ele><time>2026-03-28T09:47:17.655Z</time></trkpt><trkpt lat="44.0152267" lon="12.1463017"><ele>261.0</ele><time>2026-03-28T09:47:18.656Z</time></trkpt><trkpt lat="44.0151033" lon="12.14631"><ele>261.0</ele><time>2026-03-28T09:47:19.656Z</time></trkpt><trkpt lat="44.014975" lon="12.1462967"><ele>261.0</ele><time>2026-03-28T09:47:20.655Z</time></trkpt><trkpt lat="44.0148467" lon="12.1462617"><ele>261.5</ele><time>2026-03-28T09:47:21.656Z</time></trkpt><trkpt lat="44.0147183" lon="12.1462183"><ele>262.0</ele><time>2026-03-28T09:47:22.656Z</time></trkpt><trkpt lat="44.0145883" lon="12.1461683"><ele>262.5</ele><time>2026-03-28T09:47:23.659Z</time></trkpt><trkpt lat="44.01446" lon="12.14611"><ele>263.0</ele><time>2026-03-28T09:47:24.659Z</time></trkpt><trkpt lat="44.0143367" lon="12.1460483"><ele>263.0</ele><time>2026-03-28T09:47:25.66Z</time></trkpt><trkpt lat="44.0142233" lon="12.145995"><ele>263.0</ele><time>2026-03-28T09:47:26.658Z</time></trkpt><trkpt lat="44.0141183" lon="12.1459467"><ele>263.0</ele><time>2026-03-28T09:47:27.659Z</time></trkpt><trkpt lat="44.0140117" lon="12.1459033"><ele>263.0</ele><time>2026-03-28T09:47:28.659Z</time></trkpt><trkpt lat="44.0139067" lon="12.1458583"><ele>262.6</ele><time>2026-03-28T09:47:29.661Z</time></trkpt><trkpt lat="44.0138117" lon="12.1458067"><ele>262.20000000000005</ele><time>2026-03-28T09:47:30.659Z</time></trkpt><trkpt lat="44.0137233" lon="12.14574"><ele>261.8</ele><time>2026-03-28T09:47:31.659Z</time></trkpt><trkpt lat="44.0136433" lon="12.14565"><ele>261.40000000000003</ele><time>2026-03-28T09:47:32.658Z</time></trkpt><trkpt lat="44.013575" lon="12.1455367"><ele>261.0</ele><time>2026-03-28T09:47:33.659Z</time></trkpt><trkpt lat="44.0135167" lon="12.1454017"><ele>261.0</ele><time>2026-03-28T09:47:34.658Z</time></trkpt><trkpt lat="44.0134633" lon="12.145245"><ele>261.0</ele><time>2026-03-28T09:47:35.659Z</time></trkpt><trkpt lat="44.01339" lon="12.1450867"><ele>261.0</ele><time>2026-03-28T09:47:36.658Z</time></trkpt><trkpt lat="44.0133033" lon="12.1449133"><ele>261.0</ele><time>2026-03-28T09:47:37.66Z</time></trkpt><trkpt lat="44.0132017" lon="12.1447333"><ele>262.5</ele><time>2026-03-28T09:47:38.658Z</time></trkpt><trkpt lat="44.0131033" lon="12.1445617"><ele>264.0</ele><time>2026-03-28T09:47:39.659Z</time></trkpt><trkpt lat="44.01301" lon="12.1444033"><ele>265.5</ele><time>2026-03-28T09:47:40.658Z</time></trkpt><trkpt lat="44.012925" lon="12.1442583"><ele>267.0</ele><time>2026-03-28T09:47:41.659Z</time></trkpt><trkpt lat="44.0128467" lon="12.1441317"><ele>268.0</ele><time>2026-03-28T09:47:42.659Z</time></trkpt><trkpt lat="44.01278" lon="12.1440067"><ele>269.0</ele><time>2026-03-28T09:47:43.659Z</time></trkpt><trkpt lat="44.0127133" lon="12.1438817"><ele>270.0</ele><time>2026-03-28T09:47:44.659Z</time></trkpt><trkpt lat="44.012645" lon="12.1437583"><ele>271.0</ele><time>2026-03-28T09:47:45.659Z</time></trkpt><trkpt lat="44.0125717" lon="12.143635"><ele>271.0</ele><time>2026-03-28T09:47:46.658Z</time></trkpt><trkpt lat="44.0124983" lon="12.1435067"><ele>271.0</ele><time>2026-03-28T09:47:47.659Z</time></trkpt><trkpt lat="44.0124267" lon="12.1433833"><ele>271.0</ele><time>2026-03-28T09:47:48.658Z</time></trkpt><trkpt lat="44.0123533" lon="12.1432667"><ele>271.0</ele><time>2026-03-28T09:47:49.658Z</time></trkpt><trkpt lat="44.0122883" lon="12.1431467"><ele>273.40000000000003</ele><time>2026-03-28T09:47:50.658Z</time></trkpt><trkpt lat="44.012225" lon="12.1430283"><ele>275.8</ele><time>2026-03-28T09:47:51.658Z</time></trkpt><trkpt lat="44.012165" lon="12.1429083"><ele>278.20000000000005</ele><time>2026-03-28T09:47:52.659Z</time></trkpt><trkpt lat="44.0121133" lon="12.14279"><ele>280.6</ele><time>2026-03-28T09:47:53.658Z</time></trkpt><trkpt lat="44.01207" lon="12.1426633"><ele>283.0</ele><time>2026-03-28T09:47:54.659Z</time></trkpt><trkpt lat="44.0120317" lon="12.1425233"><ele>283.5</ele><time>2026-03-28T09:47:55.659Z</time></trkpt><trkpt lat="44.01199" lon="12.1423783"><ele>284.0</ele><time>2026-03-28T09:47:56.659Z</time></trkpt><trkpt lat="44.0119517" lon="12.1422267"><ele>284.5</ele><time>2026-03-28T09:47:57.657Z</time></trkpt><trkpt lat="44.0119167" lon="12.1420683"><ele>285.0</ele><time>2026-03-28T09:47:58.661Z</time></trkpt><trkpt lat="44.011885" lon="12.1419"><ele>285.0</ele><time>2026-03-28T09:47:59.659Z</time></trkpt><trkpt lat="44.011855" lon="12.1417333"><ele>285.0</ele><time>2026-03-28T09:48:00.659Z</time></trkpt><trkpt lat="44.0118167" lon="12.14157"><ele>285.0</ele><time>2026-03-28T09:48:01.659Z</time></trkpt><trkpt lat="44.0117783" lon="12.1414017"><ele>285.0</ele><time>2026-03-28T09:48:02.658Z</time></trkpt><trkpt lat="44.01174" lon="12.14123"><ele>285.25</ele><time>2026-03-28T09:48:03.658Z</time></trkpt><trkpt lat="44.0117" lon="12.141055"><ele>285.5</ele><time>2026-03-28T09:48:04.659Z</time></trkpt><trkpt lat="44.0116583" lon="12.1408783"><ele>285.75</ele><time>2026-03-28T09:48:05.658Z</time></trkpt><trkpt lat="44.0116133" lon="12.14071"><ele>286.0</ele><time>2026-03-28T09:48:06.659Z</time></trkpt><trkpt lat="44.0115733" lon="12.1405467"><ele>287.75</ele><time>2026-03-28T09:48:07.658Z</time></trkpt><trkpt lat="44.0115417" lon="12.140385"><ele>289.5</ele><time>2026-03-28T09:48:08.659Z</time></trkpt><trkpt lat="44.0115217" lon="12.1402267"><ele>291.25</ele><time>2026-03-28T09:48:09.659Z</time></trkpt><trkpt lat="44.0115083" lon="12.14007"><ele>293.0</ele><time>2026-03-28T09:48:10.658Z</time></trkpt><trkpt lat="44.0115033" lon="12.1399117"><ele>293.5</ele><time>2026-03-28T09:48:11.658Z</time></trkpt><trkpt lat="44.0114983" lon="12.1397483"><ele>294.0</ele><time>2026-03-28T09:48:12.659Z</time></trkpt><trkpt lat="44.0115017" lon="12.1395783"><ele>294.5</ele><time>2026-03-28T09:48:13.658Z</time></trkpt><trkpt lat="44.0115083" lon="12.1393983"><ele>295.0</ele><time>2026-03-28T09:48:14.658Z</time></trkpt><trkpt lat="44.0115117" lon="12.1392167"><ele>295.25</ele><time>2026-03-28T09:48:15.659Z</time></trkpt><trkpt lat="44.01151" lon="12.139045"><ele>295.5</ele><time>2026-03-28T09:48:16.659Z</time></trkpt><trkpt lat="44.0115083" lon="12.1388783"><ele>295.75</ele><time>2026-03-28T09:48:17.661Z</time></trkpt><trkpt lat="44.01151" lon="12.138715"><ele>296.0</ele><time>2026-03-28T09:48:18.66Z</time></trkpt><trkpt lat="44.0115217" lon="12.1385567"><ele>296.0</ele><time>2026-03-28T09:48:19.658Z</time></trkpt><trkpt lat="44.0115417" lon="12.1384"><ele>296.0</ele><time>2026-03-28T09:48:20.658Z</time></trkpt><trkpt lat="44.0115717" lon="12.1382383"><ele>296.0</ele><time>2026-03-28T09:48:21.658Z</time></trkpt><trkpt lat="44.0116033" lon="12.1380817"><ele>296.0</ele><time>2026-03-28T09:48:22.658Z</time></trkpt><trkpt lat="44.01164" lon="12.137935"><ele>295.33333333333337</ele><time>2026-03-28T09:48:23.658Z</time></trkpt><trkpt lat="44.0116817" lon="12.137805"><ele>294.6666666666667</ele><time>2026-03-28T09:48:24.658Z</time></trkpt><trkpt lat="44.0117283" lon="12.13769"><ele>294.0</ele><time>2026-03-28T09:48:25.658Z</time></trkpt><trkpt lat="44.0117783" lon="12.1375883"><ele>293.3333333333333</ele><time>2026-03-28T09:48:26.659Z</time></trkpt><trkpt lat="44.0118233" lon="12.1374967"><ele>292.66666666666663</ele><time>2026-03-28T09:48:27.659Z</time></trkpt><trkpt lat="44.0118633" lon="12.1374233"><ele>292.0</ele><time>2026-03-28T09:48:28.659Z</time></trkpt><trkpt lat="44.01193" lon="12.1372983"><ele>292.0</ele><time>2026-03-28T09:48:30.659Z</time></trkpt><trkpt lat="44.0120233" lon="12.1371767"><ele>292.0</ele><time>2026-03-28T09:48:32.658Z</time></trkpt><trkpt lat="44.01209" lon="12.13712"><ele>292.0</ele><time>2026-03-28T09:48:33.659Z</time></trkpt><trkpt lat="44.0121733" lon="12.1370517"><ele>292.0</ele><time>2026-03-28T09:48:34.658Z</time></trkpt><trkpt lat="44.012265" lon="12.13697"><ele>292.0</ele><time>2026-03-28T09:48:35.659Z</time></trkpt><trkpt lat="44.012365" lon="12.13687"><ele>292.0</ele><time>2026-03-28T09:48:36.658Z</time></trkpt><trkpt lat="44.012475" lon="12.1367667"><ele>292.0</ele><time>2026-03-28T09:48:37.66Z</time></trkpt><trkpt lat="44.0125917" lon="12.1366583"><ele>292.0</ele><time>2026-03-28T09:48:38.659Z</time></trkpt><trkpt lat="44.01271" lon="12.1365517"><ele>292.0</ele><time>2026-03-28T09:48:39.658Z</time></trkpt><trkpt lat="44.01283" lon="12.1364533"><ele>288.25</ele><time>2026-03-28T09:48:40.66Z</time></trkpt><trkpt lat="44.0129467" lon="12.1363617"><ele>284.5</ele><time>2026-03-28T09:48:41.658Z</time></trkpt><trkpt lat="44.0130583" lon="12.1362717"><ele>280.75</ele><time>2026-03-28T09:48:42.659Z</time></trkpt><trkpt lat="44.013165" lon="12.1361867"><ele>277.0</ele><time>2026-03-28T09:48:43.659Z</time></trkpt><trkpt lat="44.0132617" lon="12.1361067"><ele>275.6</ele><time>2026-03-28T09:48:44.659Z</time></trkpt><trkpt lat="44.01336" lon="12.136045"><ele>274.2</ele><time>2026-03-28T09:48:45.658Z</time></trkpt><trkpt lat="44.0134617" lon="12.1360017"><ele>272.8</ele><time>2026-03-28T09:48:46.658Z</time></trkpt><trkpt lat="44.013555" lon="12.1359883"><ele>271.4</ele><time>2026-03-28T09:48:47.658Z</time></trkpt><trkpt lat="44.0136383" lon="12.136"><ele>270.0</ele><time>2026-03-28T09:48:48.659Z</time></trkpt><trkpt lat="44.01371" lon="12.1360383"><ele>270.0</ele><time>2026-03-28T09:48:49.659Z</time></trkpt><trkpt lat="44.0137683" lon="12.1361067"><ele>270.0</ele><time>2026-03-28T09:48:50.658Z</time></trkpt><trkpt lat="44.0138033" lon="12.136195"><ele>270.0</ele><time>2026-03-28T09:48:51.659Z</time></trkpt><trkpt lat="44.0138133" lon="12.1363067"><ele>270.0</ele><time>2026-03-28T09:48:52.659Z</time></trkpt><trkpt lat="44.0137933" lon="12.13645"><ele>270.0</ele><time>2026-03-28T09:48:53.658Z</time></trkpt><trkpt lat="44.0137483" lon="12.1366"><ele>269.6</ele><time>2026-03-28T09:48:54.658Z</time></trkpt><trkpt lat="44.01371" lon="12.13673"><ele>269.2</ele><time>2026-03-28T09:48:55.659Z</time></trkpt><trkpt lat="44.0136917" lon="12.1368333"><ele>268.8</ele><time>2026-03-28T09:48:56.659Z</time></trkpt><trkpt lat="44.01369" lon="12.1369267"><ele>268.4</ele><time>2026-03-28T09:48:57.659Z</time></trkpt><trkpt lat="44.0137533" lon="12.137045"><ele>268.0</ele><time>2026-03-28T09:48:59.659Z</time></trkpt><trkpt lat="44.0138817" lon="12.13698"><ele>268.0</ele><time>2026-03-28T09:49:01.66Z</time></trkpt><trkpt lat="44.0139467" lon="12.1368917"><ele>268.0</ele><time>2026-03-28T09:49:02.659Z</time></trkpt><trkpt lat="44.0140217" lon="12.1367817"><ele>268.0</ele><time>2026-03-28T09:49:03.658Z</time></trkpt><trkpt lat="44.0141233" lon="12.1366383"><ele>268.0</ele><time>2026-03-28T09:49:04.658Z</time></trkpt><trkpt lat="44.0142283" lon="12.13649"><ele>266.0</ele><time>2026-03-28T09:49:05.658Z</time></trkpt><trkpt lat="44.0143367" lon="12.1363467"><ele>264.0</ele><time>2026-03-28T09:49:06.659Z</time></trkpt><trkpt lat="44.014445" lon="12.1362117"><ele>262.0</ele><time>2026-03-28T09:49:07.66Z</time></trkpt><trkpt lat="44.0145367" lon="12.1360883"><ele>260.0</ele><time>2026-03-28T09:49:08.659Z</time></trkpt><trkpt lat="44.0146033" lon="12.1359583"><ele>260.0</ele><time>2026-03-28T09:49:09.658Z</time></trkpt><trkpt lat="44.014645" lon="12.13582"><ele>260.0</ele><time>2026-03-28T09:49:10.659Z</time></trkpt><trkpt lat="44.0146683" lon="12.135685"><ele>260.0</ele><time>2026-03-28T09:49:11.659Z</time></trkpt><trkpt lat="44.0146817" lon="12.1355783"><ele>260.0</ele><time>2026-03-28T09:49:12.658Z</time></trkpt><trkpt lat="44.0147383" lon="12.13544"><ele>260.0</ele><time>2026-03-28T09:49:14.659Z</time></trkpt><trkpt lat="44.0148433" lon="12.1354717"><ele>259.1666666666667</ele><time>2026-03-28T09:49:16.656Z</time></trkpt><trkpt lat="44.014885" lon="12.13554"><ele>258.33333333333337</ele><time>2026-03-28T09:49:17.655Z</time></trkpt><trkpt lat="44.0149283" lon="12.13562"><ele>257.5</ele><time>2026-03-28T09:49:18.656Z</time></trkpt><trkpt lat="44.01498" lon="12.1356967"><ele>256.6666666666667</ele><time>2026-03-28T09:49:19.657Z</time></trkpt><trkpt lat="44.0150483" lon="12.1357267"><ele>255.83333333333334</ele><time>2026-03-28T09:49:20.656Z</time></trkpt><trkpt lat="44.0151317" lon="12.135715"><ele>255.0</ele><time>2026-03-28T09:49:21.656Z</time></trkpt><trkpt lat="44.0152467" lon="12.1356633"><ele>252.75</ele><time>2026-03-28T09:49:22.657Z</time></trkpt><trkpt lat="44.0153767" lon="12.1356233"><ele>250.5</ele><time>2026-03-28T09:49:23.658Z</time></trkpt><trkpt lat="44.0154983" lon="12.1355967"><ele>248.25</ele><time>2026-03-28T09:49:24.658Z</time></trkpt><trkpt lat="44.0156033" lon="12.1355733"><ele>246.0</ele><time>2026-03-28T09:49:25.658Z</time></trkpt><trkpt lat="44.0157133" lon="12.1355217"><ele>243.5</ele><time>2026-03-28T09:49:26.658Z</time></trkpt><trkpt lat="44.0158317" lon="12.135445"><ele>241.0</ele><time>2026-03-28T09:49:27.659Z</time></trkpt><trkpt lat="44.0159567" lon="12.1353583"><ele>238.5</ele><time>2026-03-28T09:49:28.658Z</time></trkpt><trkpt lat="44.0160867" lon="12.1352633"><ele>236.0</ele><time>2026-03-28T09:49:29.658Z</time></trkpt><trkpt lat="44.016225" lon="12.1351683"><ele>236.0</ele><time>2026-03-28T09:49:30.659Z</time></trkpt><trkpt lat="44.0163617" lon="12.13508"><ele>236.0</ele><time>2026-03-28T09:49:31.658Z</time></trkpt><trkpt lat="44.016485" lon="12.135005"><ele>236.0</ele><time>2026-03-28T09:49:32.658Z</time></trkpt><trkpt lat="44.0165983" lon="12.1349383"><ele>236.0</ele><time>2026-03-28T09:49:33.659Z</time></trkpt><trkpt lat="44.0166983" lon="12.1348717"><ele>232.60000000000002</ele><time>2026-03-28T09:49:34.658Z</time></trkpt><trkpt lat="44.01678" lon="12.1347983"><ele>229.20000000000002</ele><time>2026-03-28T09:49:35.658Z</time></trkpt><trkpt lat="44.01686" lon="12.1347367"><ele>225.79999999999998</ele><time>2026-03-28T09:49:36.659Z</time></trkpt><trkpt lat="44.0169567" lon="12.1346933"><ele>222.39999999999998</ele><time>2026-03-28T09:49:37.66Z</time></trkpt><trkpt lat="44.0170583" lon="12.13468"><ele>219.0</ele><time>2026-03-28T09:49:38.659Z</time></trkpt><trkpt lat="44.0171617" lon="12.1346967"><ele>219.0</ele><time>2026-03-28T09:49:39.659Z</time></trkpt><trkpt lat="44.0172633" lon="12.1347233"><ele>218.99999999999997</ele><time>2026-03-28T09:49:40.658Z</time></trkpt><trkpt lat="44.01736" lon="12.1347367"><ele>218.99999999999997</ele><time>2026-03-28T09:49:41.659Z</time></trkpt><trkpt lat="44.0174517" lon="12.1347183"><ele>219.0</ele><time>2026-03-28T09:49:42.659Z</time></trkpt><trkpt lat="44.01754" lon="12.1346717"><ele>219.0</ele><time>2026-03-28T09:49:43.659Z</time></trkpt><trkpt lat="44.0176283" lon="12.1345917"><ele>218.2</ele><time>2026-03-28T09:49:44.659Z</time></trkpt><trkpt lat="44.0177183" lon="12.1345067"><ele>217.39999999999998</ele><time>2026-03-28T09:49:45.659Z</time></trkpt><trkpt lat="44.0178067" lon="12.1344267"><ele>216.6</ele><time>2026-03-28T09:49:46.658Z</time></trkpt><trkpt lat="44.01791" lon="12.1343633"><ele>215.8</ele><time>2026-03-28T09:49:47.654Z</time></trkpt><trkpt lat="44.0180083" lon="12.1343583"><ele>215.0</ele><time>2026-03-28T09:49:48.659Z</time></trkpt><trkpt lat="44.0181333" lon="12.1344033"><ele>215.0</ele><time>2026-03-28T09:49:49.659Z</time></trkpt><trkpt lat="44.0182667" lon="12.1344617"><ele>215.0</ele><time>2026-03-28T09:49:50.658Z</time></trkpt><trkpt lat="44.018405" lon="12.1345233"><ele>215.0</ele><time>2026-03-28T09:49:51.659Z</time></trkpt><trkpt lat="44.0185367" lon="12.13459"><ele>215.0</ele><time>2026-03-28T09:49:52.659Z</time></trkpt><trkpt lat="44.0186617" lon="12.1346467"><ele>214.0</ele><time>2026-03-28T09:49:53.658Z</time></trkpt><trkpt lat="44.0187833" lon="12.1346867"><ele>213.0</ele><time>2026-03-28T09:49:54.659Z</time></trkpt><trkpt lat="44.018895" lon="12.1347133"><ele>212.0</ele><time>2026-03-28T09:49:55.661Z</time></trkpt><trkpt lat="44.0190033" lon="12.1347167"><ele>211.0</ele><time>2026-03-28T09:49:56.658Z</time></trkpt><trkpt lat="44.019125" lon="12.1346917"><ele>208.75</ele><time>2026-03-28T09:49:57.659Z</time></trkpt><trkpt lat="44.01925" lon="12.1346367"><ele>206.5</ele><time>2026-03-28T09:49:58.66Z</time></trkpt><trkpt lat="44.0193783" lon="12.1345767"><ele>204.25</ele><time>2026-03-28T09:49:59.658Z</time></trkpt><trkpt lat="44.0195067" lon="12.1345133"><ele>202.0</ele><time>2026-03-28T09:50:00.659Z</time></trkpt><trkpt lat="44.01963" lon="12.134455"><ele>202.0</ele><time>2026-03-28T09:50:01.662Z</time></trkpt><trkpt lat="44.0197467" lon="12.1344083"><ele>202.0</ele><time>2026-03-28T09:50:02.658Z</time></trkpt><trkpt lat="44.0198683" lon="12.134375"><ele>202.0</ele><time>2026-03-28T09:50:03.657Z</time></trkpt><trkpt lat="44.0199967" lon="12.134355"><ele>202.0</ele><time>2026-03-28T09:50:04.659Z</time></trkpt><trkpt lat="44.0201317" lon="12.1343383"><ele>199.5</ele><time>2026-03-28T09:50:05.66Z</time></trkpt><trkpt lat="44.020275" lon="12.1343217"><ele>197.0</ele><time>2026-03-28T09:50:06.658Z</time></trkpt><trkpt lat="44.0204133" lon="12.1343033"><ele>194.5</ele><time>2026-03-28T09:50:07.658Z</time></trkpt><trkpt lat="44.0205383" lon="12.1342867"><ele>192.0</ele><time>2026-03-28T09:50:08.658Z</time></trkpt><trkpt lat="44.02064" lon="12.1342733"><ele>192.0</ele><time>2026-03-28T09:50:09.659Z</time></trkpt><trkpt lat="44.0207317" lon="12.134235"><ele>192.0</ele><time>2026-03-28T09:50:10.658Z</time></trkpt><trkpt lat="44.020815" lon="12.13416"><ele>192.0</ele><time>2026-03-28T09:50:11.658Z</time></trkpt><trkpt lat="44.02089" lon="12.1340583"><ele>192.0</ele><time>2026-03-28T09:50:12.658Z</time></trkpt><trkpt lat="44.0209633" lon="12.1339517"><ele>192.0</ele><time>2026-03-28T09:50:13.66Z</time></trkpt><trkpt lat="44.02104" lon="12.133855"><ele>189.39999999999998</ele><time>2026-03-28T09:50:14.659Z</time></trkpt><trkpt lat="44.02112" lon="12.1337883"><ele>186.79999999999998</ele><time>2026-03-28T09:50:15.659Z</time></trkpt><trkpt lat="44.021205" lon="12.1337617"><ele>184.2</ele><time>2026-03-28T09:50:16.659Z</time></trkpt><trkpt lat="44.0212917" lon="12.1337683"><ele>181.6</ele><time>2026-03-28T09:50:17.662Z</time></trkpt><trkpt lat="44.02139" lon="12.1337717"><ele>179.0</ele><time>2026-03-28T09:50:18.659Z</time></trkpt><trkpt lat="44.0215033" lon="12.13377"><ele>179.0</ele><time>2026-03-28T09:50:19.659Z</time></trkpt><trkpt lat="44.0216217" lon="12.1337733"><ele>179.0</ele><time>2026-03-28T09:50:20.658Z</time></trkpt><trkpt lat="44.0217433" lon="12.1337783"><ele>179.0</ele><time>2026-03-28T09:50:21.655Z</time></trkpt><trkpt lat="44.021865" lon="12.1337817"><ele>179.0</ele><time>2026-03-28T09:50:22.655Z</time></trkpt><trkpt lat="44.0219867" lon="12.1337867"><ele>176.5</ele><time>2026-03-28T09:50:23.659Z</time></trkpt><trkpt lat="44.0221033" lon="12.1337883"><ele>174.0</ele><time>2026-03-28T09:50:24.659Z</time></trkpt><trkpt lat="44.022225" lon="12.1337867"><ele>171.5</ele><time>2026-03-28T09:50:25.658Z</time></trkpt><trkpt lat="44.0223467" lon="12.13379"><ele>169.0</ele><time>2026-03-28T09:50:26.656Z</time></trkpt><trkpt lat="44.0224733" lon="12.1337917"><ele>166.5</ele><time>2026-03-28T09:50:27.658Z</time></trkpt><trkpt lat="44.0226" lon="12.133795"><ele>164.0</ele><time>2026-03-28T09:50:28.655Z</time></trkpt><trkpt lat="44.0227267" lon="12.1337967"><ele>161.5</ele><time>2026-03-28T09:50:29.655Z</time></trkpt><trkpt lat="44.0228483" lon="12.1338"><ele>159.0</ele><time>2026-03-28T09:50:30.659Z</time></trkpt><trkpt lat="44.0229733" lon="12.1338"><ele>159.0</ele><time>2026-03-28T09:50:31.655Z</time></trkpt><trkpt lat="44.023095" lon="12.1338017"><ele>159.0</ele><time>2026-03-28T09:50:32.656Z</time></trkpt><trkpt lat="44.0232117" lon="12.133805"><ele>159.0</ele><time>2026-03-28T09:50:33.656Z</time></trkpt><trkpt lat="44.0233233" lon="12.1338083"><ele>159.0</ele><time>2026-03-28T09:50:34.655Z</time></trkpt><trkpt lat="44.0234317" lon="12.1338083"><ele>157.8</ele><time>2026-03-28T09:50:35.655Z</time></trkpt><trkpt lat="44.0235367" lon="12.1338017"><ele>156.60000000000002</ele><time>2026-03-28T09:50:36.658Z</time></trkpt><trkpt lat="44.0236367" lon="12.1337933"><ele>155.4</ele><time>2026-03-28T09:50:37.657Z</time></trkpt><trkpt lat="44.02373" lon="12.1337883"><ele>154.20000000000002</ele><time>2026-03-28T09:50:38.658Z</time></trkpt><trkpt lat="44.0238217" lon="12.133795"><ele>153.0</ele><time>2026-03-28T09:50:39.659Z</time></trkpt><trkpt lat="44.0239133" lon="12.1338233"><ele>153.0</ele><time>2026-03-28T09:50:40.659Z</time></trkpt><trkpt lat="44.0240133" lon="12.1338583"><ele>153.0</ele><time>2026-03-28T09:50:41.659Z</time></trkpt><trkpt lat="44.0241183" lon="12.1338833"><ele>153.0</ele><time>2026-03-28T09:50:42.659Z</time></trkpt><trkpt lat="44.0242217" lon="12.1339"><ele>153.0</ele><time>2026-03-28T09:50:43.657Z</time></trkpt><trkpt lat="44.02431" lon="12.1339117"><ele>153.0</ele><time>2026-03-28T09:50:44.655Z</time></trkpt><trkpt lat="44.024385" lon="12.1339167"><ele>153.20000000000002</ele><time>2026-03-28T09:50:45.655Z</time></trkpt><trkpt lat="44.0244833" lon="12.1339983"><ele>153.4</ele><time>2026-03-28T09:50:47.658Z</time></trkpt><trkpt lat="44.02448" lon="12.1341233"><ele>153.60000000000002</ele><time>2026-03-28T09:50:49.659Z</time></trkpt><trkpt lat="44.0243417" lon="12.1342067"><ele>153.8</ele><time>2026-03-28T09:50:51.659Z</time></trkpt><trkpt lat="44.0242517" lon="12.1342433"><ele>154.0</ele><time>2026-03-28T09:50:52.659Z</time></trkpt><trkpt lat="44.024145" lon="12.13428"><ele>154.0</ele><time>2026-03-28T09:50:53.659Z</time></trkpt><trkpt lat="44.02405" lon="12.13432"><ele>154.0</ele><time>2026-03-28T09:50:54.658Z</time></trkpt><trkpt lat="44.023985" lon="12.1343783"><ele>154.0</ele><time>2026-03-28T09:50:55.659Z</time></trkpt><trkpt lat="44.024005" lon="12.1345017"><ele>154.0</ele><time>2026-03-28T09:50:57.658Z</time></trkpt><trkpt lat="44.0240783" lon="12.13457"><ele>154.0</ele><time>2026-03-28T09:50:59.658Z</time></trkpt><trkpt lat="44.02417" lon="12.134555"><ele>154.0</ele><time>2026-03-28T09:51:00.658Z</time></trkpt><trkpt lat="44.0242867" lon="12.134525"><ele>152.0</ele><time>2026-03-28T09:51:01.66Z</time></trkpt><trkpt lat="44.02439" lon="12.1345367"><ele>150.0</ele><time>2026-03-28T09:51:02.659Z</time></trkpt><trkpt lat="44.0245017" lon="12.134575"><ele>148.0</ele><time>2026-03-28T09:51:03.659Z</time></trkpt><trkpt lat="44.0246033" lon="12.1346517"><ele>146.0</ele><time>2026-03-28T09:51:04.658Z</time></trkpt><trkpt lat="44.0247017" lon="12.1347533"><ele>146.0</ele><time>2026-03-28T09:51:05.659Z</time></trkpt><trkpt lat="44.024805" lon="12.1348717"><ele>146.0</ele><time>2026-03-28T09:51:06.658Z</time></trkpt><trkpt lat="44.0249067" lon="12.1349817"><ele>146.0</ele><time>2026-03-28T09:51:07.659Z</time></trkpt><trkpt lat="44.0249933" lon="12.13508"><ele>146.0</ele><time>2026-03-28T09:51:08.659Z</time></trkpt><trkpt lat="44.0250717" lon="12.1351567"><ele>143.83333333333331</ele><time>2026-03-28T09:51:09.658Z</time></trkpt><trkpt lat="44.0251433" lon="12.1352117"><ele>141.66666666666666</ele><time>2026-03-28T09:51:10.658Z</time></trkpt><trkpt lat="44.0252183" lon="12.1352383"><ele>139.5</ele><time>2026-03-28T09:51:11.659Z</time></trkpt><trkpt lat="44.025295" lon="12.1352383"><ele>137.33333333333334</ele><time>2026-03-28T09:51:12.659Z</time></trkpt><trkpt lat="44.0253717" lon="12.13521"><ele>135.16666666666669</ele><time>2026-03-28T09:51:13.658Z</time></trkpt><trkpt lat="44.0254417" lon="12.13517"><ele>133.0</ele><time>2026-03-28T09:51:14.658Z</time></trkpt><trkpt lat="44.025515" lon="12.13513"><ele>133.0</ele><time>2026-03-28T09:51:15.659Z</time></trkpt><trkpt lat="44.0255917" lon="12.1351033"><ele>133.0</ele><time>2026-03-28T09:51:16.659Z</time></trkpt><trkpt lat="44.0256717" lon="12.1350833"><ele>133.0</ele><time>2026-03-28T09:51:17.655Z</time></trkpt><trkpt lat="44.0257533" lon="12.1350583"><ele>133.0</ele><time>2026-03-28T09:51:18.656Z</time></trkpt><trkpt lat="44.0258283" lon="12.1350217"><ele>133.0</ele><time>2026-03-28T09:51:19.657Z</time></trkpt><trkpt lat="44.0258983" lon="12.13496"><ele>133.0</ele><time>2026-03-28T09:51:20.656Z</time></trkpt><trkpt lat="44.0259517" lon="12.1348733"><ele>131.0</ele><time>2026-03-28T09:51:21.656Z</time></trkpt><trkpt lat="44.025995" lon="12.1347567"><ele>129.0</ele><time>2026-03-28T09:51:22.657Z</time></trkpt><trkpt lat="44.0260117" lon="12.134625"><ele>127.0</ele><time>2026-03-28T09:51:23.656Z</time></trkpt><trkpt lat="44.02602" lon="12.1345117"><ele>125.0</ele><time>2026-03-28T09:51:24.655Z</time></trkpt><trkpt lat="44.0260217" lon="12.1344067"><ele>123.00000000000001</ele><time>2026-03-28T09:51:25.655Z</time></trkpt><trkpt lat="44.026015" lon="12.134295"><ele>121.0</ele><time>2026-03-28T09:51:26.655Z</time></trkpt><trkpt lat="44.025995" lon="12.1341717"><ele>119.6</ele><time>2026-03-28T09:51:27.657Z</time></trkpt><trkpt lat="44.0259667" lon="12.1340333"><ele>118.19999999999999</ele><time>2026-03-28T09:51:28.662Z</time></trkpt><trkpt lat="44.0259333" lon="12.1338783"><ele>116.80000000000001</ele><time>2026-03-28T09:51:29.659Z</time></trkpt><trkpt lat="44.025895" lon="12.1337283"><ele>115.4</ele><time>2026-03-28T09:51:30.659Z</time></trkpt><trkpt lat="44.0258633" lon="12.1335883"><ele>114.0</ele><time>2026-03-28T09:51:31.66Z</time></trkpt><trkpt lat="44.0258433" lon="12.1334483"><ele>114.0</ele><time>2026-03-28T09:51:32.658Z</time></trkpt><trkpt lat="44.025845" lon="12.1332983"><ele>114.0</ele><time>2026-03-28T09:51:33.658Z</time></trkpt><trkpt lat="44.025865" lon="12.1331367"><ele>114.0</ele><time>2026-03-28T09:51:34.658Z</time></trkpt><trkpt lat="44.0259" lon="12.1329683"><ele>114.0</ele><time>2026-03-28T09:51:35.659Z</time></trkpt><trkpt lat="44.0259467" lon="12.1327917"><ele>113.25</ele><time>2026-03-28T09:51:36.659Z</time></trkpt><trkpt lat="44.0259983" lon="12.1326"><ele>112.5</ele><time>2026-03-28T09:51:37.658Z</time></trkpt><trkpt lat="44.0260533" lon="12.132405"><ele>111.75</ele><time>2026-03-28T09:51:38.655Z</time></trkpt><trkpt lat="44.0261033" lon="12.13221"><ele>111.0</ele><time>2026-03-28T09:51:39.657Z</time></trkpt><trkpt lat="44.0261517" lon="12.1320167"><ele>110.75</ele><time>2026-03-28T09:51:40.657Z</time></trkpt><trkpt lat="44.026195" lon="12.1318267"><ele>110.5</ele><time>2026-03-28T09:51:41.659Z</time></trkpt><trkpt lat="44.0262367" lon="12.1316533"><ele>110.25</ele><time>2026-03-28T09:51:42.658Z</time></trkpt><trkpt lat="44.0262783" lon="12.1314883"><ele>110.0</ele><time>2026-03-28T09:51:43.658Z</time></trkpt><trkpt lat="44.0263217" lon="12.13133"><ele>110.4</ele><time>2026-03-28T09:51:44.658Z</time></trkpt><trkpt lat="44.0263617" lon="12.13118"><ele>110.8</ele><time>2026-03-28T09:51:45.658Z</time></trkpt><trkpt lat="44.0263967" lon="12.13104"><ele>111.19999999999999</ele><time>2026-03-28T09:51:46.659Z</time></trkpt><trkpt lat="44.026435" lon="12.1309117"><ele>111.6</ele><time>2026-03-28T09:51:47.656Z</time></trkpt><trkpt lat="44.02647" lon="12.1307917"><ele>112.0</ele><time>2026-03-28T09:51:48.659Z</time></trkpt><trkpt lat="44.0265" lon="12.130695"><ele>113.19999999999999</ele><time>2026-03-28T09:51:49.656Z</time></trkpt><trkpt lat="44.026535" lon="12.1305833"><ele>114.39999999999999</ele><time>2026-03-28T09:51:51.656Z</time></trkpt><trkpt lat="44.026495" lon="12.1304983"><ele>115.60000000000001</ele><time>2026-03-28T09:52:02.658Z</time></trkpt><trkpt lat="44.0263683" lon="12.130425"><ele>116.80000000000001</ele><time>2026-03-28T09:52:04.658Z</time></trkpt><trkpt lat="44.026275" lon="12.1303883"><ele>118.0</ele><time>2026-03-28T09:52:05.659Z</time></trkpt><trkpt lat="44.0261633" lon="12.1303483"><ele>118.0</ele><time>2026-03-28T09:52:06.656Z</time></trkpt><trkpt lat="44.0260433" lon="12.1303017"><ele>118.0</ele><time>2026-03-28T09:52:07.659Z</time></trkpt><trkpt lat="44.02591" lon="12.1302467"><ele>118.0</ele><time>2026-03-28T09:52:08.658Z</time></trkpt><trkpt lat="44.0257733" lon="12.1301867"><ele>118.0</ele><time>2026-03-28T09:52:09.659Z</time></trkpt><trkpt lat="44.0256383" lon="12.130115"><ele>116.66666666666667</ele><time>2026-03-28T09:52:10.657Z</time></trkpt><trkpt lat="44.02551" lon="12.130025"><ele>115.33333333333334</ele><time>2026-03-28T09:52:11.656Z</time></trkpt><trkpt lat="44.025385" lon="12.129905"><ele>114.0</ele><time>2026-03-28T09:52:12.659Z</time></trkpt><trkpt lat="44.025265" lon="12.12975"><ele>114.0</ele><time>2026-03-28T09:52:13.659Z</time></trkpt><trkpt lat="44.0251517" lon="12.1295717"><ele>114.0</ele><time>2026-03-28T09:52:14.655Z</time></trkpt><trkpt lat="44.025055" lon="12.1293767"><ele>114.0</ele><time>2026-03-28T09:52:15.66Z</time></trkpt><trkpt lat="44.0249633" lon="12.1291733"><ele>114.33333333333334</ele><time>2026-03-28T09:52:16.658Z</time></trkpt><trkpt lat="44.0248683" lon="12.1289683"><ele>114.66666666666667</ele><time>2026-03-28T09:52:17.655Z</time></trkpt><trkpt lat="44.0247633" lon="12.1287717"><ele>115.0</ele><time>2026-03-28T09:52:18.655Z</time></trkpt><trkpt lat="44.024645" lon="12.12858"><ele>115.0</ele><time>2026-03-28T09:52:19.657Z</time></trkpt><trkpt lat="44.02452" lon="12.12841"><ele>115.0</ele><time>2026-03-28T09:52:20.657Z</time></trkpt><trkpt lat="44.0243933" lon="12.1282717"><ele>115.0</ele><time>2026-03-28T09:52:21.655Z</time></trkpt><trkpt lat="44.02428" lon="12.12816"><ele>115.2</ele><time>2026-03-28T09:52:22.657Z</time></trkpt><trkpt lat="44.0241817" lon="12.1280683"><ele>115.4</ele><time>2026-03-28T09:52:23.656Z</time></trkpt><trkpt lat="44.02409" lon="12.1279817"><ele>115.6</ele><time>2026-03-28T09:52:24.656Z</time></trkpt><trkpt lat="44.0240017" lon="12.127895"><ele>115.8</ele><time>2026-03-28T09:52:25.656Z</time></trkpt><trkpt lat="44.0239133" lon="12.1278017"><ele>116.0</ele><time>2026-03-28T09:52:26.655Z</time></trkpt><trkpt lat="44.0238217" lon="12.1277017"><ele>116.0</ele><time>2026-03-28T09:52:27.656Z</time></trkpt><trkpt lat="44.0237283" lon="12.127595"><ele>116.0</ele><time>2026-03-28T09:52:28.659Z</time></trkpt><trkpt lat="44.0236333" lon="12.1274933"><ele>116.0</ele><time>2026-03-28T09:52:29.658Z</time></trkpt><trkpt lat="44.0235433" lon="12.1274"><ele>116.0</ele><time>2026-03-28T09:52:30.658Z</time></trkpt><trkpt lat="44.02345" lon="12.1273017"><ele>116.0</ele><time>2026-03-28T09:52:31.658Z</time></trkpt><trkpt lat="44.02335" lon="12.1271983"><ele>116.0</ele><time>2026-03-28T09:52:32.658Z</time></trkpt><trkpt lat="44.02324" lon="12.1270933"><ele>116.0</ele><time>2026-03-28T09:52:33.658Z</time></trkpt><trkpt lat="44.0231217" lon="12.126985"><ele>116.0</ele><time>2026-03-28T09:52:34.659Z</time></trkpt><trkpt lat="44.0230017" lon="12.1268667"><ele>116.33333333333333</ele><time>2026-03-28T09:52:35.659Z</time></trkpt><trkpt lat="44.022875" lon="12.1267367"><ele>116.66666666666666</ele><time>2026-03-28T09:52:36.659Z</time></trkpt><trkpt lat="44.0227383" lon="12.1266017"><ele>117.0</ele><time>2026-03-28T09:52:37.658Z</time></trkpt><trkpt lat="44.0226017" lon="12.1264533"><ele>117.66666666666666</ele><time>2026-03-28T09:52:38.659Z</time></trkpt><trkpt lat="44.022455" lon="12.1262917"><ele>118.33333333333333</ele><time>2026-03-28T09:52:39.659Z</time></trkpt><trkpt lat="44.0223067" lon="12.1261283"><ele>119.0</ele><time>2026-03-28T09:52:40.658Z</time></trkpt><trkpt lat="44.0221583" lon="12.125975"><ele>119.0</ele><time>2026-03-28T09:52:41.659Z</time></trkpt><trkpt lat="44.0220067" lon="12.1258183"><ele>119.0</ele><time>2026-03-28T09:52:42.659Z</time></trkpt><trkpt lat="44.02185" lon="12.1256567"><ele>119.0</ele><time>2026-03-28T09:52:43.659Z</time></trkpt><trkpt lat="44.0216867" lon="12.1254933"><ele>119.33333333333333</ele><time>2026-03-28T09:52:44.659Z</time></trkpt><trkpt lat="44.0215183" lon="12.1253267"><ele>119.66666666666666</ele><time>2026-03-28T09:52:45.659Z</time></trkpt><trkpt lat="44.021345" lon="12.1251517"><ele>120.0</ele><time>2026-03-28T09:52:46.656Z</time></trkpt><trkpt lat="44.0211733" lon="12.1249733"><ele>120.0</ele><time>2026-03-28T09:52:47.658Z</time></trkpt><trkpt lat="44.0210033" lon="12.1248"><ele>120.0</ele><time>2026-03-28T09:52:48.657Z</time></trkpt><trkpt lat="44.0208317" lon="12.124625"><ele>120.0</ele><time>2026-03-28T09:52:49.658Z</time></trkpt><trkpt lat="44.0206617" lon="12.12445"><ele>120.0</ele><time>2026-03-28T09:52:50.656Z</time></trkpt><trkpt lat="44.0204917" lon="12.124275"><ele>120.0</ele><time>2026-03-28T09:52:51.658Z</time></trkpt><trkpt lat="44.0203233" lon="12.1241"><ele>120.0</ele><time>2026-03-28T09:52:52.655Z</time></trkpt><trkpt lat="44.020155" lon="12.1239233"><ele>120.33333333333334</ele><time>2026-03-28T09:52:53.656Z</time></trkpt><trkpt lat="44.0199867" lon="12.123745"><ele>120.66666666666667</ele><time>2026-03-28T09:52:54.655Z</time></trkpt><trkpt lat="44.0198183" lon="12.1235683"><ele>121.0</ele><time>2026-03-28T09:52:55.656Z</time></trkpt><trkpt lat="44.01965" lon="12.123395"><ele>122.0</ele><time>2026-03-28T09:52:56.656Z</time></trkpt><trkpt lat="44.01948" lon="12.1232233"><ele>123.0</ele><time>2026-03-28T09:52:57.656Z</time></trkpt><trkpt lat="44.01931" lon="12.12305"><ele>124.0</ele><time>2026-03-28T09:52:58.656Z</time></trkpt><trkpt lat="44.0191417" lon="12.1228783"><ele>124.0</ele><time>2026-03-28T09:52:59.656Z</time></trkpt><trkpt lat="44.018975" lon="12.122705"><ele>124.0</ele><time>2026-03-28T09:53:00.656Z</time></trkpt><trkpt lat="44.018815" lon="12.1225367"><ele>124.0</ele><time>2026-03-28T09:53:01.656Z</time></trkpt><trkpt lat="44.018655" lon="12.1223833"><ele>125.33333333333334</ele><time>2026-03-28T09:53:02.659Z</time></trkpt><trkpt lat="44.01848" lon="12.12226"><ele>126.66666666666666</ele><time>2026-03-28T09:53:03.658Z</time></trkpt><trkpt lat="44.0182883" lon="12.122155"><ele>128.0</ele><time>2026-03-28T09:53:04.658Z</time></trkpt><trkpt lat="44.0180833" lon="12.12207"><ele>128.0</ele><time>2026-03-28T09:53:05.659Z</time></trkpt><trkpt lat="44.017865" lon="12.1219883"><ele>128.0</ele><time>2026-03-28T09:53:06.66Z</time></trkpt><trkpt lat="44.0176433" lon="12.1219067"><ele>127.0</ele><time>2026-03-28T09:53:07.658Z</time></trkpt><trkpt lat="44.017425" lon="12.1218267"><ele>126.0</ele><time>2026-03-28T09:53:08.658Z</time></trkpt><trkpt lat="44.017205" lon="12.1217433"><ele>126.0</ele><time>2026-03-28T09:53:09.658Z</time></trkpt><trkpt lat="44.0169867" lon="12.1216567"><ele>126.0</ele><time>2026-03-28T09:53:10.659Z</time></trkpt><trkpt lat="44.01677" lon="12.1215733"><ele>127.33333333333334</ele><time>2026-03-28T09:53:11.659Z</time></trkpt><trkpt lat="44.0165567" lon="12.1214967"><ele>128.66666666666669</ele><time>2026-03-28T09:53:12.658Z</time></trkpt><trkpt lat="44.016355" lon="12.121425"><ele>130.0</ele><time>2026-03-28T09:53:13.659Z</time></trkpt><trkpt lat="44.0161583" lon="12.1213417"><ele>130.0</ele><time>2026-03-28T09:53:14.659Z</time></trkpt><trkpt lat="44.01596" lon="12.12124"><ele>130.0</ele><time>2026-03-28T09:53:15.659Z</time></trkpt><trkpt lat="44.0157583" lon="12.1211133"><ele>130.0</ele><time>2026-03-28T09:53:16.656Z</time></trkpt><trkpt lat="44.0155533" lon="12.1209683"><ele>128.5</ele><time>2026-03-28T09:53:17.658Z</time></trkpt><trkpt lat="44.01535" lon="12.120805"><ele>127.0</ele><time>2026-03-28T09:53:18.657Z</time></trkpt><trkpt lat="44.0151417" lon="12.1206417"><ele>126.0</ele><time>2026-03-28T09:53:19.658Z</time></trkpt><trkpt lat="44.01493" lon="12.1204817"><ele>125.0</ele><time>2026-03-28T09:53:20.658Z</time></trkpt><trkpt lat="44.0147167" lon="12.1203233"><ele>125.0</ele><time>2026-03-28T09:53:21.656Z</time></trkpt><trkpt lat="44.0145033" lon="12.1201633"><ele>125.0</ele><time>2026-03-28T09:53:22.657Z</time></trkpt><trkpt lat="44.01429" lon="12.1199983"><ele>125.5</ele><time>2026-03-28T09:53:23.659Z</time></trkpt><trkpt lat="44.014075" lon="12.1198367"><ele>126.0</ele><time>2026-03-28T09:53:24.658Z</time></trkpt><trkpt lat="44.0138583" lon="12.1196733"><ele>126.0</ele><time>2026-03-28T09:53:25.659Z</time></trkpt><trkpt lat="44.013645" lon="12.11951"><ele>126.0</ele><time>2026-03-28T09:53:26.658Z</time></trkpt><trkpt lat="44.0134317" lon="12.1193467"><ele>126.5</ele><time>2026-03-28T09:53:27.658Z</time></trkpt><trkpt lat="44.0132167" lon="12.119185"><ele>127.0</ele><time>2026-03-28T09:53:28.659Z</time></trkpt><trkpt lat="44.0130017" lon="12.1190233"><ele>127.0</ele><time>2026-03-28T09:53:29.659Z</time></trkpt><trkpt lat="44.0127867" lon="12.11886"><ele>127.0</ele><time>2026-03-28T09:53:30.658Z</time></trkpt><trkpt lat="44.01257" lon="12.1186983"><ele>128.0</ele><time>2026-03-28T09:53:31.658Z</time></trkpt><trkpt lat="44.0123567" lon="12.1185367"><ele>129.0</ele><time>2026-03-28T09:53:32.658Z</time></trkpt><trkpt lat="44.0121467" lon="12.11838"><ele>129.5</ele><time>2026-03-28T09:53:33.659Z</time></trkpt><trkpt lat="44.0119467" lon="12.1182267"><ele>130.0</ele><time>2026-03-28T09:53:34.658Z</time></trkpt><trkpt lat="44.0117483" lon="12.118075"><ele>130.66666666666669</ele><time>2026-03-28T09:53:35.659Z</time></trkpt><trkpt lat="44.011555" lon="12.1179267"><ele>131.33333333333334</ele><time>2026-03-28T09:53:36.658Z</time></trkpt><trkpt lat="44.01136" lon="12.1177783"><ele>132.0</ele><time>2026-03-28T09:53:37.66Z</time></trkpt><trkpt lat="44.01117" lon="12.1176317"><ele>132.0</ele><time>2026-03-28T09:53:38.659Z</time></trkpt><trkpt lat="44.010985" lon="12.117485"><ele>132.0</ele><time>2026-03-28T09:53:39.658Z</time></trkpt><trkpt lat="44.0108067" lon="12.1173417"><ele>132.0</ele><time>2026-03-28T09:53:40.659Z</time></trkpt><trkpt lat="44.0106283" lon="12.117205"><ele>132.66666666666666</ele><time>2026-03-28T09:53:41.658Z</time></trkpt><trkpt lat="44.0104533" lon="12.117075"><ele>133.33333333333331</ele><time>2026-03-28T09:53:42.659Z</time></trkpt><trkpt lat="44.01028" lon="12.116965"><ele>134.0</ele><time>2026-03-28T09:53:43.659Z</time></trkpt><trkpt lat="44.0101133" lon="12.1168783"><ele>134.33333333333331</ele><time>2026-03-28T09:53:44.659Z</time></trkpt><trkpt lat="44.0099517" lon="12.1168117"><ele>134.66666666666666</ele><time>2026-03-28T09:53:45.659Z</time></trkpt><trkpt lat="44.0097967" lon="12.11676"><ele>135.0</ele><time>2026-03-28T09:53:46.656Z</time></trkpt><trkpt lat="44.00965" lon="12.11672"><ele>135.0</ele><time>2026-03-28T09:53:47.655Z</time></trkpt><trkpt lat="44.0095033" lon="12.1166917"><ele>135.0</ele><time>2026-03-28T09:53:48.657Z</time></trkpt><trkpt lat="44.0093567" lon="12.1166783"><ele>135.0</ele><time>2026-03-28T09:53:49.656Z</time></trkpt><trkpt lat="44.00921" lon="12.1166783"><ele>135.0</ele><time>2026-03-28T09:53:50.655Z</time></trkpt><trkpt lat="44.0090667" lon="12.1166933"><ele>135.25</ele><time>2026-03-28T09:53:51.656Z</time></trkpt><trkpt lat="44.0089217" lon="12.116725"><ele>135.5</ele><time>2026-03-28T09:53:52.657Z</time></trkpt><trkpt lat="44.0087767" lon="12.1167583"><ele>135.75</ele><time>2026-03-28T09:53:53.658Z</time></trkpt><trkpt lat="44.0086317" lon="12.1168017"><ele>136.0</ele><time>2026-03-28T09:53:54.659Z</time></trkpt><trkpt lat="44.0084867" lon="12.1168517"><ele>136.0</ele><time>2026-03-28T09:53:55.66Z</time></trkpt><trkpt lat="44.008335" lon="12.116905"><ele>136.0</ele><time>2026-03-28T09:53:56.659Z</time></trkpt><trkpt lat="44.0081817" lon="12.1169533"><ele>136.0</ele><time>2026-03-28T09:53:57.659Z</time></trkpt><trkpt lat="44.0080233" lon="12.11701"><ele>136.33333333333334</ele><time>2026-03-28T09:53:58.658Z</time></trkpt><trkpt lat="44.0078683" lon="12.11706"><ele>136.66666666666666</ele><time>2026-03-28T09:53:59.658Z</time></trkpt><trkpt lat="44.0077167" lon="12.1171067"><ele>137.0</ele><time>2026-03-28T09:54:00.659Z</time></trkpt><trkpt lat="44.00756" lon="12.1171483"><ele>138.0</ele><time>2026-03-28T09:54:01.659Z</time></trkpt><trkpt lat="44.0074" lon="12.117185"><ele>139.0</ele><time>2026-03-28T09:54:02.659Z</time></trkpt><trkpt lat="44.007235" lon="12.1172167"><ele>140.0</ele><time>2026-03-28T09:54:03.659Z</time></trkpt><trkpt lat="44.0070683" lon="12.11724"><ele>140.0</ele><time>2026-03-28T09:54:04.659Z</time></trkpt><trkpt lat="44.0068967" lon="12.117255"><ele>140.0</ele><time>2026-03-28T09:54:05.659Z</time></trkpt><trkpt lat="44.0067233" lon="12.1172583"><ele>140.0</ele><time>2026-03-28T09:54:06.658Z</time></trkpt><trkpt lat="44.0065467" lon="12.1172417"><ele>141.0</ele><time>2026-03-28T09:54:07.659Z</time></trkpt><trkpt lat="44.0063683" lon="12.117215"><ele>142.0</ele><time>2026-03-28T09:54:08.659Z</time></trkpt><trkpt lat="44.0061883" lon="12.1171817"><ele>143.0</ele><time>2026-03-28T09:54:09.659Z</time></trkpt><trkpt lat="44.006005" lon="12.1171467"><ele>142.66666666666666</ele><time>2026-03-28T09:54:10.658Z</time></trkpt><trkpt lat="44.00582" lon="12.117105"><ele>142.33333333333334</ele><time>2026-03-28T09:54:11.659Z</time></trkpt><trkpt lat="44.0056383" lon="12.1170583"><ele>142.0</ele><time>2026-03-28T09:54:12.658Z</time></trkpt><trkpt lat="44.0054617" lon="12.1170083"><ele>142.0</ele><time>2026-03-28T09:54:13.66Z</time></trkpt><trkpt lat="44.0052933" lon="12.116935"><ele>142.0</ele><time>2026-03-28T09:54:14.659Z</time></trkpt><trkpt lat="44.0051267" lon="12.11684"><ele>142.0</ele><time>2026-03-28T09:54:15.658Z</time></trkpt><trkpt lat="44.0049683" lon="12.1167183"><ele>142.66666666666669</ele><time>2026-03-28T09:54:16.66Z</time></trkpt><trkpt lat="44.0048117" lon="12.116585"><ele>143.33333333333334</ele><time>2026-03-28T09:54:17.658Z</time></trkpt><trkpt lat="44.0046567" lon="12.116435"><ele>144.0</ele><time>2026-03-28T09:54:18.658Z</time></trkpt><trkpt lat="44.0045033" lon="12.1162833"><ele>144.0</ele><time>2026-03-28T09:54:19.662Z</time></trkpt><trkpt lat="44.004345" lon="12.1161317"><ele>144.0</ele><time>2026-03-28T09:54:20.66Z</time></trkpt><trkpt lat="44.0041917" lon="12.1159767"><ele>144.0</ele><time>2026-03-28T09:54:21.659Z</time></trkpt><trkpt lat="44.0040417" lon="12.11581"><ele>143.33333333333334</ele><time>2026-03-28T09:54:22.658Z</time></trkpt><trkpt lat="44.00391" lon="12.115615"><ele>142.66666666666669</ele><time>2026-03-28T09:54:23.658Z</time></trkpt><trkpt lat="44.0038" lon="12.1153883"><ele>142.0</ele><time>2026-03-28T09:54:24.659Z</time></trkpt><trkpt lat="44.00371" lon="12.11514"><ele>143.0</ele><time>2026-03-28T09:54:25.659Z</time></trkpt><trkpt lat="44.0036383" lon="12.1148767"><ele>144.0</ele><time>2026-03-28T09:54:26.659Z</time></trkpt><trkpt lat="44.0035667" lon="12.114615"><ele>145.0</ele><time>2026-03-28T09:54:27.658Z</time></trkpt><trkpt lat="44.0034783" lon="12.1143667"><ele>145.0</ele><time>2026-03-28T09:54:28.658Z</time></trkpt><trkpt lat="44.0033617" lon="12.114135"><ele>145.0</ele><time>2026-03-28T09:54:29.658Z</time></trkpt><trkpt lat="44.0032233" lon="12.113925"><ele>145.0</ele><time>2026-03-28T09:54:30.659Z</time></trkpt><trkpt lat="44.003075" lon="12.1137283"><ele>144.66666666666669</ele><time>2026-03-28T09:54:31.659Z</time></trkpt><trkpt lat="44.0029183" lon="12.1135333"><ele>144.33333333333334</ele><time>2026-03-28T09:54:32.659Z</time></trkpt><trkpt lat="44.0027583" lon="12.1133483"><ele>144.0</ele><time>2026-03-28T09:54:33.66Z</time></trkpt><trkpt lat="44.0025917" lon="12.113185"><ele>144.66666666666666</ele><time>2026-03-28T09:54:34.66Z</time></trkpt><trkpt lat="44.0024167" lon="12.11304"><ele>145.33333333333331</ele><time>2026-03-28T09:54:35.659Z</time></trkpt><trkpt lat="44.0022383" lon="12.1129083"><ele>146.0</ele><time>2026-03-28T09:54:36.66Z</time></trkpt><trkpt lat="44.0020633" lon="12.1127867"><ele>146.0</ele><time>2026-03-28T09:54:37.659Z</time></trkpt><trkpt lat="44.0018933" lon="12.1126867"><ele>146.0</ele><time>2026-03-28T09:54:38.658Z</time></trkpt><trkpt lat="44.00173" lon="12.11261"><ele>146.0</ele><time>2026-03-28T09:54:39.658Z</time></trkpt><trkpt lat="44.00157" lon="12.1125583"><ele>146.0</ele><time>2026-03-28T09:54:40.659Z</time></trkpt><trkpt lat="44.0014167" lon="12.112525"><ele>146.0</ele><time>2026-03-28T09:54:41.658Z</time></trkpt><trkpt lat="44.0012733" lon="12.1125283"><ele>146.0</ele><time>2026-03-28T09:54:42.659Z</time></trkpt><trkpt lat="44.0011367" lon="12.1125717"><ele>146.0</ele><time>2026-03-28T09:54:43.658Z</time></trkpt><trkpt lat="44.00101" lon="12.112645"><ele>146.0</ele><time>2026-03-28T09:54:44.658Z</time></trkpt><trkpt lat="44.0008833" lon="12.112735"><ele>146.0</ele><time>2026-03-28T09:54:45.658Z</time></trkpt><trkpt lat="44.0007533" lon="12.1128267"><ele>146.0</ele><time>2026-03-28T09:54:46.658Z</time></trkpt><trkpt lat="44.0006267" lon="12.1129183"><ele>146.0</ele><time>2026-03-28T09:54:47.659Z</time></trkpt><trkpt lat="44.0005067" lon="12.1130067"><ele>146.75</ele><time>2026-03-28T09:54:48.66Z</time></trkpt><trkpt lat="44.0003917" lon="12.11307"><ele>147.5</ele><time>2026-03-28T09:54:49.658Z</time></trkpt><trkpt lat="44.0002717" lon="12.113095"><ele>148.25</ele><time>2026-03-28T09:54:50.659Z</time></trkpt><trkpt lat="44.0001483" lon="12.1130833"><ele>149.0</ele><time>2026-03-28T09:54:51.659Z</time></trkpt><trkpt lat="44.0000267" lon="12.1130217"><ele>149.0</ele><time>2026-03-28T09:54:52.659Z</time></trkpt><trkpt lat="43.9999067" lon="12.1129183"><ele>149.0</ele><time>2026-03-28T09:54:53.658Z</time></trkpt><trkpt lat="43.9997883" lon="12.1127867"><ele>149.0</ele><time>2026-03-28T09:54:54.659Z</time></trkpt><trkpt lat="43.99966" lon="12.1126483"><ele>149.0</ele><time>2026-03-28T09:54:55.657Z</time></trkpt><trkpt lat="43.99953" lon="12.1125017"><ele>149.0</ele><time>2026-03-28T09:54:56.659Z</time></trkpt><trkpt lat="43.999395" lon="12.1123433"><ele>149.0</ele><time>2026-03-28T09:54:57.658Z</time></trkpt><trkpt lat="43.9992583" lon="12.1121867"><ele>149.66666666666666</ele><time>2026-03-28T09:54:58.659Z</time></trkpt><trkpt lat="43.9991167" lon="12.1120333"><ele>150.33333333333334</ele><time>2026-03-28T09:54:59.659Z</time></trkpt><trkpt lat="43.998975" lon="12.1118783"><ele>151.0</ele><time>2026-03-28T09:55:00.659Z</time></trkpt><trkpt lat="43.998835" lon="12.1117183"><ele>151.0</ele><time>2026-03-28T09:55:01.66Z</time></trkpt><trkpt lat="43.998695" lon="12.1115567"><ele>151.0</ele><time>2026-03-28T09:55:02.659Z</time></trkpt><trkpt lat="43.99856" lon="12.1114"><ele>151.0</ele><time>2026-03-28T09:55:03.66Z</time></trkpt><trkpt lat="43.9984317" lon="12.1112533"><ele>151.5</ele><time>2026-03-28T09:55:04.658Z</time></trkpt><trkpt lat="43.9983133" lon="12.111115"><ele>152.0</ele><time>2026-03-28T09:55:05.658Z</time></trkpt><trkpt lat="43.9981983" lon="12.110985"><ele>152.5</ele><time>2026-03-28T09:55:06.658Z</time></trkpt><trkpt lat="43.99809" lon="12.11086"><ele>153.0</ele><time>2026-03-28T09:55:07.659Z</time></trkpt><trkpt lat="43.99798" lon="12.1107417"><ele>153.0</ele><time>2026-03-28T09:55:08.659Z</time></trkpt><trkpt lat="43.997875" lon="12.1106217"><ele>153.0</ele><time>2026-03-28T09:55:09.66Z</time></trkpt><trkpt lat="43.9977733" lon="12.1105"><ele>153.0</ele><time>2026-03-28T09:55:10.658Z</time></trkpt><trkpt lat="43.997665" lon="12.1103783"><ele>153.0</ele><time>2026-03-28T09:55:11.66Z</time></trkpt><trkpt lat="43.9975533" lon="12.1102567"><ele>153.5</ele><time>2026-03-28T09:55:12.659Z</time></trkpt><trkpt lat="43.9974383" lon="12.110135"><ele>154.0</ele><time>2026-03-28T09:55:13.659Z</time></trkpt><trkpt lat="43.9973267" lon="12.1100067"><ele>154.5</ele><time>2026-03-28T09:55:14.659Z</time></trkpt><trkpt lat="43.9972117" lon="12.1098783"><ele>155.0</ele><time>2026-03-28T09:55:15.659Z</time></trkpt><trkpt lat="43.9970917" lon="12.1097483"><ele>155.0</ele><time>2026-03-28T09:55:16.659Z</time></trkpt><trkpt lat="43.996975" lon="12.109615"><ele>155.0</ele><time>2026-03-28T09:55:17.659Z</time></trkpt><trkpt lat="43.9968583" lon="12.1094817"><ele>155.0</ele><time>2026-03-28T09:55:18.66Z</time></trkpt><trkpt lat="43.9967467" lon="12.1093483"><ele>155.0</ele><time>2026-03-28T09:55:19.659Z</time></trkpt><trkpt lat="43.9966383" lon="12.1092167"><ele>155.75</ele><time>2026-03-28T09:55:20.658Z</time></trkpt><trkpt lat="43.99653" lon="12.10909"><ele>156.5</ele><time>2026-03-28T09:55:21.658Z</time></trkpt><trkpt lat="43.9964233" lon="12.108965"><ele>157.25</ele><time>2026-03-28T09:55:22.658Z</time></trkpt><trkpt lat="43.99631" lon="12.1088467"><ele>158.0</ele><time>2026-03-28T09:55:23.657Z</time></trkpt><trkpt lat="43.9962" lon="12.108735"><ele>158.0</ele><time>2026-03-28T09:55:24.656Z</time></trkpt><trkpt lat="43.9960833" lon="12.1086267"><ele>158.0</ele><time>2026-03-28T09:55:25.658Z</time></trkpt><trkpt lat="43.995965" lon="12.1085267"><ele>158.0</ele><time>2026-03-28T09:55:26.655Z</time></trkpt><trkpt lat="43.99584" lon="12.108435"><ele>158.0</ele><time>2026-03-28T09:55:27.659Z</time></trkpt><trkpt lat="43.995715" lon="12.1083467"><ele>159.25</ele><time>2026-03-28T09:55:28.66Z</time></trkpt><trkpt lat="43.9955883" lon="12.10826"><ele>160.5</ele><time>2026-03-28T09:55:29.658Z</time></trkpt><trkpt lat="43.99546" lon="12.108165"><ele>161.75</ele><time>2026-03-28T09:55:30.659Z</time></trkpt><trkpt lat="43.9953383" lon="12.10806"><ele>163.0</ele><time>2026-03-28T09:55:31.656Z</time></trkpt><trkpt lat="43.99522" lon="12.1079467"><ele>163.0</ele><time>2026-03-28T09:55:32.656Z</time></trkpt><trkpt lat="43.9951017" lon="12.107835"><ele>163.0</ele><time>2026-03-28T09:55:33.655Z</time></trkpt><trkpt lat="43.9949867" lon="12.1077283"><ele>163.0</ele><time>2026-03-28T09:55:34.656Z</time></trkpt><trkpt lat="43.99488" lon="12.1076417"><ele>163.0</ele><time>2026-03-28T09:55:35.656Z</time></trkpt><trkpt lat="43.9947633" lon="12.1075867"><ele>164.0</ele><time>2026-03-28T09:55:36.66Z</time></trkpt><trkpt lat="43.9946333" lon="12.107575"><ele>165.0</ele><time>2026-03-28T09:55:37.66Z</time></trkpt><trkpt lat="43.9945" lon="12.1076067"><ele>166.0</ele><time>2026-03-28T09:55:38.658Z</time></trkpt><trkpt lat="43.9943683" lon="12.10766"><ele>167.0</ele><time>2026-03-28T09:55:39.658Z</time></trkpt><trkpt lat="43.994255" lon="12.1077167"><ele>169.66666666666666</ele><time>2026-03-28T09:55:40.659Z</time></trkpt><trkpt lat="43.99415" lon="12.1077667"><ele>172.33333333333331</ele><time>2026-03-28T09:55:41.658Z</time></trkpt><trkpt lat="43.9940583" lon="12.1078"><ele>175.0</ele><time>2026-03-28T09:55:42.659Z</time></trkpt><trkpt lat="43.9939767" lon="12.1078317"><ele>177.66666666666666</ele><time>2026-03-28T09:55:43.659Z</time></trkpt><trkpt lat="43.9939" lon="12.1078567"><ele>180.33333333333334</ele><time>2026-03-28T09:55:44.658Z</time></trkpt><trkpt lat="43.9938283" lon="12.107875"><ele>183.0</ele><time>2026-03-28T09:55:45.659Z</time></trkpt><trkpt lat="43.9937633" lon="12.10787"><ele>183.0</ele><time>2026-03-28T09:55:46.659Z</time></trkpt><trkpt lat="43.9936633" lon="12.1078133"><ele>183.0</ele><time>2026-03-28T09:55:48.658Z</time></trkpt><trkpt lat="43.9937383" lon="12.10762"><ele>183.0</ele><time>2026-03-28T09:55:50.658Z</time></trkpt><trkpt lat="43.9938333" lon="12.1074983"><ele>183.0</ele><time>2026-03-28T09:55:51.657Z</time></trkpt><trkpt lat="43.993925" lon="12.1073683"><ele>185.25</ele><time>2026-03-28T09:55:52.656Z</time></trkpt><trkpt lat="43.994015" lon="12.107235"><ele>187.5</ele><time>2026-03-28T09:55:53.659Z</time></trkpt><trkpt lat="43.9941" lon="12.1071117"><ele>189.75</ele><time>2026-03-28T09:55:54.658Z</time></trkpt><trkpt lat="43.9941983" lon="12.1069667"><ele>192.0</ele><time>2026-03-28T09:55:55.659Z</time></trkpt><trkpt lat="43.9942933" lon="12.1068283"><ele>185.75</ele><time>2026-03-28T09:55:56.659Z</time></trkpt><trkpt lat="43.9943883" lon="12.1066933"><ele>179.5</ele><time>2026-03-28T09:55:57.659Z</time></trkpt><trkpt lat="43.9944717" lon="12.1065833"><ele>173.25</ele><time>2026-03-28T09:55:58.658Z</time></trkpt><trkpt lat="43.9945583" lon="12.1064933"><ele>167.0</ele><time>2026-03-28T09:55:59.658Z</time></trkpt><trkpt lat="43.99463" lon="12.1063983"><ele>166.42857142857142</ele><time>2026-03-28T09:56:00.658Z</time></trkpt><trkpt lat="43.9946817" lon="12.1063033"><ele>165.85714285714286</ele><time>2026-03-28T09:56:01.656Z</time></trkpt><trkpt lat="43.994705" lon="12.1062067"><ele>165.28571428571428</ele><time>2026-03-28T09:56:02.655Z</time></trkpt><trkpt lat="43.9946967" lon="12.1061117"><ele>164.71428571428572</ele><time>2026-03-28T09:56:03.656Z</time></trkpt><trkpt lat="43.99465" lon="12.1060333"><ele>164.14285714285714</ele><time>2026-03-28T09:56:04.656Z</time></trkpt><trkpt lat="43.9945933" lon="12.10598"><ele>163.57142857142858</ele><time>2026-03-28T09:56:05.655Z</time></trkpt><trkpt lat="43.99453" lon="12.1059483"><ele>163.0</ele><time>2026-03-28T09:56:06.656Z</time></trkpt><trkpt lat="43.994465" lon="12.1059367"><ele>163.0</ele><time>2026-03-28T09:56:07.656Z</time></trkpt><trkpt lat="43.9943933" lon="12.1059817"><ele>163.0</ele><time>2026-03-28T09:56:08.655Z</time></trkpt><trkpt lat="43.9943333" lon="12.1060317"><ele>163.0</ele><time>2026-03-28T09:56:09.658Z</time></trkpt><trkpt lat="43.9942717" lon="12.106185"><ele>163.0</ele><time>2026-03-28T09:56:10.659Z</time></trkpt><trkpt lat="43.9942017" lon="12.1062983"><ele>163.0</ele><time>2026-03-28T09:56:11.656Z</time></trkpt><trkpt lat="43.994105" lon="12.1064433"><ele>166.0</ele><time>2026-03-28T09:56:12.657Z</time></trkpt><trkpt lat="43.9940183" lon="12.1065667"><ele>169.0</ele><time>2026-03-28T09:56:13.656Z</time></trkpt><trkpt lat="43.9939417" lon="12.1067017"><ele>172.0</ele><time>2026-03-28T09:56:14.659Z</time></trkpt><trkpt lat="43.9938783" lon="12.106825"><ele>175.0</ele><time>2026-03-28T09:56:15.657Z</time></trkpt><trkpt lat="43.9938233" lon="12.1069317"><ele>177.83333333333334</ele><time>2026-03-28T09:56:16.656Z</time></trkpt><trkpt lat="43.9937633" lon="12.1070183"><ele>180.66666666666669</ele><time>2026-03-28T09:56:17.659Z</time></trkpt><trkpt lat="43.9937067" lon="12.1070817"><ele>183.5</ele><time>2026-03-28T09:56:18.659Z</time></trkpt><trkpt lat="43.993635" lon="12.1070917"><ele>186.33333333333334</ele><time>2026-03-28T09:56:19.659Z</time></trkpt><trkpt lat="43.9935467" lon="12.1070767"><ele>189.16666666666666</ele><time>2026-03-28T09:56:20.659Z</time></trkpt><trkpt lat="43.99345" lon="12.107045"><ele>192.0</ele><time>2026-03-28T09:56:21.659Z</time></trkpt><trkpt lat="43.9933533" lon="12.1069783"><ele>192.25</ele><time>2026-03-28T09:56:22.658Z</time></trkpt><trkpt lat="43.9932667" lon="12.1068783"><ele>192.5</ele><time>2026-03-28T09:56:23.659Z</time></trkpt><trkpt lat="43.9931917" lon="12.1067517"><ele>192.75</ele><time>2026-03-28T09:56:24.659Z</time></trkpt><trkpt lat="43.9931317" lon="12.1066033"><ele>193.0</ele><time>2026-03-28T09:56:25.66Z</time></trkpt><trkpt lat="43.9931" lon="12.1064317"><ele>193.0</ele><time>2026-03-28T09:56:26.659Z</time></trkpt><trkpt lat="43.99308" lon="12.1062517"><ele>193.0</ele><time>2026-03-28T09:56:27.66Z</time></trkpt><trkpt lat="43.9930517" lon="12.106065"><ele>193.0</ele><time>2026-03-28T09:56:28.658Z</time></trkpt><trkpt lat="43.9930067" lon="12.105885"><ele>193.0</ele><time>2026-03-28T09:56:29.659Z</time></trkpt><trkpt lat="43.9929433" lon="12.1057117"><ele>190.33333333333331</ele><time>2026-03-28T09:56:30.658Z</time></trkpt><trkpt lat="43.9928717" lon="12.1055317"><ele>187.66666666666666</ele><time>2026-03-28T09:56:31.658Z</time></trkpt><trkpt lat="43.9927967" lon="12.1053433"><ele>185.0</ele><time>2026-03-28T09:56:32.655Z</time></trkpt><trkpt lat="43.99272" lon="12.10514"><ele>185.0</ele><time>2026-03-28T09:56:33.656Z</time></trkpt><trkpt lat="43.9926617" lon="12.1049183"><ele>185.0</ele><time>2026-03-28T09:56:34.659Z</time></trkpt><trkpt lat="43.992615" lon="12.1046983"><ele>185.0</ele><time>2026-03-28T09:56:35.657Z</time></trkpt><trkpt lat="43.9925633" lon="12.104485"><ele>193.66666666666666</ele><time>2026-03-28T09:56:36.656Z</time></trkpt><trkpt lat="43.99249" lon="12.1042833"><ele>202.33333333333331</ele><time>2026-03-28T09:56:37.657Z</time></trkpt><trkpt lat="43.9923983" lon="12.1040917"><ele>211.0</ele><time>2026-03-28T09:56:38.655Z</time></trkpt><trkpt lat="43.9922933" lon="12.1039133"><ele>211.0</ele><time>2026-03-28T09:56:39.655Z</time></trkpt><trkpt lat="43.9921767" lon="12.103745"><ele>211.0</ele><time>2026-03-28T09:56:40.657Z</time></trkpt><trkpt lat="43.9920567" lon="12.10358"><ele>211.0</ele><time>2026-03-28T09:56:41.657Z</time></trkpt><trkpt lat="43.9919367" lon="12.103415"><ele>211.0</ele><time>2026-03-28T09:56:42.657Z</time></trkpt><trkpt lat="43.9918083" lon="12.103255"><ele>211.0</ele><time>2026-03-28T09:56:43.659Z</time></trkpt><trkpt lat="43.9916733" lon="12.103125"><ele>211.0</ele><time>2026-03-28T09:56:44.657Z</time></trkpt><trkpt lat="43.9915217" lon="12.1030267"><ele>211.66666666666666</ele><time>2026-03-28T09:56:45.659Z</time></trkpt><trkpt lat="43.9913667" lon="12.1029433"><ele>212.33333333333331</ele><time>2026-03-28T09:56:46.657Z</time></trkpt><trkpt lat="43.991225" lon="12.102835"><ele>213.0</ele><time>2026-03-28T09:56:47.66Z</time></trkpt><trkpt lat="43.9910983" lon="12.102685"><ele>213.0</ele><time>2026-03-28T09:56:48.659Z</time></trkpt><trkpt lat="43.9909817" lon="12.1025217"><ele>213.0</ele><time>2026-03-28T09:56:49.658Z</time></trkpt><trkpt lat="43.9908617" lon="12.1023683"><ele>213.0</ele><time>2026-03-28T09:56:50.659Z</time></trkpt><trkpt lat="43.9907367" lon="12.1022467"><ele>212.5</ele><time>2026-03-28T09:56:51.659Z</time></trkpt><trkpt lat="43.99061" lon="12.1021633"><ele>212.0</ele><time>2026-03-28T09:56:52.658Z</time></trkpt><trkpt lat="43.990485" lon="12.102125"><ele>211.5</ele><time>2026-03-28T09:56:53.66Z</time></trkpt><trkpt lat="43.9903683" lon="12.102105"><ele>211.0</ele><time>2026-03-28T09:56:54.658Z</time></trkpt><trkpt lat="43.9902633" lon="12.1020667"><ele>211.0</ele><time>2026-03-28T09:56:55.656Z</time></trkpt><trkpt lat="43.99017" lon="12.1019917"><ele>211.0</ele><time>2026-03-28T09:56:56.66Z</time></trkpt><trkpt lat="43.99012" lon="12.1018633"><ele>211.0</ele><time>2026-03-28T09:56:57.657Z</time></trkpt><trkpt lat="43.990095" lon="12.1016917"><ele>211.0</ele><time>2026-03-28T09:56:58.656Z</time></trkpt><trkpt lat="43.9900833" lon="12.1014883"><ele>216.33333333333331</ele><time>2026-03-28T09:56:59.656Z</time></trkpt><trkpt lat="43.9900683" lon="12.1012767"><ele>221.66666666666669</ele><time>2026-03-28T09:57:00.658Z</time></trkpt><trkpt lat="43.99004" lon="12.1010617"><ele>227.0</ele><time>2026-03-28T09:57:01.658Z</time></trkpt><trkpt lat="43.9900067" lon="12.100845"><ele>221.5</ele><time>2026-03-28T09:57:02.658Z</time></trkpt><trkpt lat="43.9899817" lon="12.1006467"><ele>216.0</ele><time>2026-03-28T09:57:03.656Z</time></trkpt><trkpt lat="43.989955" lon="12.1004767"><ele>210.5</ele><time>2026-03-28T09:57:04.656Z</time></trkpt><trkpt lat="43.9899183" lon="12.100335"><ele>205.0</ele><time>2026-03-28T09:57:05.657Z</time></trkpt><trkpt lat="43.9898667" lon="12.100215"><ele>205.0</ele><time>2026-03-28T09:57:06.657Z</time></trkpt><trkpt lat="43.9897967" lon="12.1001217"><ele>205.0</ele><time>2026-03-28T09:57:07.657Z</time></trkpt><trkpt lat="43.9896933" lon="12.10007"><ele>205.0</ele><time>2026-03-28T09:57:08.656Z</time></trkpt><trkpt lat="43.9895683" lon="12.100055"><ele>205.0</ele><time>2026-03-28T09:57:09.659Z</time></trkpt><trkpt lat="43.98944" lon="12.1000383"><ele>205.0</ele><time>2026-03-28T09:57:10.657Z</time></trkpt><trkpt lat="43.989315" lon="12.1"><ele>205.0</ele><time>2026-03-28T09:57:11.657Z</time></trkpt><trkpt lat="43.9891867" lon="12.09998"><ele>205.0</ele><time>2026-03-28T09:57:12.656Z</time></trkpt><trkpt lat="43.9890483" lon="12.0999933"><ele>205.0</ele><time>2026-03-28T09:57:13.656Z</time></trkpt><trkpt lat="43.9889067" lon="12.1000433"><ele>206.75</ele><time>2026-03-28T09:57:14.658Z</time></trkpt><trkpt lat="43.9887567" lon="12.1001183"><ele>208.5</ele><time>2026-03-28T09:57:15.657Z</time></trkpt><trkpt lat="43.9886133" lon="12.1001833"><ele>210.25</ele><time>2026-03-28T09:57:16.656Z</time></trkpt><trkpt lat="43.98848" lon="12.1002183"><ele>212.0</ele><time>2026-03-28T09:57:17.656Z</time></trkpt><trkpt lat="43.9883567" lon="12.10021"><ele>211.5</ele><time>2026-03-28T09:57:18.658Z</time></trkpt><trkpt lat="43.98824" lon="12.100155"><ele>211.0</ele><time>2026-03-28T09:57:19.661Z</time></trkpt><trkpt lat="43.9881283" lon="12.10006"><ele>210.5</ele><time>2026-03-28T09:57:20.66Z</time></trkpt><trkpt lat="43.9880233" lon="12.0999517"><ele>210.0</ele><time>2026-03-28T09:57:21.658Z</time></trkpt><trkpt lat="43.9879133" lon="12.0998667"><ele>210.25</ele><time>2026-03-28T09:57:22.659Z</time></trkpt><trkpt lat="43.9877917" lon="12.0998283"><ele>210.5</ele><time>2026-03-28T09:57:23.66Z</time></trkpt><trkpt lat="43.9876533" lon="12.0998317"><ele>210.75</ele><time>2026-03-28T09:57:24.659Z</time></trkpt><trkpt lat="43.9875083" lon="12.099885"><ele>211.0</ele><time>2026-03-28T09:57:25.66Z</time></trkpt><trkpt lat="43.9873667" lon="12.0999633"><ele>211.0</ele><time>2026-03-28T09:57:26.658Z</time></trkpt><trkpt lat="43.9872267" lon="12.1000167"><ele>211.0</ele><time>2026-03-28T09:57:27.658Z</time></trkpt><trkpt lat="43.9870733" lon="12.10001"><ele>211.0</ele><time>2026-03-28T09:57:28.658Z</time></trkpt><trkpt lat="43.9869167" lon="12.0999617"><ele>203.0</ele><time>2026-03-28T09:57:29.659Z</time></trkpt><trkpt lat="43.9867583" lon="12.0998833"><ele>195.0</ele><time>2026-03-28T09:57:30.657Z</time></trkpt><trkpt lat="43.9866067" lon="12.0997633"><ele>187.0</ele><time>2026-03-28T09:57:31.656Z</time></trkpt><trkpt lat="43.9864683" lon="12.09962"><ele>187.0</ele><time>2026-03-28T09:57:32.655Z</time></trkpt><trkpt lat="43.9863283" lon="12.0994567"><ele>187.0</ele><time>2026-03-28T09:57:33.658Z</time></trkpt><trkpt lat="43.9861883" lon="12.0992733"><ele>187.0</ele><time>2026-03-28T09:57:34.658Z</time></trkpt><trkpt lat="43.98605" lon="12.0990967"><ele>187.33333333333334</ele><time>2026-03-28T09:57:35.659Z</time></trkpt><trkpt lat="43.9859117" lon="12.098935"><ele>187.66666666666666</ele><time>2026-03-28T09:57:36.658Z</time></trkpt><trkpt lat="43.985775" lon="12.0987633"><ele>188.0</ele><time>2026-03-28T09:57:37.655Z</time></trkpt><trkpt lat="43.9856383" lon="12.0985883"><ele>188.33333333333331</ele><time>2026-03-28T09:57:38.655Z</time></trkpt><trkpt lat="43.9854983" lon="12.0984167"><ele>188.66666666666666</ele><time>2026-03-28T09:57:39.657Z</time></trkpt><trkpt lat="43.9853583" lon="12.0982467"><ele>189.0</ele><time>2026-03-28T09:57:40.655Z</time></trkpt><trkpt lat="43.985225" lon="12.09808"><ele>190.0</ele><time>2026-03-28T09:57:41.658Z</time></trkpt><trkpt lat="43.9850883" lon="12.09792"><ele>191.0</ele><time>2026-03-28T09:57:42.657Z</time></trkpt><trkpt lat="43.9849533" lon="12.09776"><ele>192.0</ele><time>2026-03-28T09:57:43.656Z</time></trkpt><trkpt lat="43.98482" lon="12.0976"><ele>192.0</ele><time>2026-03-28T09:57:44.656Z</time></trkpt><trkpt lat="43.98469" lon="12.0974417"><ele>192.0</ele><time>2026-03-28T09:57:45.655Z</time></trkpt><trkpt lat="43.9845867" lon="12.0972733"><ele>192.0</ele><time>2026-03-28T09:57:46.657Z</time></trkpt><trkpt lat="43.98451" lon="12.09709"><ele>194.33333333333331</ele><time>2026-03-28T09:57:47.655Z</time></trkpt><trkpt lat="43.9844667" lon="12.0968767"><ele>196.66666666666666</ele><time>2026-03-28T09:57:48.656Z</time></trkpt><trkpt lat="43.9844467" lon="12.09664"><ele>199.0</ele><time>2026-03-28T09:57:49.656Z</time></trkpt><trkpt lat="43.9844333" lon="12.0963883"><ele>201.33333333333331</ele><time>2026-03-28T09:57:50.656Z</time></trkpt><trkpt lat="43.9844133" lon="12.09612"><ele>203.66666666666669</ele><time>2026-03-28T09:57:51.656Z</time></trkpt><trkpt lat="43.9843883" lon="12.095855"><ele>206.0</ele><time>2026-03-28T09:57:52.657Z</time></trkpt><trkpt lat="43.9843617" lon="12.0955967"><ele>211.66666666666669</ele><time>2026-03-28T09:57:53.655Z</time></trkpt><trkpt lat="43.9843267" lon="12.0953433"><ele>217.33333333333331</ele><time>2026-03-28T09:57:54.66Z</time></trkpt><trkpt lat="43.9842917" lon="12.0951033"><ele>223.0</ele><time>2026-03-28T09:57:55.659Z</time></trkpt><trkpt lat="43.984255" lon="12.0948817"><ele>216.0</ele><time>2026-03-28T09:57:56.658Z</time></trkpt><trkpt lat="43.9841983" lon="12.0946833"><ele>209.0</ele><time>2026-03-28T09:57:57.659Z</time></trkpt><trkpt lat="43.9841133" lon="12.0945183"><ele>202.0</ele><time>2026-03-28T09:57:58.659Z</time></trkpt><trkpt lat="43.983995" lon="12.09439"><ele>202.0</ele><time>2026-03-28T09:57:59.66Z</time></trkpt><trkpt lat="43.9838583" lon="12.09428"><ele>202.0</ele><time>2026-03-28T09:58:00.658Z</time></trkpt><trkpt lat="43.9837117" lon="12.0941817"><ele>202.0</ele><time>2026-03-28T09:58:01.657Z</time></trkpt><trkpt lat="43.9835617" lon="12.0940817"><ele>206.66666666666666</ele><time>2026-03-28T09:58:02.659Z</time></trkpt><trkpt lat="43.9834117" lon="12.0939967"><ele>211.33333333333331</ele><time>2026-03-28T09:58:03.656Z</time></trkpt><trkpt lat="43.9832433" lon="12.0939367"><ele>216.0</ele><time>2026-03-28T09:58:04.656Z</time></trkpt><trkpt lat="43.9830733" lon="12.0939133"><ele>216.0</ele><time>2026-03-28T09:58:05.657Z</time></trkpt><trkpt lat="43.9828967" lon="12.093935"><ele>216.0</ele><time>2026-03-28T09:58:06.658Z</time></trkpt><trkpt lat="43.98272" lon="12.0940033"><ele>216.0</ele><time>2026-03-28T09:58:07.657Z</time></trkpt><trkpt lat="43.982545" lon="12.09409"><ele>212.0</ele><time>2026-03-28T09:58:08.658Z</time></trkpt><trkpt lat="43.9823767" lon="12.0942033"><ele>208.0</ele><time>2026-03-28T09:58:09.656Z</time></trkpt><trkpt lat="43.982215" lon="12.09434"><ele>204.0</ele><time>2026-03-28T09:58:10.656Z</time></trkpt><trkpt lat="43.98207" lon="12.0944967"><ele>204.0</ele><time>2026-03-28T09:58:11.657Z</time></trkpt><trkpt lat="43.9819367" lon="12.0946367"><ele>204.0</ele><time>2026-03-28T09:58:12.658Z</time></trkpt><trkpt lat="43.98181" lon="12.0947483"><ele>204.0</ele><time>2026-03-28T09:58:13.656Z</time></trkpt><trkpt lat="43.981695" lon="12.0948267"><ele>204.0</ele><time>2026-03-28T09:58:14.657Z</time></trkpt><trkpt lat="43.9815767" lon="12.0948417"><ele>205.25</ele><time>2026-03-28T09:58:15.656Z</time></trkpt><trkpt lat="43.9814583" lon="12.094815"><ele>206.5</ele><time>2026-03-28T09:58:16.656Z</time></trkpt><trkpt lat="43.98134" lon="12.0947317"><ele>207.75</ele><time>2026-03-28T09:58:17.657Z</time></trkpt><trkpt lat="43.9812083" lon="12.0946233"><ele>209.0</ele><time>2026-03-28T09:58:18.657Z</time></trkpt><trkpt lat="43.9810667" lon="12.0945017"><ele>209.0</ele><time>2026-03-28T09:58:19.657Z</time></trkpt><trkpt lat="43.9809033" lon="12.094385"><ele>209.0</ele><time>2026-03-28T09:58:20.656Z</time></trkpt><trkpt lat="43.980735" lon="12.094265"><ele>209.0</ele><time>2026-03-28T09:58:21.656Z</time></trkpt><trkpt lat="43.9805817" lon="12.0941367"><ele>215.33333333333334</ele><time>2026-03-28T09:58:22.656Z</time></trkpt><trkpt lat="43.9804417" lon="12.093975"><ele>221.66666666666669</ele><time>2026-03-28T09:58:23.66Z</time></trkpt><trkpt lat="43.9803183" lon="12.0937833"><ele>228.0</ele><time>2026-03-28T09:58:24.658Z</time></trkpt><trkpt lat="43.98021" lon="12.0935667"><ele>228.0</ele><time>2026-03-28T09:58:25.659Z</time></trkpt><trkpt lat="43.9800967" lon="12.0933467"><ele>228.0</ele><time>2026-03-28T09:58:26.658Z</time></trkpt><trkpt lat="43.9799617" lon="12.093145"><ele>228.0</ele><time>2026-03-28T09:58:27.656Z</time></trkpt><trkpt lat="43.9798133" lon="12.09295"><ele>225.66666666666669</ele><time>2026-03-28T09:58:28.659Z</time></trkpt><trkpt lat="43.9796617" lon="12.0927517"><ele>223.33333333333334</ele><time>2026-03-28T09:58:29.659Z</time></trkpt><trkpt lat="43.9795067" lon="12.0925633"><ele>221.0</ele><time>2026-03-28T09:58:30.657Z</time></trkpt><trkpt lat="43.9793467" lon="12.0923917"><ele>225.0</ele><time>2026-03-28T09:58:31.659Z</time></trkpt><trkpt lat="43.97918" lon="12.0922367"><ele>229.0</ele><time>2026-03-28T09:58:32.655Z</time></trkpt><trkpt lat="43.9790083" lon="12.0921017"><ele>233.0</ele><time>2026-03-28T09:58:33.657Z</time></trkpt><trkpt lat="43.9788317" lon="12.0919867"><ele>233.0</ele><time>2026-03-28T09:58:34.66Z</time></trkpt><trkpt lat="43.978655" lon="12.0918783"><ele>233.0</ele><time>2026-03-28T09:58:35.66Z</time></trkpt><trkpt lat="43.9784633" lon="12.0917833"><ele>233.0</ele><time>2026-03-28T09:58:36.658Z</time></trkpt><trkpt lat="43.978265" lon="12.0917067"><ele>227.66666666666669</ele><time>2026-03-28T09:58:37.659Z</time></trkpt><trkpt lat="43.9780617" lon="12.0916633"><ele>222.33333333333331</ele><time>2026-03-28T09:58:38.658Z</time></trkpt><trkpt lat="43.977855" lon="12.091645"><ele>217.0</ele><time>2026-03-28T09:58:39.657Z</time></trkpt><trkpt lat="43.9776483" lon="12.0916333"><ele>216.66666666666666</ele><time>2026-03-28T09:58:40.656Z</time></trkpt><trkpt lat="43.9774433" lon="12.0916233"><ele>216.33333333333331</ele><time>2026-03-28T09:58:41.656Z</time></trkpt><trkpt lat="43.9772433" lon="12.0916017"><ele>216.0</ele><time>2026-03-28T09:58:42.656Z</time></trkpt><trkpt lat="43.9770567" lon="12.0915667"><ele>220.33333333333331</ele><time>2026-03-28T09:58:43.656Z</time></trkpt><trkpt lat="43.9768833" lon="12.091495"><ele>224.66666666666666</ele><time>2026-03-28T09:58:44.659Z</time></trkpt><trkpt lat="43.9767133" lon="12.091405"><ele>229.0</ele><time>2026-03-28T09:58:45.658Z</time></trkpt><trkpt lat="43.97657" lon="12.0912567"><ele>229.0</ele><time>2026-03-28T09:58:46.657Z</time></trkpt><trkpt lat="43.9764233" lon="12.0910767"><ele>229.0</ele><time>2026-03-28T09:58:47.657Z</time></trkpt><trkpt lat="43.9762683" lon="12.0908917"><ele>229.0</ele><time>2026-03-28T09:58:48.656Z</time></trkpt><trkpt lat="43.9761183" lon="12.0906933"><ele>226.0</ele><time>2026-03-28T09:58:49.658Z</time></trkpt><trkpt lat="43.9759717" lon="12.0904967"><ele>223.0</ele><time>2026-03-28T09:58:50.656Z</time></trkpt><trkpt lat="43.9758283" lon="12.0903083"><ele>220.0</ele><time>2026-03-28T09:58:51.656Z</time></trkpt><trkpt lat="43.975685" lon="12.0901217"><ele>220.0</ele><time>2026-03-28T09:58:52.657Z</time></trkpt><trkpt lat="43.9755367" lon="12.0899433"><ele>220.0</ele><time>2026-03-28T09:58:53.658Z</time></trkpt><trkpt lat="43.9753883" lon="12.08977"><ele>220.0</ele><time>2026-03-28T09:58:54.658Z</time></trkpt><trkpt lat="43.9752433" lon="12.089605"><ele>225.66666666666666</ele><time>2026-03-28T09:58:55.66Z</time></trkpt><trkpt lat="43.97508" lon="12.0894683"><ele>231.33333333333331</ele><time>2026-03-28T09:58:56.658Z</time></trkpt><trkpt lat="43.97491" lon="12.0893383"><ele>237.0</ele><time>2026-03-28T09:58:57.66Z</time></trkpt><trkpt lat="43.9747383" lon="12.0892067"><ele>251.0</ele><time>2026-03-28T09:58:58.66Z</time></trkpt><trkpt lat="43.9745683" lon="12.0890767"><ele>265.0</ele><time>2026-03-28T09:58:59.659Z</time></trkpt><trkpt lat="43.9743983" lon="12.0889433"><ele>279.0</ele><time>2026-03-28T09:59:00.659Z</time></trkpt><trkpt lat="43.9742333" lon="12.0888067"><ele>270.0</ele><time>2026-03-28T09:59:01.659Z</time></trkpt><trkpt lat="43.9740633" lon="12.0886767"><ele>261.0</ele><time>2026-03-28T09:59:02.658Z</time></trkpt><trkpt lat="43.973895" lon="12.08855"><ele>252.0</ele><time>2026-03-28T09:59:03.659Z</time></trkpt><trkpt lat="43.9737467" lon="12.0884433"><ele>252.0</ele><time>2026-03-28T09:59:04.658Z</time></trkpt><trkpt lat="43.9736217" lon="12.0883517"><ele>252.0</ele><time>2026-03-28T09:59:05.658Z</time></trkpt><trkpt lat="43.9735133" lon="12.088275"><ele>252.0</ele><time>2026-03-28T09:59:06.659Z</time></trkpt><trkpt lat="43.97342" lon="12.0882183"><ele>252.0</ele><time>2026-03-28T09:59:07.66Z</time></trkpt><trkpt lat="43.9733483" lon="12.0881717"><ele>252.0</ele><time>2026-03-28T09:59:08.662Z</time></trkpt><trkpt lat="43.9732883" lon="12.0881383"><ele>254.8</ele><time>2026-03-28T09:59:09.66Z</time></trkpt><trkpt lat="43.9732033" lon="12.08811"><ele>257.6</ele><time>2026-03-28T09:59:11.66Z</time></trkpt><trkpt lat="43.97314" lon="12.0881817"><ele>260.40000000000003</ele><time>2026-03-28T09:59:13.661Z</time></trkpt><trkpt lat="43.9730783" lon="12.0883533"><ele>263.2</ele><time>2026-03-28T09:59:15.658Z</time></trkpt><trkpt lat="43.9730417" lon="12.0884583"><ele>266.0</ele><time>2026-03-28T09:59:16.657Z</time></trkpt><trkpt lat="43.9730033" lon="12.08855"><ele>259.83333333333337</ele><time>2026-03-28T09:59:17.655Z</time></trkpt><trkpt lat="43.9729617" lon="12.0886167"><ele>253.66666666666669</ele><time>2026-03-28T09:59:18.657Z</time></trkpt><trkpt lat="43.97286" lon="12.0887033"><ele>247.5</ele><time>2026-03-28T09:59:20.656Z</time></trkpt><trkpt lat="43.9728" lon="12.0887433"><ele>241.33333333333331</ele><time>2026-03-28T09:59:21.655Z</time></trkpt><trkpt lat="43.9727367" lon="12.0888133"><ele>235.16666666666666</ele><time>2026-03-28T09:59:22.656Z</time></trkpt><trkpt lat="43.97267" lon="12.088895"><ele>229.0</ele><time>2026-03-28T09:59:23.659Z</time></trkpt><trkpt lat="43.9726" lon="12.0889933"><ele>229.0</ele><time>2026-03-28T09:59:24.659Z</time></trkpt><trkpt lat="43.9725267" lon="12.089105"><ele>228.99999999999997</ele><time>2026-03-28T09:59:25.656Z</time></trkpt><trkpt lat="43.97246" lon="12.0892267"><ele>228.99999999999997</ele><time>2026-03-28T09:59:26.659Z</time></trkpt><trkpt lat="43.9724033" lon="12.0893467"><ele>229.0</ele><time>2026-03-28T09:59:27.656Z</time></trkpt><trkpt lat="43.9723567" lon="12.0894483"><ele>229.0</ele><time>2026-03-28T09:59:28.659Z</time></trkpt><trkpt lat="43.9723217" lon="12.0895383"><ele>228.49999999999997</ele><time>2026-03-28T09:59:29.655Z</time></trkpt><trkpt lat="43.9723067" lon="12.0896267"><ele>228.0</ele><time>2026-03-28T09:59:30.657Z</time></trkpt><trkpt lat="43.9723217" lon="12.0897217"><ele>227.5</ele><time>2026-03-28T09:59:31.658Z</time></trkpt><trkpt lat="43.9723533" lon="12.08983"><ele>227.0</ele><time>2026-03-28T09:59:32.657Z</time></trkpt><trkpt lat="43.9723883" lon="12.0899517"><ele>226.49999999999997</ele><time>2026-03-28T09:59:33.658Z</time></trkpt><trkpt lat="43.9723983" lon="12.0900767"><ele>226.0</ele><time>2026-03-28T09:59:34.659Z</time></trkpt><trkpt lat="43.9723983" lon="12.0901917"><ele>228.16666666666666</ele><time>2026-03-28T09:59:35.659Z</time></trkpt><trkpt lat="43.9723917" lon="12.090285"><ele>230.33333333333331</ele><time>2026-03-28T09:59:36.658Z</time></trkpt><trkpt lat="43.9723683" lon="12.090385"><ele>232.5</ele><time>2026-03-28T09:59:37.657Z</time></trkpt><trkpt lat="43.972315" lon="12.0904583"><ele>234.66666666666669</ele><time>2026-03-28T09:59:38.659Z</time></trkpt><trkpt lat="43.97224" lon="12.0905217"><ele>236.83333333333334</ele><time>2026-03-28T09:59:39.657Z</time></trkpt><trkpt lat="43.9721683" lon="12.090585"><ele>239.0</ele><time>2026-03-28T09:59:40.659Z</time></trkpt><trkpt lat="43.97209" lon="12.090655"><ele>239.0</ele><time>2026-03-28T09:59:41.658Z</time></trkpt><trkpt lat="43.9720067" lon="12.0907167"><ele>238.99999999999997</ele><time>2026-03-28T09:59:42.659Z</time></trkpt><trkpt lat="43.97193" lon="12.0907833"><ele>238.99999999999997</ele><time>2026-03-28T09:59:43.659Z</time></trkpt><trkpt lat="43.97185" lon="12.09086"><ele>239.0</ele><time>2026-03-28T09:59:44.658Z</time></trkpt><trkpt lat="43.9717667" lon="12.0909467"><ele>239.0</ele><time>2026-03-28T09:59:45.659Z</time></trkpt><trkpt lat="43.9716783" lon="12.091025"><ele>241.79999999999998</ele><time>2026-03-28T09:59:46.658Z</time></trkpt><trkpt lat="43.9715967" lon="12.0910733"><ele>244.59999999999997</ele><time>2026-03-28T09:59:47.659Z</time></trkpt><trkpt lat="43.971525" lon="12.0911133"><ele>247.4</ele><time>2026-03-28T09:59:48.658Z</time></trkpt><trkpt lat="43.9714667" lon="12.0911617"><ele>250.2</ele><time>2026-03-28T09:59:49.659Z</time></trkpt><trkpt lat="43.971395" lon="12.0912733"><ele>253.0</ele><time>2026-03-28T09:59:51.658Z</time></trkpt><trkpt lat="43.9715183" lon="12.09132"><ele>253.0</ele><time>2026-03-28T09:59:54.657Z</time></trkpt><trkpt lat="43.9715933" lon="12.09131"><ele>253.0</ele><time>2026-03-28T09:59:55.657Z</time></trkpt><trkpt lat="43.97169" lon="12.091265"><ele>253.0</ele><time>2026-03-28T09:59:56.655Z</time></trkpt><trkpt lat="43.9717933" lon="12.0912367"><ele>253.0</ele><time>2026-03-28T09:59:57.656Z</time></trkpt><trkpt lat="43.97192" lon="12.0911933"><ele>253.0</ele><time>2026-03-28T09:59:58.657Z</time></trkpt><trkpt lat="43.9720283" lon="12.0911917"><ele>254.60000000000002</ele><time>2026-03-28T09:59:59.655Z</time></trkpt><trkpt lat="43.97212" lon="12.0912117"><ele>256.20000000000005</ele><time>2026-03-28T10:00:00.657Z</time></trkpt><trkpt lat="43.9722183" lon="12.0912317"><ele>257.8</ele><time>2026-03-28T10:00:01.66Z</time></trkpt><trkpt lat="43.9723267" lon="12.091265"><ele>259.40000000000003</ele><time>2026-03-28T10:00:02.655Z</time></trkpt><trkpt lat="43.97245" lon="12.0912733"><ele>261.0</ele><time>2026-03-28T10:00:03.655Z</time></trkpt><trkpt lat="43.9725767" lon="12.0912767"><ele>261.0</ele><time>2026-03-28T10:00:04.66Z</time></trkpt><trkpt lat="43.9726983" lon="12.0912817"><ele>261.0</ele><time>2026-03-28T10:00:05.656Z</time></trkpt><trkpt lat="43.9728" lon="12.0912933"><ele>261.0</ele><time>2026-03-28T10:00:06.657Z</time></trkpt><trkpt lat="43.9728717" lon="12.09131"><ele>261.0</ele><time>2026-03-28T10:00:07.658Z</time></trkpt><trkpt lat="43.9729483" lon="12.091375"><ele>261.0</ele><time>2026-03-28T10:00:09.659Z</time></trkpt><trkpt lat="43.9729217" lon="12.0914583"><ele>261.0</ele><time>2026-03-28T10:00:12.662Z</time></trkpt><trkpt lat="43.9728267" lon="12.0914567"><ele>261.0</ele><time>2026-03-28T10:00:13.658Z</time></trkpt><trkpt lat="43.9727533" lon="12.091475"><ele>261.0</ele><time>2026-03-28T10:00:14.655Z</time></trkpt><trkpt lat="43.9726683" lon="12.0915033"><ele>261.0</ele><time>2026-03-28T10:00:15.657Z</time></trkpt><trkpt lat="43.9725333" lon="12.091555"><ele>261.0</ele><time>2026-03-28T10:00:16.656Z</time></trkpt><trkpt lat="43.9723667" lon="12.0916133"><ele>267.8</ele><time>2026-03-28T10:00:17.656Z</time></trkpt><trkpt lat="43.97224" lon="12.09163"><ele>274.6</ele><time>2026-03-28T10:00:18.657Z</time></trkpt><trkpt lat="43.9721067" lon="12.0916467"><ele>281.4</ele><time>2026-03-28T10:00:19.66Z</time></trkpt><trkpt lat="43.9720183" lon="12.0916533"><ele>288.2</ele><time>2026-03-28T10:00:20.659Z</time></trkpt><trkpt lat="43.971945" lon="12.091675"><ele>295.0</ele><time>2026-03-28T10:00:21.658Z</time></trkpt><trkpt lat="43.9719133" lon="12.0918217"><ele>295.0</ele><time>2026-03-28T10:00:23.659Z</time></trkpt><trkpt lat="43.9719583" lon="12.0918833"><ele>295.0</ele><time>2026-03-28T10:00:24.658Z</time></trkpt><trkpt lat="43.9720917" lon="12.0919067"><ele>295.0</ele><time>2026-03-28T10:00:26.658Z</time></trkpt><trkpt lat="43.97217" lon="12.0918883"><ele>295.0</ele><time>2026-03-28T10:00:27.657Z</time></trkpt><trkpt lat="43.972235" lon="12.09189"><ele>295.0</ele><time>2026-03-28T10:00:28.656Z</time></trkpt><trkpt lat="43.9723267" lon="12.09195"><ele>295.0</ele><time>2026-03-28T10:00:30.657Z</time></trkpt><trkpt lat="43.97225" lon="12.0920583"><ele>295.0</ele><time>2026-03-28T10:00:33.657Z</time></trkpt><trkpt lat="43.9721667" lon="12.092075"><ele>295.0</ele><time>2026-03-28T10:00:34.657Z</time></trkpt><trkpt lat="43.9720683" lon="12.0920883"><ele>295.0</ele><time>2026-03-28T10:00:35.657Z</time></trkpt><trkpt lat="43.9719533" lon="12.092105"><ele>295.0</ele><time>2026-03-28T10:00:36.656Z</time></trkpt><trkpt lat="43.9718167" lon="12.09213"><ele>295.0</ele><time>2026-03-28T10:00:37.656Z</time></trkpt><trkpt lat="43.9716817" lon="12.0921533"><ele>293.8</ele><time>2026-03-28T10:00:38.656Z</time></trkpt><trkpt lat="43.9715633" lon="12.0921717"><ele>292.6</ele><time>2026-03-28T10:00:39.657Z</time></trkpt><trkpt lat="43.9714667" lon="12.0921983"><ele>291.4</ele><time>2026-03-28T10:00:40.657Z</time></trkpt><trkpt lat="43.971385" lon="12.0922417"><ele>290.2</ele><time>2026-03-28T10:00:41.657Z</time></trkpt><trkpt lat="43.9713217" lon="12.0923033"><ele>289.0</ele><time>2026-03-28T10:00:42.66Z</time></trkpt><trkpt lat="43.9712667" lon="12.09239"><ele>294.0</ele><time>2026-03-28T10:00:43.66Z</time></trkpt><trkpt lat="43.9712083" lon="12.09247"><ele>299.0</ele><time>2026-03-28T10:00:44.656Z</time></trkpt><trkpt lat="43.9711483" lon="12.0925333"><ele>304.0</ele><time>2026-03-28T10:00:45.658Z</time></trkpt><trkpt lat="43.9710783" lon="12.0925667"><ele>309.0</ele><time>2026-03-28T10:00:46.657Z</time></trkpt><trkpt lat="43.9709917" lon="12.092585"><ele>314.0</ele><time>2026-03-28T10:00:47.659Z</time></trkpt><trkpt lat="43.9709083" lon="12.0926067"><ele>319.0</ele><time>2026-03-28T10:00:48.659Z</time></trkpt><trkpt lat="43.9708367" lon="12.0926417"><ele>319.0</ele><time>2026-03-28T10:00:49.657Z</time></trkpt><trkpt lat="43.9707833" lon="12.0927"><ele>319.0</ele><time>2026-03-28T10:00:50.66Z</time></trkpt><trkpt lat="43.970755" lon="12.092795"><ele>319.0</ele><time>2026-03-28T10:00:51.66Z</time></trkpt><trkpt lat="43.9707433" lon="12.0928933"><ele>319.0</ele><time>2026-03-28T10:00:52.66Z</time></trkpt><trkpt lat="43.9707583" lon="12.0930167"><ele>319.0</ele><time>2026-03-28T10:00:53.659Z</time></trkpt><trkpt lat="43.9707817" lon="12.0931517"><ele>319.0</ele><time>2026-03-28T10:00:54.659Z</time></trkpt><trkpt lat="43.9708133" lon="12.0933183"><ele>321.5</ele><time>2026-03-28T10:00:55.66Z</time></trkpt><trkpt lat="43.97083" lon="12.0934917"><ele>324.0</ele><time>2026-03-28T10:00:56.659Z</time></trkpt><trkpt lat="43.9708217" lon="12.0936683"><ele>326.5</ele><time>2026-03-28T10:00:57.657Z</time></trkpt><trkpt lat="43.9708167" lon="12.0938483"><ele>329.0</ele><time>2026-03-28T10:00:58.657Z</time></trkpt><trkpt lat="43.9708117" lon="12.0940217"><ele>328.79999999999995</ele><time>2026-03-28T10:00:59.656Z</time></trkpt><trkpt lat="43.9708117" lon="12.09416"><ele>328.59999999999997</ele><time>2026-03-28T10:01:00.658Z</time></trkpt><trkpt lat="43.9708317" lon="12.0942633"><ele>328.4</ele><time>2026-03-28T10:01:01.657Z</time></trkpt><trkpt lat="43.9709117" lon="12.09435"><ele>328.2</ele><time>2026-03-28T10:01:03.657Z</time></trkpt><trkpt lat="43.971005" lon="12.0942983"><ele>328.0</ele><time>2026-03-28T10:01:05.657Z</time></trkpt><trkpt lat="43.9710267" lon="12.0941817"><ele>335.0</ele><time>2026-03-28T10:01:06.658Z</time></trkpt><trkpt lat="43.9710483" lon="12.0940383"><ele>342.0</ele><time>2026-03-28T10:01:07.658Z</time></trkpt><trkpt lat="43.9710767" lon="12.09389"><ele>349.0</ele><time>2026-03-28T10:01:08.657Z</time></trkpt><trkpt lat="43.971125" lon="12.093725"><ele>356.0</ele><time>2026-03-28T10:01:09.656Z</time></trkpt><trkpt lat="43.9711883" lon="12.093565"><ele>356.0</ele><time>2026-03-28T10:01:10.66Z</time></trkpt><trkpt lat="43.9712667" lon="12.0934133"><ele>356.0</ele><time>2026-03-28T10:01:11.657Z</time></trkpt><trkpt lat="43.9713483" lon="12.0932817"><ele>356.0</ele><time>2026-03-28T10:01:12.66Z</time></trkpt><trkpt lat="43.9714333" lon="12.09317"><ele>356.0</ele><time>2026-03-28T10:01:13.657Z</time></trkpt><trkpt lat="43.9715233" lon="12.0930867"><ele>350.75</ele><time>2026-03-28T10:01:14.657Z</time></trkpt><trkpt lat="43.97162" lon="12.093035"><ele>345.5</ele><time>2026-03-28T10:01:15.658Z</time></trkpt><trkpt lat="43.9717283" lon="12.0930083"><ele>340.25</ele><time>2026-03-28T10:01:16.657Z</time></trkpt><trkpt lat="43.9718533" lon="12.0930033"><ele>335.0</ele><time>2026-03-28T10:01:17.656Z</time></trkpt><trkpt lat="43.971995" lon="12.0930183"><ele>334.8</ele><time>2026-03-28T10:01:18.656Z</time></trkpt><trkpt lat="43.9721267" lon="12.0930317"><ele>334.6</ele><time>2026-03-28T10:01:19.657Z</time></trkpt><trkpt lat="43.9722417" lon="12.093045"><ele>334.4</ele><time>2026-03-28T10:01:20.655Z</time></trkpt><trkpt lat="43.9723383" lon="12.0930683"><ele>334.2</ele><time>2026-03-28T10:01:21.657Z</time></trkpt><trkpt lat="43.972425" lon="12.0931217"><ele>334.0</ele><time>2026-03-28T10:01:22.656Z</time></trkpt><trkpt lat="43.97251" lon="12.0931933"><ele>338.0</ele><time>2026-03-28T10:01:23.659Z</time></trkpt><trkpt lat="43.9725867" lon="12.0932717"><ele>342.0</ele><time>2026-03-28T10:01:24.659Z</time></trkpt><trkpt lat="43.9726517" lon="12.0933383"><ele>346.0</ele><time>2026-03-28T10:01:25.659Z</time></trkpt><trkpt lat="43.9727083" lon="12.093455"><ele>350.0</ele><time>2026-03-28T10:01:27.657Z</time></trkpt><trkpt lat="43.9726583" lon="12.0935167"><ele>354.0</ele><time>2026-03-28T10:01:29.656Z</time></trkpt><trkpt lat="43.9725333" lon="12.0934417"><ele>356.8333333333333</ele><time>2026-03-28T10:01:31.658Z</time></trkpt><trkpt lat="43.9724583" lon="12.0933733"><ele>359.6666666666667</ele><time>2026-03-28T10:01:32.657Z</time></trkpt><trkpt lat="43.9723717" lon="12.0933317"><ele>362.5</ele><time>2026-03-28T10:01:33.657Z</time></trkpt><trkpt lat="43.9722983" lon="12.0933167"><ele>365.33333333333337</ele><time>2026-03-28T10:01:34.655Z</time></trkpt><trkpt lat="43.972215" lon="12.0933583"><ele>368.1666666666667</ele><time>2026-03-28T10:01:35.656Z</time></trkpt><trkpt lat="43.9721383" lon="12.0934117"><ele>371.0</ele><time>2026-03-28T10:01:36.657Z</time></trkpt><trkpt lat="43.97207" lon="12.0935117"><ele>371.0</ele><time>2026-03-28T10:01:37.656Z</time></trkpt><trkpt lat="43.9720167" lon="12.0936733"><ele>371.0</ele><time>2026-03-28T10:01:38.656Z</time></trkpt><trkpt lat="43.9719933" lon="12.0938433"><ele>371.0</ele><time>2026-03-28T10:01:39.658Z</time></trkpt><trkpt lat="43.972" lon="12.0939983"><ele>371.0</ele><time>2026-03-28T10:01:40.657Z</time></trkpt><trkpt lat="43.9720217" lon="12.0941367"><ele>375.75</ele><time>2026-03-28T10:01:41.657Z</time></trkpt><trkpt lat="43.9720617" lon="12.094275"><ele>380.5</ele><time>2026-03-28T10:01:42.66Z</time></trkpt><trkpt lat="43.9721133" lon="12.0944233"><ele>385.25</ele><time>2026-03-28T10:01:43.661Z</time></trkpt><trkpt lat="43.9721683" lon="12.094575"><ele>390.0</ele><time>2026-03-28T10:01:44.656Z</time></trkpt><trkpt lat="43.9722383" lon="12.0947317"><ele>390.0</ele><time>2026-03-28T10:01:45.658Z</time></trkpt><trkpt lat="43.972315" lon="12.09489"><ele>390.0</ele><time>2026-03-28T10:01:46.658Z</time></trkpt><trkpt lat="43.9724083" lon="12.095045"><ele>390.0</ele><time>2026-03-28T10:01:47.657Z</time></trkpt><trkpt lat="43.9725033" lon="12.09519"><ele>390.0</ele><time>2026-03-28T10:01:48.659Z</time></trkpt><trkpt lat="43.9726" lon="12.0953267"><ele>394.75</ele><time>2026-03-28T10:01:49.657Z</time></trkpt><trkpt lat="43.9727" lon="12.0954533"><ele>399.5</ele><time>2026-03-28T10:01:50.659Z</time></trkpt><trkpt lat="43.9728133" lon="12.09556"><ele>404.25</ele><time>2026-03-28T10:01:51.659Z</time></trkpt><trkpt lat="43.9729383" lon="12.0956583"><ele>409.0</ele><time>2026-03-28T10:01:52.661Z</time></trkpt><trkpt lat="43.9730617" lon="12.0957517"><ele>409.5</ele><time>2026-03-28T10:01:53.658Z</time></trkpt><trkpt lat="43.973185" lon="12.0958383"><ele>410.0</ele><time>2026-03-28T10:01:54.659Z</time></trkpt><trkpt lat="43.9732883" lon="12.0959367"><ele>410.5</ele><time>2026-03-28T10:01:55.656Z</time></trkpt><trkpt lat="43.973355" lon="12.0960567"><ele>411.0</ele><time>2026-03-28T10:01:56.658Z</time></trkpt><trkpt lat="43.9733833" lon="12.0961933"><ele>411.0</ele><time>2026-03-28T10:01:57.656Z</time></trkpt><trkpt lat="43.9733833" lon="12.0963233"><ele>411.0</ele><time>2026-03-28T10:01:58.658Z</time></trkpt><trkpt lat="43.9733633" lon="12.0964483"><ele>411.0</ele><time>2026-03-28T10:01:59.657Z</time></trkpt><trkpt lat="43.9733283" lon="12.0965767"><ele>411.0</ele><time>2026-03-28T10:02:00.658Z</time></trkpt><trkpt lat="43.9732833" lon="12.096715"><ele>411.0</ele><time>2026-03-28T10:02:01.659Z</time></trkpt><trkpt lat="43.9732283" lon="12.09687"><ele>411.5</ele><time>2026-03-28T10:02:02.658Z</time></trkpt><trkpt lat="43.9731617" lon="12.0970117"><ele>412.0</ele><time>2026-03-28T10:02:03.657Z</time></trkpt><trkpt lat="43.9730783" lon="12.0971283"><ele>412.5</ele><time>2026-03-28T10:02:04.658Z</time></trkpt><trkpt lat="43.97297" lon="12.0972283"><ele>413.0</ele><time>2026-03-28T10:02:05.657Z</time></trkpt><trkpt lat="43.9728467" lon="12.0973233"><ele>413.0</ele><time>2026-03-28T10:02:06.657Z</time></trkpt><trkpt lat="43.972725" lon="12.0974133"><ele>413.0</ele><time>2026-03-28T10:02:07.66Z</time></trkpt><trkpt lat="43.97262" lon="12.0974867"><ele>413.0</ele><time>2026-03-28T10:02:08.656Z</time></trkpt><trkpt lat="43.97254" lon="12.0975417"><ele>413.0</ele><time>2026-03-28T10:02:09.657Z</time></trkpt><trkpt lat="43.9724817" lon="12.09759"><ele>413.0</ele><time>2026-03-28T10:02:10.657Z</time></trkpt><trkpt lat="43.9724867" lon="12.0976833"><ele>415.59999999999997</ele><time>2026-03-28T10:02:12.658Z</time></trkpt><trkpt lat="43.9726133" lon="12.0977033"><ele>418.2</ele><time>2026-03-28T10:02:14.66Z</time></trkpt><trkpt lat="43.97268" lon="12.0977083"><ele>420.8</ele><time>2026-03-28T10:02:15.656Z</time></trkpt><trkpt lat="43.9727483" lon="12.0977333"><ele>423.4</ele><time>2026-03-28T10:02:16.657Z</time></trkpt><trkpt lat="43.9727833" lon="12.0978883"><ele>426.0</ele><time>2026-03-28T10:02:18.659Z</time></trkpt><trkpt lat="43.9727583" lon="12.09798"><ele>426.0</ele><time>2026-03-28T10:02:19.66Z</time></trkpt><trkpt lat="43.972705" lon="12.0980817"><ele>426.0</ele><time>2026-03-28T10:02:20.66Z</time></trkpt><trkpt lat="43.9726517" lon="12.0981833"><ele>426.0</ele><time>2026-03-28T10:02:21.659Z</time></trkpt><trkpt lat="43.9726017" lon="12.0983067"><ele>426.0</ele><time>2026-03-28T10:02:22.66Z</time></trkpt><trkpt lat="43.9725633" lon="12.0984317"><ele>426.0</ele><time>2026-03-28T10:02:23.662Z</time></trkpt><trkpt lat="43.9725283" lon="12.0985583"><ele>427.5</ele><time>2026-03-28T10:02:24.659Z</time></trkpt><trkpt lat="43.9725" lon="12.0986783"><ele>429.0</ele><time>2026-03-28T10:02:25.659Z</time></trkpt><trkpt lat="43.97249" lon="12.09879"><ele>430.5</ele><time>2026-03-28T10:02:26.66Z</time></trkpt><trkpt lat="43.9725033" lon="12.09889"><ele>432.0</ele><time>2026-03-28T10:02:27.657Z</time></trkpt><trkpt lat="43.9725767" lon="12.098975"><ele>433.5</ele><time>2026-03-28T10:02:28.657Z</time></trkpt><trkpt lat="43.9726683" lon="12.0990567"><ele>435.0</ele><time>2026-03-28T10:02:29.657Z</time></trkpt><trkpt lat="43.9727667" lon="12.099155"><ele>440.0</ele><time>2026-03-28T10:02:30.657Z</time></trkpt><trkpt lat="43.9728617" lon="12.0992783"><ele>445.0</ele><time>2026-03-28T10:02:31.661Z</time></trkpt><trkpt lat="43.9729467" lon="12.099435"><ele>450.0</ele><time>2026-03-28T10:02:32.656Z</time></trkpt><trkpt lat="43.9730267" lon="12.0996133"><ele>455.0</ele><time>2026-03-28T10:02:33.657Z</time></trkpt><trkpt lat="43.9731017" lon="12.0997817"><ele>455.5</ele><time>2026-03-28T10:02:34.658Z</time></trkpt><trkpt lat="43.973175" lon="12.0999183"><ele>456.0</ele><time>2026-03-28T10:02:35.657Z</time></trkpt><trkpt lat="43.9732583" lon="12.1000333"><ele>456.5</ele><time>2026-03-28T10:02:36.657Z</time></trkpt><trkpt lat="43.9733683" lon="12.1001283"><ele>457.0</ele><time>2026-03-28T10:02:37.658Z</time></trkpt><trkpt lat="43.9734817" lon="12.10021"><ele>460.20000000000005</ele><time>2026-03-28T10:02:38.657Z</time></trkpt><trkpt lat="43.973575" lon="12.1002933"><ele>463.40000000000003</ele><time>2026-03-28T10:02:39.656Z</time></trkpt><trkpt lat="43.97365" lon="12.1003917"><ele>466.59999999999997</ele><time>2026-03-28T10:02:40.658Z</time></trkpt><trkpt lat="43.9737033" lon="12.1005183"><ele>469.79999999999995</ele><time>2026-03-28T10:02:41.658Z</time></trkpt><trkpt lat="43.9737417" lon="12.1006683"><ele>473.0</ele><time>2026-03-28T10:02:42.657Z</time></trkpt><trkpt lat="43.9737783" lon="12.1008367"><ele>473.0</ele><time>2026-03-28T10:02:43.659Z</time></trkpt><trkpt lat="43.9738133" lon="12.10103"><ele>473.0</ele><time>2026-03-28T10:02:44.658Z</time></trkpt><trkpt lat="43.9738533" lon="12.1012383"><ele>473.0</ele><time>2026-03-28T10:02:45.658Z</time></trkpt><trkpt lat="43.9738917" lon="12.1014483"><ele>470.66666666666663</ele><time>2026-03-28T10:02:46.659Z</time></trkpt><trkpt lat="43.9739183" lon="12.1016717"><ele>468.33333333333337</ele><time>2026-03-28T10:02:47.659Z</time></trkpt><trkpt lat="43.97394" lon="12.1019067"><ele>466.0</ele><time>2026-03-28T10:02:48.656Z</time></trkpt><trkpt lat="43.9739633" lon="12.1021367"><ele>466.0</ele><time>2026-03-28T10:02:49.659Z</time></trkpt><trkpt lat="43.9739833" lon="12.1023533"><ele>466.0</ele><time>2026-03-28T10:02:50.659Z</time></trkpt><trkpt lat="43.9740033" lon="12.10254"><ele>466.0</ele><time>2026-03-28T10:02:51.66Z</time></trkpt><trkpt lat="43.9740167" lon="12.1027033"><ele>466.0</ele><time>2026-03-28T10:02:52.657Z</time></trkpt><trkpt lat="43.9740317" lon="12.1028383"><ele>464.6</ele><time>2026-03-28T10:02:53.659Z</time></trkpt><trkpt lat="43.9740517" lon="12.1029633"><ele>463.20000000000005</ele><time>2026-03-28T10:02:54.656Z</time></trkpt><trkpt lat="43.974085" lon="12.1030833"><ele>461.79999999999995</ele><time>2026-03-28T10:02:55.66Z</time></trkpt><trkpt lat="43.9741417" lon="12.10321"><ele>460.4</ele><time>2026-03-28T10:02:56.659Z</time></trkpt><trkpt lat="43.9742233" lon="12.1033333"><ele>459.0</ele><time>2026-03-28T10:02:57.657Z</time></trkpt><trkpt lat="43.97432" lon="12.1034617"><ele>463.5</ele><time>2026-03-28T10:02:58.658Z</time></trkpt><trkpt lat="43.9744183" lon="12.1036"><ele>468.0</ele><time>2026-03-28T10:02:59.658Z</time></trkpt><trkpt lat="43.9745183" lon="12.1037217"><ele>472.5</ele><time>2026-03-28T10:03:00.657Z</time></trkpt><trkpt lat="43.9746017" lon="12.1038233"><ele>477.0</ele><time>2026-03-28T10:03:01.658Z</time></trkpt><trkpt lat="43.9746533" lon="12.1039233"><ele>477.0</ele><time>2026-03-28T10:03:02.657Z</time></trkpt><trkpt lat="43.974685" lon="12.1040367"><ele>477.00000000000006</ele><time>2026-03-28T10:03:03.658Z</time></trkpt><trkpt lat="43.9746983" lon="12.1041783"><ele>477.00000000000006</ele><time>2026-03-28T10:03:04.658Z</time></trkpt><trkpt lat="43.9747067" lon="12.1043333"><ele>477.0</ele><time>2026-03-28T10:03:05.657Z</time></trkpt><trkpt lat="43.9747217" lon="12.1044917"><ele>477.0</ele><time>2026-03-28T10:03:06.657Z</time></trkpt><trkpt lat="43.9747433" lon="12.1046367"><ele>475.1666666666667</ele><time>2026-03-28T10:03:07.657Z</time></trkpt><trkpt lat="43.9747717" lon="12.1047667"><ele>473.33333333333337</ele><time>2026-03-28T10:03:08.656Z</time></trkpt><trkpt lat="43.9747867" lon="12.1048767"><ele>471.5</ele><time>2026-03-28T10:03:09.657Z</time></trkpt><trkpt lat="43.9747917" lon="12.1049717"><ele>469.6666666666667</ele><time>2026-03-28T10:03:10.659Z</time></trkpt><trkpt lat="43.974785" lon="12.10506"><ele>467.83333333333337</ele><time>2026-03-28T10:03:11.658Z</time></trkpt><trkpt lat="43.974765" lon="12.1051517"><ele>466.0</ele><time>2026-03-28T10:03:12.658Z</time></trkpt><trkpt lat="43.9747333" lon="12.1052467"><ele>466.0</ele><time>2026-03-28T10:03:13.658Z</time></trkpt><trkpt lat="43.9746867" lon="12.1053417"><ele>466.0</ele><time>2026-03-28T10:03:14.657Z</time></trkpt><trkpt lat="43.9746233" lon="12.1054333"><ele>466.0</ele><time>2026-03-28T10:03:15.659Z</time></trkpt><trkpt lat="43.97453" lon="12.10551"><ele>466.0</ele><time>2026-03-28T10:03:16.658Z</time></trkpt><trkpt lat="43.974415" lon="12.1055733"><ele>466.0</ele><time>2026-03-28T10:03:17.657Z</time></trkpt><trkpt lat="43.97429" lon="12.1056383"><ele>460.0</ele><time>2026-03-28T10:03:18.657Z</time></trkpt><trkpt lat="43.9741617" lon="12.1056933"><ele>454.0</ele><time>2026-03-28T10:03:19.656Z</time></trkpt><trkpt lat="43.9740483" lon="12.1057267"><ele>448.0</ele><time>2026-03-28T10:03:20.656Z</time></trkpt><trkpt lat="43.9739433" lon="12.1057167"><ele>442.0</ele><time>2026-03-28T10:03:21.657Z</time></trkpt><trkpt lat="43.9738483" lon="12.1056833"><ele>442.00000000000006</ele><time>2026-03-28T10:03:22.658Z</time></trkpt><trkpt lat="43.9737683" lon="12.1056417"><ele>442.0</ele><time>2026-03-28T10:03:23.655Z</time></trkpt><trkpt lat="43.9736933" lon="12.105615"><ele>442.0</ele><time>2026-03-28T10:03:24.658Z</time></trkpt><trkpt lat="43.9736133" lon="12.1056117"><ele>442.0</ele><time>2026-03-28T10:03:25.657Z</time></trkpt><trkpt lat="43.97353" lon="12.1056383"><ele>442.00000000000006</ele><time>2026-03-28T10:03:26.655Z</time></trkpt><trkpt lat="43.9734433" lon="12.1056983"><ele>442.0</ele><time>2026-03-28T10:03:27.655Z</time></trkpt><trkpt lat="43.9733517" lon="12.10578"><ele>447.0</ele><time>2026-03-28T10:03:28.656Z</time></trkpt><trkpt lat="43.9732633" lon="12.10585"><ele>452.00000000000006</ele><time>2026-03-28T10:03:29.659Z</time></trkpt><trkpt lat="43.9731867" lon="12.105905"><ele>457.00000000000006</ele><time>2026-03-28T10:03:30.658Z</time></trkpt><trkpt lat="43.9731117" lon="12.10594"><ele>462.0</ele><time>2026-03-28T10:03:31.657Z</time></trkpt><trkpt lat="43.973025" lon="12.1059617"><ele>467.0</ele><time>2026-03-28T10:03:32.657Z</time></trkpt><trkpt lat="43.97293" lon="12.1059933"><ele>467.0</ele><time>2026-03-28T10:03:33.657Z</time></trkpt><trkpt lat="43.97283" lon="12.1060367"><ele>467.00000000000006</ele><time>2026-03-28T10:03:34.657Z</time></trkpt><trkpt lat="43.9727383" lon="12.106085"><ele>467.00000000000006</ele><time>2026-03-28T10:03:35.655Z</time></trkpt><trkpt lat="43.9726583" lon="12.1061383"><ele>467.0</ele><time>2026-03-28T10:03:36.658Z</time></trkpt><trkpt lat="43.97259" lon="12.10621"><ele>467.0</ele><time>2026-03-28T10:03:37.658Z</time></trkpt><trkpt lat="43.9725233" lon="12.1063133"><ele>466.20000000000005</ele><time>2026-03-28T10:03:38.655Z</time></trkpt><trkpt lat="43.9724617" lon="12.1064283"><ele>465.40000000000003</ele><time>2026-03-28T10:03:39.662Z</time></trkpt><trkpt lat="43.972415" lon="12.1065367"><ele>464.59999999999997</ele><time>2026-03-28T10:03:40.658Z</time></trkpt><trkpt lat="43.9723917" lon="12.1066367"><ele>463.79999999999995</ele><time>2026-03-28T10:03:41.658Z</time></trkpt><trkpt lat="43.9724067" lon="12.1067533"><ele>463.0</ele><time>2026-03-28T10:03:43.661Z</time></trkpt><trkpt lat="43.972505" lon="12.1066717"><ele>463.79999999999995</ele><time>2026-03-28T10:03:46.66Z</time></trkpt><trkpt lat="43.9725633" lon="12.106575"><ele>464.59999999999997</ele><time>2026-03-28T10:03:47.656Z</time></trkpt><trkpt lat="43.9726317" lon="12.106485"><ele>465.40000000000003</ele><time>2026-03-28T10:03:48.657Z</time></trkpt><trkpt lat="43.97272" lon="12.1064167"><ele>466.20000000000005</ele><time>2026-03-28T10:03:49.658Z</time></trkpt><trkpt lat="43.9728133" lon="12.10639"><ele>467.0</ele><time>2026-03-28T10:03:50.657Z</time></trkpt><trkpt lat="43.9729233" lon="12.106405"><ele>466.99999999999994</ele><time>2026-03-28T10:03:51.657Z</time></trkpt><trkpt lat="43.973035" lon="12.1064217"><ele>467.0</ele><time>2026-03-28T10:03:52.658Z</time></trkpt><trkpt lat="43.973135" lon="12.1064233"><ele>467.0</ele><time>2026-03-28T10:03:53.656Z</time></trkpt><trkpt lat="43.9732167" lon="12.10643"><ele>467.0</ele><time>2026-03-28T10:03:54.659Z</time></trkpt><trkpt lat="43.9732867" lon="12.1064817"><ele>466.99999999999994</ele><time>2026-03-28T10:03:56.657Z</time></trkpt><trkpt lat="43.9732517" lon="12.10657"><ele>467.0</ele><time>2026-03-28T10:03:59.657Z</time></trkpt><trkpt lat="43.97313" lon="12.106605"><ele>473.40000000000003</ele><time>2026-03-28T10:04:01.658Z</time></trkpt><trkpt lat="43.9730617" lon="12.106635"><ele>479.80000000000007</ele><time>2026-03-28T10:04:02.658Z</time></trkpt><trkpt lat="43.97297" lon="12.10674"><ele>486.2</ele><time>2026-03-28T10:04:04.657Z</time></trkpt><trkpt lat="43.9729417" lon="12.1068317"><ele>492.6</ele><time>2026-03-28T10:04:05.658Z</time></trkpt><trkpt lat="43.9729283" lon="12.1069533"><ele>499.0</ele><time>2026-03-28T10:04:06.657Z</time></trkpt><trkpt lat="43.9729283" lon="12.1070933"><ele>499.0</ele><time>2026-03-28T10:04:07.658Z</time></trkpt><trkpt lat="43.97295" lon="12.1072433"><ele>499.0</ele><time>2026-03-28T10:04:08.657Z</time></trkpt><trkpt lat="43.9729833" lon="12.1074033"><ele>499.0</ele><time>2026-03-28T10:04:09.658Z</time></trkpt><trkpt lat="43.9730117" lon="12.107565"><ele>499.0</ele><time>2026-03-28T10:04:10.658Z</time></trkpt><trkpt lat="43.9730383" lon="12.107725"><ele>501.4</ele><time>2026-03-28T10:04:11.657Z</time></trkpt><trkpt lat="43.973065" lon="12.1078817"><ele>503.79999999999995</ele><time>2026-03-28T10:04:12.658Z</time></trkpt><trkpt lat="43.9730833" lon="12.10804"><ele>506.20000000000005</ele><time>2026-03-28T10:04:13.659Z</time></trkpt><trkpt lat="43.9730917" lon="12.1081933"><ele>508.6</ele><time>2026-03-28T10:04:14.655Z</time></trkpt><trkpt lat="43.973095" lon="12.1083417"><ele>511.0</ele><time>2026-03-28T10:04:15.657Z</time></trkpt><trkpt lat="43.9730917" lon="12.108475"><ele>511.0</ele><time>2026-03-28T10:04:16.658Z</time></trkpt><trkpt lat="43.97309" lon="12.108585"><ele>511.0</ele><time>2026-03-28T10:04:17.657Z</time></trkpt><trkpt lat="43.9730917" lon="12.10868"><ele>511.0</ele><time>2026-03-28T10:04:18.658Z</time></trkpt><trkpt lat="43.9731033" lon="12.1087667"><ele>511.0</ele><time>2026-03-28T10:04:19.659Z</time></trkpt><trkpt lat="43.97313" lon="12.1088517"><ele>511.0</ele><time>2026-03-28T10:04:20.658Z</time></trkpt><trkpt lat="43.9731767" lon="12.1089317"><ele>511.0</ele><time>2026-03-28T10:04:21.656Z</time></trkpt><trkpt lat="43.9732333" lon="12.1090133"><ele>511.0</ele><time>2026-03-28T10:04:22.661Z</time></trkpt><trkpt lat="43.9732833" lon="12.1091033"><ele>510.50000000000006</ele><time>2026-03-28T10:04:23.658Z</time></trkpt><trkpt lat="43.9733167" lon="12.1091983"><ele>510.0</ele><time>2026-03-28T10:04:24.658Z</time></trkpt><trkpt lat="43.97334" lon="12.1093017"><ele>509.5</ele><time>2026-03-28T10:04:25.658Z</time></trkpt><trkpt lat="43.9733567" lon="12.1093983"><ele>509.0</ele><time>2026-03-28T10:04:26.656Z</time></trkpt><trkpt lat="43.9733717" lon="12.1094867"><ele>508.50000000000006</ele><time>2026-03-28T10:04:27.658Z</time></trkpt><trkpt lat="43.9734183" lon="12.109605"><ele>508.0</ele><time>2026-03-28T10:04:29.657Z</time></trkpt><trkpt lat="43.9735017" lon="12.1096417"><ele>509.4</ele><time>2026-03-28T10:04:31.658Z</time></trkpt><trkpt lat="43.9735917" lon="12.10958"><ele>510.79999999999995</ele><time>2026-03-28T10:04:33.657Z</time></trkpt><trkpt lat="43.97365" lon="12.109515"><ele>512.2</ele><time>2026-03-28T10:04:34.658Z</time></trkpt><trkpt lat="43.973725" lon="12.1094333"><ele>513.6</ele><time>2026-03-28T10:04:35.657Z</time></trkpt><trkpt lat="43.9738083" lon="12.1093517"><ele>515.0</ele><time>2026-03-28T10:04:36.658Z</time></trkpt><trkpt lat="43.97389" lon="12.109285"><ele>515.0</ele><time>2026-03-28T10:04:37.657Z</time></trkpt><trkpt lat="43.9739817" lon="12.1092317"><ele>515.0</ele><time>2026-03-28T10:04:38.66Z</time></trkpt><trkpt lat="43.97409" lon="12.1091967"><ele>515.0</ele><time>2026-03-28T10:04:39.656Z</time></trkpt><trkpt lat="43.9742067" lon="12.1091717"><ele>515.0</ele><time>2026-03-28T10:04:40.657Z</time></trkpt><trkpt lat="43.9743267" lon="12.1091667"><ele>515.0</ele><time>2026-03-28T10:04:41.66Z</time></trkpt><trkpt lat="43.974445" lon="12.109165"><ele>517.2</ele><time>2026-03-28T10:04:42.66Z</time></trkpt><trkpt lat="43.9745417" lon="12.10916"><ele>519.4</ele><time>2026-03-28T10:04:43.658Z</time></trkpt><trkpt lat="43.9746267" lon="12.109155"><ele>521.6</ele><time>2026-03-28T10:04:44.659Z</time></trkpt><trkpt lat="43.974745" lon="12.1091733"><ele>523.8</ele><time>2026-03-28T10:04:46.655Z</time></trkpt><trkpt lat="43.9748367" lon="12.1092367"><ele>526.0</ele><time>2026-03-28T10:04:48.658Z</time></trkpt><trkpt lat="43.974905" lon="12.1093817"><ele>526.0</ele><time>2026-03-28T10:04:50.657Z</time></trkpt><trkpt lat="43.9749317" lon="12.1094833"><ele>526.0</ele><time>2026-03-28T10:04:51.656Z</time></trkpt><trkpt lat="43.9749683" lon="12.109595"><ele>526.0</ele><time>2026-03-28T10:04:52.658Z</time></trkpt><trkpt lat="43.975015" lon="12.109705"><ele>526.0</ele><time>2026-03-28T10:04:53.656Z</time></trkpt><trkpt lat="43.9750633" lon="12.1097967"><ele>526.0</ele><time>2026-03-28T10:04:54.657Z</time></trkpt><trkpt lat="43.97511" lon="12.10987"><ele>526.0</ele><time>2026-03-28T10:04:55.657Z</time></trkpt><trkpt lat="43.9752267" lon="12.1099317"><ele>529.2</ele><time>2026-03-28T10:04:57.656Z</time></trkpt><trkpt lat="43.9753567" lon="12.1098867"><ele>532.4000000000001</ele><time>2026-03-28T10:04:59.656Z</time></trkpt><trkpt lat="43.9754367" lon="12.1098417"><ele>535.6</ele><time>2026-03-28T10:05:00.657Z</time></trkpt><trkpt lat="43.9755333" lon="12.1097917"><ele>538.8000000000001</ele><time>2026-03-28T10:05:01.66Z</time></trkpt><trkpt lat="43.975635" lon="12.1097567"><ele>542.0</ele><time>2026-03-28T10:05:02.656Z</time></trkpt><trkpt lat="43.9757217" lon="12.1097433"><ele>542.0</ele><time>2026-03-28T10:05:03.657Z</time></trkpt><trkpt lat="43.9757933" lon="12.1097483"><ele>542.0</ele><time>2026-03-28T10:05:04.657Z</time></trkpt><trkpt lat="43.9759017" lon="12.10979"><ele>542.0</ele><time>2026-03-28T10:05:06.657Z</time></trkpt><trkpt lat="43.9759933" lon="12.10989"><ele>542.0</ele><time>2026-03-28T10:05:08.656Z</time></trkpt><trkpt lat="43.97605" lon="12.1099783"><ele>542.0</ele><time>2026-03-28T10:05:09.657Z</time></trkpt><trkpt lat="43.976115" lon="12.1100667"><ele>536.0</ele><time>2026-03-28T10:05:10.66Z</time></trkpt><trkpt lat="43.9761833" lon="12.11014"><ele>530.0</ele><time>2026-03-28T10:05:11.658Z</time></trkpt><trkpt lat="43.976245" lon="12.1101817"><ele>524.0</ele><time>2026-03-28T10:05:12.658Z</time></trkpt><trkpt lat="43.97631" lon="12.1101867"><ele>518.0</ele><time>2026-03-28T10:05:13.657Z</time></trkpt><trkpt lat="43.976375" lon="12.1101617"><ele>511.99999999999994</ele><time>2026-03-28T10:05:14.656Z</time></trkpt><trkpt lat="43.9764483" lon="12.1101"><ele>506.0</ele><time>2026-03-28T10:05:15.655Z</time></trkpt><trkpt lat="43.976525" lon="12.11004"><ele>505.99999999999994</ele><time>2026-03-28T10:05:16.656Z</time></trkpt><trkpt lat="43.97661" lon="12.1099917"><ele>506.0</ele><time>2026-03-28T10:05:17.656Z</time></trkpt><trkpt lat="43.976695" lon="12.10996"><ele>506.0</ele><time>2026-03-28T10:05:18.657Z</time></trkpt><trkpt lat="43.9767767" lon="12.1099417"><ele>506.0</ele><time>2026-03-28T10:05:19.658Z</time></trkpt><trkpt lat="43.9768633" lon="12.1099317"><ele>505.99999999999994</ele><time>2026-03-28T10:05:20.656Z</time></trkpt><trkpt lat="43.976945" lon="12.1099483"><ele>506.0</ele><time>2026-03-28T10:05:21.657Z</time></trkpt><trkpt lat="43.9770267" lon="12.1099933"><ele>508.6</ele><time>2026-03-28T10:05:22.657Z</time></trkpt><trkpt lat="43.9771067" lon="12.1100683"><ele>511.20000000000005</ele><time>2026-03-28T10:05:23.66Z</time></trkpt><trkpt lat="43.977185" lon="12.11016"><ele>513.8</ele><time>2026-03-28T10:05:24.658Z</time></trkpt><trkpt lat="43.9772717" lon="12.1102567"><ele>516.4</ele><time>2026-03-28T10:05:25.659Z</time></trkpt><trkpt lat="43.9773617" lon="12.1103433"><ele>519.0</ele><time>2026-03-28T10:05:26.659Z</time></trkpt><trkpt lat="43.9774483" lon="12.1104183"><ele>522.0</ele><time>2026-03-28T10:05:27.656Z</time></trkpt><trkpt lat="43.9775433" lon="12.1104933"><ele>525.0</ele><time>2026-03-28T10:05:28.658Z</time></trkpt><trkpt lat="43.9776317" lon="12.1105717"><ele>528.0</ele><time>2026-03-28T10:05:29.655Z</time></trkpt><trkpt lat="43.9777133" lon="12.11064"><ele>531.0</ele><time>2026-03-28T10:05:30.656Z</time></trkpt><trkpt lat="43.9777883" lon="12.110695"><ele>534.0</ele><time>2026-03-28T10:05:31.657Z</time></trkpt><trkpt lat="43.9778483" lon="12.1107567"><ele>534.0</ele><time>2026-03-28T10:05:32.657Z</time></trkpt><trkpt lat="43.9778933" lon="12.11083"><ele>534.0</ele><time>2026-03-28T10:05:33.657Z</time></trkpt><trkpt lat="43.977925" lon="12.110925"><ele>534.0</ele><time>2026-03-28T10:05:34.657Z</time></trkpt><trkpt lat="43.9779517" lon="12.11104"><ele>534.0</ele><time>2026-03-28T10:05:35.656Z</time></trkpt><trkpt lat="43.9779683" lon="12.1111783"><ele>534.0</ele><time>2026-03-28T10:05:36.657Z</time></trkpt><trkpt lat="43.9779717" lon="12.11133"><ele>534.0</ele><time>2026-03-28T10:05:37.657Z</time></trkpt><trkpt lat="43.97797" lon="12.1114733"><ele>532.2</ele><time>2026-03-28T10:05:38.656Z</time></trkpt><trkpt lat="43.9779567" lon="12.1116"><ele>530.4</ele><time>2026-03-28T10:05:39.657Z</time></trkpt><trkpt lat="43.9779283" lon="12.11172"><ele>528.6</ele><time>2026-03-28T10:05:40.657Z</time></trkpt><trkpt lat="43.9778933" lon="12.1118367"><ele>526.8</ele><time>2026-03-28T10:05:41.657Z</time></trkpt><trkpt lat="43.9778583" lon="12.1119633"><ele>525.0</ele><time>2026-03-28T10:05:42.658Z</time></trkpt><trkpt lat="43.9778183" lon="12.1120783"><ele>525.0</ele><time>2026-03-28T10:05:43.657Z</time></trkpt><trkpt lat="43.97778" lon="12.1121783"><ele>525.0</ele><time>2026-03-28T10:05:44.656Z</time></trkpt><trkpt lat="43.9777483" lon="12.11233"><ele>525.0</ele><time>2026-03-28T10:05:46.656Z</time></trkpt><trkpt lat="43.9777883" lon="12.112445"><ele>525.0</ele><time>2026-03-28T10:05:48.658Z</time></trkpt><trkpt lat="43.97789" lon="12.1125283"><ele>525.0</ele><time>2026-03-28T10:05:50.657Z</time></trkpt><trkpt lat="43.9779767" lon="12.1125483"><ele>523.0</ele><time>2026-03-28T10:05:51.656Z</time></trkpt><trkpt lat="43.9780683" lon="12.1125567"><ele>521.0</ele><time>2026-03-28T10:05:52.657Z</time></trkpt><trkpt lat="43.97815" lon="12.112585"><ele>519.0</ele><time>2026-03-28T10:05:53.659Z</time></trkpt><trkpt lat="43.978225" lon="12.1126567"><ele>517.0</ele><time>2026-03-28T10:05:54.661Z</time></trkpt><trkpt lat="43.9782883" lon="12.1127517"><ele>515.0</ele><time>2026-03-28T10:05:55.66Z</time></trkpt><trkpt lat="43.9783433" lon="12.1128733"><ele>516.8</ele><time>2026-03-28T10:05:56.66Z</time></trkpt><trkpt lat="43.97841" lon="12.1130017"><ele>518.6</ele><time>2026-03-28T10:05:57.656Z</time></trkpt><trkpt lat="43.9784767" lon="12.1131367"><ele>520.4</ele><time>2026-03-28T10:05:58.658Z</time></trkpt><trkpt lat="43.9785383" lon="12.11326"><ele>522.2</ele><time>2026-03-28T10:05:59.657Z</time></trkpt><trkpt lat="43.9785967" lon="12.113365"><ele>524.0</ele><time>2026-03-28T10:06:00.661Z</time></trkpt><trkpt lat="43.97865" lon="12.11345"><ele>524.0</ele><time>2026-03-28T10:06:01.658Z</time></trkpt><trkpt lat="43.978705" lon="12.11352"><ele>524.0</ele><time>2026-03-28T10:06:02.661Z</time></trkpt><trkpt lat="43.9787683" lon="12.113575"><ele>524.0</ele><time>2026-03-28T10:06:03.657Z</time></trkpt><trkpt lat="43.978835" lon="12.1136267"><ele>524.0</ele><time>2026-03-28T10:06:04.658Z</time></trkpt><trkpt lat="43.9789233" lon="12.1136683"><ele>524.0</ele><time>2026-03-28T10:06:05.656Z</time></trkpt><trkpt lat="43.979015" lon="12.1137067"><ele>524.0</ele><time>2026-03-28T10:06:06.658Z</time></trkpt><trkpt lat="43.9791083" lon="12.113765"><ele>524.75</ele><time>2026-03-28T10:06:07.656Z</time></trkpt><trkpt lat="43.979205" lon="12.113845"><ele>525.5</ele><time>2026-03-28T10:06:08.655Z</time></trkpt><trkpt lat="43.9793167" lon="12.113945"><ele>526.25</ele><time>2026-03-28T10:06:09.657Z</time></trkpt><trkpt lat="43.9794217" lon="12.11406"><ele>527.0</ele><time>2026-03-28T10:06:10.66Z</time></trkpt><trkpt lat="43.9795217" lon="12.114185"><ele>527.0</ele><time>2026-03-28T10:06:11.655Z</time></trkpt><trkpt lat="43.9796083" lon="12.11431"><ele>527.0</ele><time>2026-03-28T10:06:12.657Z</time></trkpt><trkpt lat="43.9796783" lon="12.1144183"><ele>527.0</ele><time>2026-03-28T10:06:13.66Z</time></trkpt><trkpt lat="43.9797517" lon="12.114495"><ele>527.0</ele><time>2026-03-28T10:06:14.66Z</time></trkpt><trkpt lat="43.9798267" lon="12.1145517"><ele>527.0</ele><time>2026-03-28T10:06:15.659Z</time></trkpt><trkpt lat="43.97991" lon="12.1145867"><ele>527.0</ele><time>2026-03-28T10:06:16.659Z</time></trkpt><trkpt lat="43.980005" lon="12.11461"><ele>527.0</ele><time>2026-03-28T10:06:17.659Z</time></trkpt><trkpt lat="43.9801133" lon="12.1146183"><ele>527.0</ele><time>2026-03-28T10:06:18.658Z</time></trkpt><trkpt lat="43.9802267" lon="12.1146333"><ele>527.0</ele><time>2026-03-28T10:06:19.659Z</time></trkpt><trkpt lat="43.9803467" lon="12.114655"><ele>527.0</ele><time>2026-03-28T10:06:20.658Z</time></trkpt><trkpt lat="43.9804617" lon="12.1146783"><ele>528.2</ele><time>2026-03-28T10:06:21.658Z</time></trkpt><trkpt lat="43.9805683" lon="12.1147067"><ele>529.4000000000001</ele><time>2026-03-28T10:06:22.659Z</time></trkpt><trkpt lat="43.9806633" lon="12.114745"><ele>530.5999999999999</ele><time>2026-03-28T10:06:23.656Z</time></trkpt><trkpt lat="43.980755" lon="12.114795"><ele>531.8</ele><time>2026-03-28T10:06:24.655Z</time></trkpt><trkpt lat="43.9808483" lon="12.1148617"><ele>533.0</ele><time>2026-03-28T10:06:25.657Z</time></trkpt><trkpt lat="43.98094" lon="12.1149433"><ele>530.6</ele><time>2026-03-28T10:06:26.659Z</time></trkpt><trkpt lat="43.9810383" lon="12.11503"><ele>528.1999999999999</ele><time>2026-03-28T10:06:27.656Z</time></trkpt><trkpt lat="43.9811333" lon="12.1151117"><ele>525.8</ele><time>2026-03-28T10:06:28.656Z</time></trkpt><trkpt lat="43.98122" lon="12.1151883"><ele>523.4</ele><time>2026-03-28T10:06:29.657Z</time></trkpt><trkpt lat="43.98129" lon="12.1152633"><ele>521.0</ele><time>2026-03-28T10:06:30.657Z</time></trkpt><trkpt lat="43.981355" lon="12.11534"><ele>521.0</ele><time>2026-03-28T10:06:31.658Z</time></trkpt><trkpt lat="43.9814217" lon="12.1154183"><ele>521.0</ele><time>2026-03-28T10:06:32.655Z</time></trkpt><trkpt lat="43.9814867" lon="12.1154967"><ele>521.0</ele><time>2026-03-28T10:06:33.655Z</time></trkpt><trkpt lat="43.9815367" lon="12.1155783"><ele>521.0</ele><time>2026-03-28T10:06:34.657Z</time></trkpt><trkpt lat="43.9815817" lon="12.1156717"><ele>521.0</ele><time>2026-03-28T10:06:35.657Z</time></trkpt><trkpt lat="43.98162" lon="12.115775"><ele>521.0</ele><time>2026-03-28T10:06:36.656Z</time></trkpt><trkpt lat="43.9816467" lon="12.1158867"><ele>522.0</ele><time>2026-03-28T10:06:37.657Z</time></trkpt><trkpt lat="43.981655" lon="12.1160067"><ele>523.0</ele><time>2026-03-28T10:06:38.655Z</time></trkpt><trkpt lat="43.98164" lon="12.1161467"><ele>524.0</ele><time>2026-03-28T10:06:39.658Z</time></trkpt><trkpt lat="43.9816117" lon="12.116285"><ele>525.0</ele><time>2026-03-28T10:06:40.657Z</time></trkpt><trkpt lat="43.98158" lon="12.116415"><ele>526.0</ele><time>2026-03-28T10:06:41.656Z</time></trkpt><trkpt lat="43.9815683" lon="12.1165433"><ele>526.4</ele><time>2026-03-28T10:06:42.657Z</time></trkpt><trkpt lat="43.981575" lon="12.116655"><ele>526.8</ele><time>2026-03-28T10:06:43.66Z</time></trkpt><trkpt lat="43.981605" lon="12.1167633"><ele>527.1999999999999</ele><time>2026-03-28T10:06:44.657Z</time></trkpt><trkpt lat="43.98166" lon="12.116865"><ele>527.6</ele><time>2026-03-28T10:06:45.657Z</time></trkpt><trkpt lat="43.9817317" lon="12.11696"><ele>528.0</ele><time>2026-03-28T10:06:46.657Z</time></trkpt><trkpt lat="43.9818183" lon="12.1170517"><ele>527.5</ele><time>2026-03-28T10:06:47.66Z</time></trkpt><trkpt lat="43.9819017" lon="12.1171533"><ele>527.0</ele><time>2026-03-28T10:06:48.66Z</time></trkpt><trkpt lat="43.9819867" lon="12.11726"><ele>526.5</ele><time>2026-03-28T10:06:49.66Z</time></trkpt><trkpt lat="43.9820817" lon="12.117375"><ele>526.0</ele><time>2026-03-28T10:06:50.658Z</time></trkpt><trkpt lat="43.9821817" lon="12.1174883"><ele>526.0</ele><time>2026-03-28T10:06:51.659Z</time></trkpt><trkpt lat="43.9822767" lon="12.117585"><ele>526.0</ele><time>2026-03-28T10:06:52.658Z</time></trkpt><trkpt lat="43.982365" lon="12.1176633"><ele>526.0</ele><time>2026-03-28T10:06:53.658Z</time></trkpt><trkpt lat="43.9824583" lon="12.1177167"><ele>526.0</ele><time>2026-03-28T10:06:54.659Z</time></trkpt><trkpt lat="43.98256" lon="12.1177417"><ele>526.0</ele><time>2026-03-28T10:06:55.66Z</time></trkpt><trkpt lat="43.9826567" lon="12.11774"><ele>525.0</ele><time>2026-03-28T10:06:56.659Z</time></trkpt><trkpt lat="43.9827417" lon="12.117725"><ele>524.0</ele><time>2026-03-28T10:06:57.657Z</time></trkpt><trkpt lat="43.98281" lon="12.1177267"><ele>523.0</ele><time>2026-03-28T10:06:58.656Z</time></trkpt><trkpt lat="43.9828933" lon="12.117765"><ele>522.0</ele><time>2026-03-28T10:07:00.657Z</time></trkpt><trkpt lat="43.9829433" lon="12.1178833"><ele>521.0</ele><time>2026-03-28T10:07:02.656Z</time></trkpt><trkpt lat="43.9829567" lon="12.11798"><ele>520.0</ele><time>2026-03-28T10:07:03.657Z</time></trkpt><trkpt lat="43.98296" lon="12.1181133"><ele>519.25</ele><time>2026-03-28T10:07:04.656Z</time></trkpt><trkpt lat="43.9829683" lon="12.118265"><ele>518.5</ele><time>2026-03-28T10:07:05.656Z</time></trkpt><trkpt lat="43.9829833" lon="12.11843"><ele>517.75</ele><time>2026-03-28T10:07:06.658Z</time></trkpt><trkpt lat="43.9830017" lon="12.1186067"><ele>517.0</ele><time>2026-03-28T10:07:07.657Z</time></trkpt><trkpt lat="43.9830333" lon="12.118795"><ele>517.0</ele><time>2026-03-28T10:07:08.659Z</time></trkpt><trkpt lat="43.9830633" lon="12.118975"><ele>517.0</ele><time>2026-03-28T10:07:09.658Z</time></trkpt><trkpt lat="43.9830833" lon="12.1191417"><ele>517.0</ele><time>2026-03-28T10:07:10.657Z</time></trkpt><trkpt lat="43.9830983" lon="12.1192733"><ele>517.0</ele><time>2026-03-28T10:07:11.657Z</time></trkpt><trkpt lat="43.983095" lon="12.119375"><ele>517.0</ele><time>2026-03-28T10:07:12.655Z</time></trkpt><trkpt lat="43.9830783" lon="12.11946"><ele>517.6</ele><time>2026-03-28T10:07:13.656Z</time></trkpt><trkpt lat="43.983005" lon="12.119615"><ele>518.2</ele><time>2026-03-28T10:07:15.655Z</time></trkpt><trkpt lat="43.9829383" lon="12.1197017"><ele>518.8</ele><time>2026-03-28T10:07:16.655Z</time></trkpt><trkpt lat="43.98287" lon="12.1197983"><ele>519.4</ele><time>2026-03-28T10:07:17.659Z</time></trkpt><trkpt lat="43.9828033" lon="12.1199"><ele>520.0</ele><time>2026-03-28T10:07:18.658Z</time></trkpt><trkpt lat="43.9827317" lon="12.12"><ele>520.0</ele><time>2026-03-28T10:07:19.656Z</time></trkpt><trkpt lat="43.9826633" lon="12.1201017"><ele>520.0</ele><time>2026-03-28T10:07:20.659Z</time></trkpt><trkpt lat="43.9826017" lon="12.1202117"><ele>520.0</ele><time>2026-03-28T10:07:21.658Z</time></trkpt><trkpt lat="43.9825367" lon="12.1203167"><ele>520.0</ele><time>2026-03-28T10:07:22.658Z</time></trkpt><trkpt lat="43.9824717" lon="12.120425"><ele>520.0</ele><time>2026-03-28T10:07:23.654Z</time></trkpt><trkpt lat="43.9824067" lon="12.12053"><ele>519.0</ele><time>2026-03-28T10:07:24.656Z</time></trkpt><trkpt lat="43.9823433" lon="12.1206417"><ele>518.0</ele><time>2026-03-28T10:07:25.655Z</time></trkpt><trkpt lat="43.9822883" lon="12.1207583"><ele>517.0</ele><time>2026-03-28T10:07:26.659Z</time></trkpt><trkpt lat="43.9822383" lon="12.12088"><ele>516.0</ele><time>2026-03-28T10:07:27.655Z</time></trkpt><trkpt lat="43.98219" lon="12.1209983"><ele>515.0</ele><time>2026-03-28T10:07:28.657Z</time></trkpt><trkpt lat="43.9821467" lon="12.121125"><ele>515.0</ele><time>2026-03-28T10:07:29.657Z</time></trkpt><trkpt lat="43.9821033" lon="12.1212483"><ele>515.0</ele><time>2026-03-28T10:07:30.658Z</time></trkpt><trkpt lat="43.982055" lon="12.1213667"><ele>515.0</ele><time>2026-03-28T10:07:31.658Z</time></trkpt><trkpt lat="43.981995" lon="12.1214917"><ele>515.0</ele><time>2026-03-28T10:07:32.657Z</time></trkpt><trkpt lat="43.9819317" lon="12.1216217"><ele>515.0</ele><time>2026-03-28T10:07:33.656Z</time></trkpt><trkpt lat="43.981875" lon="12.121755"><ele>516.75</ele><time>2026-03-28T10:07:34.658Z</time></trkpt><trkpt lat="43.98182" lon="12.1218883"><ele>518.5</ele><time>2026-03-28T10:07:35.657Z</time></trkpt><trkpt lat="43.9817633" lon="12.1220233"><ele>520.25</ele><time>2026-03-28T10:07:36.657Z</time></trkpt><trkpt lat="43.9816983" lon="12.1221533"><ele>522.0</ele><time>2026-03-28T10:07:37.657Z</time></trkpt><trkpt lat="43.98162" lon="12.1222867"><ele>517.5</ele><time>2026-03-28T10:07:38.656Z</time></trkpt><trkpt lat="43.98154" lon="12.1224233"><ele>513.0</ele><time>2026-03-28T10:07:39.658Z</time></trkpt><trkpt lat="43.9814667" lon="12.1225667"><ele>508.5</ele><time>2026-03-28T10:07:40.657Z</time></trkpt><trkpt lat="43.9813967" lon="12.1227117"><ele>504.0</ele><time>2026-03-28T10:07:41.656Z</time></trkpt><trkpt lat="43.981335" lon="12.1228583"><ele>504.0</ele><time>2026-03-28T10:07:42.657Z</time></trkpt><trkpt lat="43.981285" lon="12.123015"><ele>504.0</ele><time>2026-03-28T10:07:43.659Z</time></trkpt><trkpt lat="43.9812333" lon="12.12318"><ele>504.0</ele><time>2026-03-28T10:07:44.657Z</time></trkpt><trkpt lat="43.9811767" lon="12.1233433"><ele>504.0</ele><time>2026-03-28T10:07:45.656Z</time></trkpt><trkpt lat="43.9811233" lon="12.1234967"><ele>502.2</ele><time>2026-03-28T10:07:46.658Z</time></trkpt><trkpt lat="43.9810767" lon="12.1236283"><ele>500.4</ele><time>2026-03-28T10:07:47.659Z</time></trkpt><trkpt lat="43.981035" lon="12.1237517"><ele>498.6</ele><time>2026-03-28T10:07:48.657Z</time></trkpt><trkpt lat="43.9809967" lon="12.1238667"><ele>496.8</ele><time>2026-03-28T10:07:49.658Z</time></trkpt><trkpt lat="43.9809583" lon="12.1239783"><ele>495.0</ele><time>2026-03-28T10:07:50.658Z</time></trkpt><trkpt lat="43.9809233" lon="12.1240817"><ele>494.3333333333333</ele><time>2026-03-28T10:07:51.661Z</time></trkpt><trkpt lat="43.9808917" lon="12.1241733"><ele>493.66666666666663</ele><time>2026-03-28T10:07:52.658Z</time></trkpt><trkpt lat="43.980865" lon="12.1242533"><ele>493.0</ele><time>2026-03-28T10:07:53.658Z</time></trkpt><trkpt lat="43.9808267" lon="12.12436"><ele>492.3333333333333</ele><time>2026-03-28T10:07:55.658Z</time></trkpt><trkpt lat="43.9807767" lon="12.1244683"><ele>491.66666666666663</ele><time>2026-03-28T10:07:57.655Z</time></trkpt><trkpt lat="43.98074" lon="12.1245517"><ele>491.0</ele><time>2026-03-28T10:07:58.66Z</time></trkpt><trkpt lat="43.9806983" lon="12.124655"><ele>491.0</ele><time>2026-03-28T10:07:59.657Z</time></trkpt><trkpt lat="43.9806583" lon="12.12478"><ele>491.0</ele><time>2026-03-28T10:08:00.66Z</time></trkpt><trkpt lat="43.98062" lon="12.1249233"><ele>491.0</ele><time>2026-03-28T10:08:01.657Z</time></trkpt><trkpt lat="43.980565" lon="12.1250767"><ele>491.0</ele><time>2026-03-28T10:08:02.657Z</time></trkpt><trkpt lat="43.9804967" lon="12.1252317"><ele>489.66666666666663</ele><time>2026-03-28T10:08:03.657Z</time></trkpt><trkpt lat="43.98042" lon="12.1254033"><ele>488.33333333333337</ele><time>2026-03-28T10:08:04.658Z</time></trkpt><trkpt lat="43.980335" lon="12.1255817"><ele>487.0</ele><time>2026-03-28T10:08:05.657Z</time></trkpt><trkpt lat="43.980245" lon="12.1257667"><ele>485.33333333333337</ele><time>2026-03-28T10:08:06.658Z</time></trkpt><trkpt lat="43.98015" lon="12.12595"><ele>483.66666666666663</ele><time>2026-03-28T10:08:07.657Z</time></trkpt><trkpt lat="43.98005" lon="12.1261333"><ele>482.0</ele><time>2026-03-28T10:08:08.658Z</time></trkpt><trkpt lat="43.9799367" lon="12.1263217"><ele>486.66666666666663</ele><time>2026-03-28T10:08:09.658Z</time></trkpt><trkpt lat="43.97982" lon="12.1265033"><ele>491.33333333333337</ele><time>2026-03-28T10:08:10.658Z</time></trkpt><trkpt lat="43.9796983" lon="12.126675"><ele>496.0</ele><time>2026-03-28T10:08:11.658Z</time></trkpt><trkpt lat="43.9795767" lon="12.1268367"><ele>496.0</ele><time>2026-03-28T10:08:12.658Z</time></trkpt><trkpt lat="43.9794617" lon="12.126985"><ele>496.0</ele><time>2026-03-28T10:08:13.658Z</time></trkpt><trkpt lat="43.97935" lon="12.1271133"><ele>496.0</ele><time>2026-03-28T10:08:14.658Z</time></trkpt><trkpt lat="43.9792317" lon="12.127215"><ele>496.0</ele><time>2026-03-28T10:08:15.657Z</time></trkpt><trkpt lat="43.9791" lon="12.1272733"><ele>498.33333333333337</ele><time>2026-03-28T10:08:16.658Z</time></trkpt><trkpt lat="43.97896" lon="12.1273033"><ele>500.66666666666663</ele><time>2026-03-28T10:08:17.659Z</time></trkpt><trkpt lat="43.9788083" lon="12.12731"><ele>503.0</ele><time>2026-03-28T10:08:18.658Z</time></trkpt><trkpt lat="43.9786433" lon="12.12731"><ele>503.0</ele><time>2026-03-28T10:08:19.659Z</time></trkpt><trkpt lat="43.9784817" lon="12.1273083"><ele>503.0</ele><time>2026-03-28T10:08:20.659Z</time></trkpt><trkpt lat="43.978325" lon="12.1273233"><ele>503.0</ele><time>2026-03-28T10:08:21.658Z</time></trkpt><trkpt lat="43.9781833" lon="12.1273417"><ele>500.25</ele><time>2026-03-28T10:08:22.658Z</time></trkpt><trkpt lat="43.97806" lon="12.1273233"><ele>497.5</ele><time>2026-03-28T10:08:23.657Z</time></trkpt><trkpt lat="43.9779467" lon="12.1272717"><ele>494.75</ele><time>2026-03-28T10:08:24.655Z</time></trkpt><trkpt lat="43.977835" lon="12.1271883"><ele>492.0</ele><time>2026-03-28T10:08:25.655Z</time></trkpt><trkpt lat="43.977725" lon="12.1270783"><ele>492.0</ele><time>2026-03-28T10:08:26.654Z</time></trkpt><trkpt lat="43.977625" lon="12.126965"><ele>492.0</ele><time>2026-03-28T10:08:27.657Z</time></trkpt><trkpt lat="43.977525" lon="12.1268633"><ele>492.0</ele><time>2026-03-28T10:08:28.655Z</time></trkpt><trkpt lat="43.977415" lon="12.1267967"><ele>492.0</ele><time>2026-03-28T10:08:29.657Z</time></trkpt><trkpt lat="43.9772917" lon="12.1267883"><ele>495.5</ele><time>2026-03-28T10:08:30.657Z</time></trkpt><trkpt lat="43.97717" lon="12.126835"><ele>499.0</ele><time>2026-03-28T10:08:31.658Z</time></trkpt><trkpt lat="43.977045" lon="12.1269217"><ele>502.5</ele><time>2026-03-28T10:08:32.657Z</time></trkpt><trkpt lat="43.9769133" lon="12.1270283"><ele>506.0</ele><time>2026-03-28T10:08:33.656Z</time></trkpt><trkpt lat="43.9767817" lon="12.1271367"><ele>507.0</ele><time>2026-03-28T10:08:34.658Z</time></trkpt><trkpt lat="43.9766517" lon="12.1272333"><ele>508.0</ele><time>2026-03-28T10:08:35.658Z</time></trkpt><trkpt lat="43.9765233" lon="12.12732"><ele>509.0</ele><time>2026-03-28T10:08:36.657Z</time></trkpt><trkpt lat="43.97641" lon="12.1274133"><ele>510.0</ele><time>2026-03-28T10:08:37.657Z</time></trkpt><trkpt lat="43.9763117" lon="12.12752"><ele>513.25</ele><time>2026-03-28T10:08:38.656Z</time></trkpt><trkpt lat="43.9762417" lon="12.1276533"><ele>516.5</ele><time>2026-03-28T10:08:39.657Z</time></trkpt><trkpt lat="43.9761983" lon="12.1278017"><ele>519.75</ele><time>2026-03-28T10:08:40.657Z</time></trkpt><trkpt lat="43.976195" lon="12.127975"><ele>523.0</ele><time>2026-03-28T10:08:41.657Z</time></trkpt><trkpt lat="43.9762067" lon="12.12814"><ele>527.0</ele><time>2026-03-28T10:08:42.66Z</time></trkpt><trkpt lat="43.9762083" lon="12.1283033"><ele>531.0</ele><time>2026-03-28T10:08:43.658Z</time></trkpt><trkpt lat="43.9761717" lon="12.1284517"><ele>535.0</ele><time>2026-03-28T10:08:44.654Z</time></trkpt><trkpt lat="43.9761017" lon="12.1285883"><ele>539.0</ele><time>2026-03-28T10:08:45.656Z</time></trkpt><trkpt lat="43.976005" lon="12.1287133"><ele>539.0</ele><time>2026-03-28T10:08:46.657Z</time></trkpt><trkpt lat="43.9759083" lon="12.1288283"><ele>539.0</ele><time>2026-03-28T10:08:47.658Z</time></trkpt><trkpt lat="43.9758333" lon="12.128945"><ele>539.0</ele><time>2026-03-28T10:08:48.658Z</time></trkpt><trkpt lat="43.97579" lon="12.1290783"><ele>539.0</ele><time>2026-03-28T10:08:49.658Z</time></trkpt><trkpt lat="43.9757833" lon="12.1292217"><ele>539.0</ele><time>2026-03-28T10:08:50.657Z</time></trkpt><trkpt lat="43.9758017" lon="12.1293717"><ele>539.25</ele><time>2026-03-28T10:08:51.654Z</time></trkpt><trkpt lat="43.9758483" lon="12.1295217"><ele>539.5</ele><time>2026-03-28T10:08:52.658Z</time></trkpt><trkpt lat="43.9759317" lon="12.12968"><ele>539.75</ele><time>2026-03-28T10:08:53.658Z</time></trkpt><trkpt lat="43.9760217" lon="12.12984"><ele>540.0</ele><time>2026-03-28T10:08:54.658Z</time></trkpt><trkpt lat="43.9761133" lon="12.1300033"><ele>540.0</ele><time>2026-03-28T10:08:55.659Z</time></trkpt><trkpt lat="43.9762017" lon="12.1301617"><ele>540.0</ele><time>2026-03-28T10:08:56.657Z</time></trkpt><trkpt lat="43.97629" lon="12.1303167"><ele>540.0</ele><time>2026-03-28T10:08:57.655Z</time></trkpt><trkpt lat="43.9763617" lon="12.1304767"><ele>540.0</ele><time>2026-03-28T10:08:58.657Z</time></trkpt><trkpt lat="43.976405" lon="12.1306483"><ele>539.5</ele><time>2026-03-28T10:08:59.657Z</time></trkpt><trkpt lat="43.9764117" lon="12.1308233"><ele>539.0</ele><time>2026-03-28T10:09:00.658Z</time></trkpt><trkpt lat="43.9763833" lon="12.13099"><ele>538.5</ele><time>2026-03-28T10:09:01.659Z</time></trkpt><trkpt lat="43.9763267" lon="12.13114"><ele>538.0</ele><time>2026-03-28T10:09:02.657Z</time></trkpt><trkpt lat="43.97624" lon="12.1312583"><ele>538.0</ele><time>2026-03-28T10:09:03.658Z</time></trkpt><trkpt lat="43.976135" lon="12.1313483"><ele>538.0</ele><time>2026-03-28T10:09:04.658Z</time></trkpt><trkpt lat="43.97602" lon="12.1314067"><ele>538.0</ele><time>2026-03-28T10:09:05.658Z</time></trkpt><trkpt lat="43.9758933" lon="12.1314633"><ele>538.0</ele><time>2026-03-28T10:09:06.657Z</time></trkpt><trkpt lat="43.9757733" lon="12.1315383"><ele>538.1999999999999</ele><time>2026-03-28T10:09:07.658Z</time></trkpt><trkpt lat="43.9756733" lon="12.13163"><ele>538.4</ele><time>2026-03-28T10:09:08.658Z</time></trkpt><trkpt lat="43.9756017" lon="12.1317217"><ele>538.5999999999999</ele><time>2026-03-28T10:09:09.658Z</time></trkpt><trkpt lat="43.975565" lon="12.13182"><ele>538.8</ele><time>2026-03-28T10:09:10.659Z</time></trkpt><trkpt lat="43.97555" lon="12.1319317"><ele>539.0</ele><time>2026-03-28T10:09:11.656Z</time></trkpt><trkpt lat="43.9755617" lon="12.1320417"><ele>539.0</ele><time>2026-03-28T10:09:12.659Z</time></trkpt><trkpt lat="43.97561" lon="12.132145"><ele>539.0</ele><time>2026-03-28T10:09:13.658Z</time></trkpt><trkpt lat="43.975695" lon="12.1322267"><ele>539.0</ele><time>2026-03-28T10:09:14.656Z</time></trkpt><trkpt lat="43.97581" lon="12.1322983"><ele>539.0</ele><time>2026-03-28T10:09:15.655Z</time></trkpt><trkpt lat="43.975925" lon="12.1323817"><ele>539.0</ele><time>2026-03-28T10:09:16.656Z</time></trkpt><trkpt lat="43.9760433" lon="12.1324733"><ele>539.25</ele><time>2026-03-28T10:09:17.659Z</time></trkpt><trkpt lat="43.97616" lon="12.1325683"><ele>539.5</ele><time>2026-03-28T10:09:18.659Z</time></trkpt><trkpt lat="43.9762733" lon="12.132665"><ele>539.75</ele><time>2026-03-28T10:09:19.659Z</time></trkpt><trkpt lat="43.9763867" lon="12.13276"><ele>540.0</ele><time>2026-03-28T10:09:20.657Z</time></trkpt><trkpt lat="43.9765" lon="12.132855"><ele>540.0</ele><time>2026-03-28T10:09:21.658Z</time></trkpt><trkpt lat="43.976595" lon="12.1329567"><ele>540.0</ele><time>2026-03-28T10:09:22.658Z</time></trkpt><trkpt lat="43.97666" lon="12.1330833"><ele>540.0</ele><time>2026-03-28T10:09:23.658Z</time></trkpt><trkpt lat="43.9767033" lon="12.133225"><ele>540.0</ele><time>2026-03-28T10:09:24.659Z</time></trkpt><trkpt lat="43.9767217" lon="12.1333867"><ele>538.25</ele><time>2026-03-28T10:09:25.658Z</time></trkpt><trkpt lat="43.9767133" lon="12.1335617"><ele>536.5</ele><time>2026-03-28T10:09:26.658Z</time></trkpt><trkpt lat="43.976685" lon="12.1337267"><ele>534.75</ele><time>2026-03-28T10:09:27.655Z</time></trkpt><trkpt lat="43.9766283" lon="12.1338683"><ele>533.0</ele><time>2026-03-28T10:09:28.655Z</time></trkpt><trkpt lat="43.976545" lon="12.1339717"><ele>533.0</ele><time>2026-03-28T10:09:29.655Z</time></trkpt><trkpt lat="43.9764383" lon="12.13403"><ele>533.0</ele><time>2026-03-28T10:09:30.655Z</time></trkpt><trkpt lat="43.9763267" lon="12.1340617"><ele>533.0</ele><time>2026-03-28T10:09:31.656Z</time></trkpt><trkpt lat="43.9762183" lon="12.1340967"><ele>533.0</ele><time>2026-03-28T10:09:32.655Z</time></trkpt><trkpt lat="43.9761267" lon="12.1341517"><ele>533.0</ele><time>2026-03-28T10:09:33.656Z</time></trkpt><trkpt lat="43.9760633" lon="12.1342267"><ele>534.8</ele><time>2026-03-28T10:09:34.656Z</time></trkpt><trkpt lat="43.976025" lon="12.13432"><ele>536.5999999999999</ele><time>2026-03-28T10:09:35.656Z</time></trkpt><trkpt lat="43.9760133" lon="12.1344267"><ele>538.4000000000001</ele><time>2026-03-28T10:09:36.655Z</time></trkpt><trkpt lat="43.976045" lon="12.1345467"><ele>540.2</ele><time>2026-03-28T10:09:37.656Z</time></trkpt><trkpt lat="43.9760817" lon="12.13466"><ele>542.0</ele><time>2026-03-28T10:09:38.656Z</time></trkpt><trkpt lat="43.9761667" lon="12.134795"><ele>543.75</ele><time>2026-03-28T10:09:39.655Z</time></trkpt><trkpt lat="43.9762517" lon="12.1349433"><ele>545.5</ele><time>2026-03-28T10:09:40.656Z</time></trkpt><trkpt lat="43.9763283" lon="12.1350967"><ele>547.25</ele><time>2026-03-28T10:09:41.656Z</time></trkpt><trkpt lat="43.976405" lon="12.135245"><ele>549.0</ele><time>2026-03-28T10:09:42.656Z</time></trkpt><trkpt lat="43.9764833" lon="12.135395"><ele>549.0</ele><time>2026-03-28T10:09:43.656Z</time></trkpt><trkpt lat="43.97655" lon="12.1355433"><ele>549.0</ele><time>2026-03-28T10:09:44.658Z</time></trkpt><trkpt lat="43.9766217" lon="12.1356917"><ele>549.0</ele><time>2026-03-28T10:09:45.659Z</time></trkpt><trkpt lat="43.976695" lon="12.135835"><ele>549.0</ele><time>2026-03-28T10:09:46.656Z</time></trkpt><trkpt lat="43.97677" lon="12.1359767"><ele>548.5</ele><time>2026-03-28T10:09:47.657Z</time></trkpt><trkpt lat="43.9768383" lon="12.1361233"><ele>548.0</ele><time>2026-03-28T10:09:48.655Z</time></trkpt><trkpt lat="43.976915" lon="12.1362783"><ele>547.5</ele><time>2026-03-28T10:09:49.657Z</time></trkpt><trkpt lat="43.9770017" lon="12.1364317"><ele>547.0</ele><time>2026-03-28T10:09:50.656Z</time></trkpt><trkpt lat="43.9770833" lon="12.1365867"><ele>547.0</ele><time>2026-03-28T10:09:51.655Z</time></trkpt><trkpt lat="43.97715" lon="12.13675"><ele>547.0</ele><time>2026-03-28T10:09:52.655Z</time></trkpt><trkpt lat="43.9772017" lon="12.136915"><ele>547.0</ele><time>2026-03-28T10:09:53.656Z</time></trkpt><trkpt lat="43.9772333" lon="12.1370817"><ele>547.0</ele><time>2026-03-28T10:09:54.656Z</time></trkpt><trkpt lat="43.9772533" lon="12.13725"><ele>547.6</ele><time>2026-03-28T10:09:55.657Z</time></trkpt><trkpt lat="43.9772733" lon="12.1373917"><ele>548.2</ele><time>2026-03-28T10:09:56.655Z</time></trkpt><trkpt lat="43.977315" lon="12.1375067"><ele>548.8</ele><time>2026-03-28T10:09:57.656Z</time></trkpt><trkpt lat="43.9773683" lon="12.1375933"><ele>549.4</ele><time>2026-03-28T10:09:58.657Z</time></trkpt><trkpt lat="43.97744" lon="12.1376433"><ele>550.0</ele><time>2026-03-28T10:09:59.655Z</time></trkpt><trkpt lat="43.9775367" lon="12.1376433"><ele>550.0</ele><time>2026-03-28T10:10:00.658Z</time></trkpt><trkpt lat="43.9776417" lon="12.13765"><ele>550.0</ele><time>2026-03-28T10:10:01.659Z</time></trkpt><trkpt lat="43.9777683" lon="12.1376683"><ele>550.0</ele><time>2026-03-28T10:10:02.659Z</time></trkpt><trkpt lat="43.9779" lon="12.1377133"><ele>550.0</ele><time>2026-03-28T10:10:03.658Z</time></trkpt><trkpt lat="43.9780183" lon="12.137795"><ele>550.0</ele><time>2026-03-28T10:10:04.657Z</time></trkpt><trkpt lat="43.9781233" lon="12.1379117"><ele>550.0</ele><time>2026-03-28T10:10:05.659Z</time></trkpt><trkpt lat="43.9782183" lon="12.138035"><ele>550.0</ele><time>2026-03-28T10:10:06.659Z</time></trkpt><trkpt lat="43.9783033" lon="12.1381367"><ele>550.0</ele><time>2026-03-28T10:10:07.659Z</time></trkpt><trkpt lat="43.9784067" lon="12.1382167"><ele>550.5</ele><time>2026-03-28T10:10:08.658Z</time></trkpt><trkpt lat="43.9785333" lon="12.1382633"><ele>551.0</ele><time>2026-03-28T10:10:09.658Z</time></trkpt><trkpt lat="43.9786667" lon="12.1383083"><ele>551.5</ele><time>2026-03-28T10:10:10.658Z</time></trkpt><trkpt lat="43.978795" lon="12.1383633"><ele>552.0</ele><time>2026-03-28T10:10:11.658Z</time></trkpt><trkpt lat="43.9789183" lon="12.1384317"><ele>552.0</ele><time>2026-03-28T10:10:12.658Z</time></trkpt><trkpt lat="43.97902" lon="12.1385117"><ele>552.0</ele><time>2026-03-28T10:10:13.659Z</time></trkpt><trkpt lat="43.97911" lon="12.1386"><ele>552.0</ele><time>2026-03-28T10:10:14.659Z</time></trkpt><trkpt lat="43.9791833" lon="12.138705"><ele>552.0</ele><time>2026-03-28T10:10:15.658Z</time></trkpt><trkpt lat="43.9792383" lon="12.1388283"><ele>552.0</ele><time>2026-03-28T10:10:16.656Z</time></trkpt><trkpt lat="43.979285" lon="12.13896"><ele>547.75</ele><time>2026-03-28T10:10:17.655Z</time></trkpt><trkpt lat="43.9793333" lon="12.1391"><ele>543.5</ele><time>2026-03-28T10:10:18.655Z</time></trkpt><trkpt lat="43.9793883" lon="12.1392417"><ele>539.25</ele><time>2026-03-28T10:10:19.655Z</time></trkpt><trkpt lat="43.9794533" lon="12.1393717"><ele>535.0</ele><time>2026-03-28T10:10:20.655Z</time></trkpt><trkpt lat="43.9795217" lon="12.13949"><ele>535.0</ele><time>2026-03-28T10:10:21.655Z</time></trkpt><trkpt lat="43.9795883" lon="12.1396017"><ele>535.0</ele><time>2026-03-28T10:10:22.656Z</time></trkpt><trkpt lat="43.9796383" lon="12.1397133"><ele>535.0</ele><time>2026-03-28T10:10:23.658Z</time></trkpt><trkpt lat="43.9796633" lon="12.1398433"><ele>535.0</ele><time>2026-03-28T10:10:24.656Z</time></trkpt><trkpt lat="43.9796567" lon="12.13998"><ele>535.0</ele><time>2026-03-28T10:10:25.66Z</time></trkpt><trkpt lat="43.979615" lon="12.1401267"><ele>534.0</ele><time>2026-03-28T10:10:26.659Z</time></trkpt><trkpt lat="43.9795467" lon="12.14028"><ele>533.0</ele><time>2026-03-28T10:10:27.659Z</time></trkpt><trkpt lat="43.9794633" lon="12.1404317"><ele>532.0</ele><time>2026-03-28T10:10:28.659Z</time></trkpt><trkpt lat="43.9793633" lon="12.1405833"><ele>531.0</ele><time>2026-03-28T10:10:29.659Z</time></trkpt><trkpt lat="43.9792583" lon="12.1407283"><ele>535.75</ele><time>2026-03-28T10:10:30.659Z</time></trkpt><trkpt lat="43.9791533" lon="12.140855"><ele>540.5</ele><time>2026-03-28T10:10:31.658Z</time></trkpt><trkpt lat="43.979055" lon="12.1409783"><ele>545.25</ele><time>2026-03-28T10:10:32.658Z</time></trkpt><trkpt lat="43.9789733" lon="12.14111"><ele>550.0</ele><time>2026-03-28T10:10:33.659Z</time></trkpt><trkpt lat="43.9789083" lon="12.1412533"><ele>550.0</ele><time>2026-03-28T10:10:34.658Z</time></trkpt><trkpt lat="43.97886" lon="12.1414017"><ele>550.0</ele><time>2026-03-28T10:10:35.657Z</time></trkpt><trkpt lat="43.978815" lon="12.1415383"><ele>550.0</ele><time>2026-03-28T10:10:36.659Z</time></trkpt><trkpt lat="43.9787533" lon="12.1416533"><ele>550.0</ele><time>2026-03-28T10:10:37.662Z</time></trkpt><trkpt lat="43.97868" lon="12.1417317"><ele>550.0</ele><time>2026-03-28T10:10:38.658Z</time></trkpt><trkpt lat="43.9785983" lon="12.1417767"><ele>550.2</ele><time>2026-03-28T10:10:39.659Z</time></trkpt><trkpt lat="43.978515" lon="12.1417867"><ele>550.4</ele><time>2026-03-28T10:10:40.658Z</time></trkpt><trkpt lat="43.9784117" lon="12.141755"><ele>550.6</ele><time>2026-03-28T10:10:41.658Z</time></trkpt><trkpt lat="43.9783083" lon="12.1417183"><ele>550.8</ele><time>2026-03-28T10:10:42.658Z</time></trkpt><trkpt lat="43.9782083" lon="12.1416917"><ele>551.0</ele><time>2026-03-28T10:10:43.663Z</time></trkpt><trkpt lat="43.97812" lon="12.1416817"><ele>551.0</ele><time>2026-03-28T10:10:44.658Z</time></trkpt><trkpt lat="43.9780367" lon="12.1416883"><ele>551.0</ele><time>2026-03-28T10:10:45.658Z</time></trkpt><trkpt lat="43.9779583" lon="12.1417217"><ele>551.0</ele><time>2026-03-28T10:10:46.656Z</time></trkpt><trkpt lat="43.97788" lon="12.141795"><ele>551.0</ele><time>2026-03-28T10:10:47.656Z</time></trkpt><trkpt lat="43.9778083" lon="12.141915"><ele>551.0</ele><time>2026-03-28T10:10:48.659Z</time></trkpt><trkpt lat="43.9777633" lon="12.1420833"><ele>551.0</ele><time>2026-03-28T10:10:49.657Z</time></trkpt><trkpt lat="43.9777183" lon="12.1422617"><ele>551.0</ele><time>2026-03-28T10:10:50.658Z</time></trkpt><trkpt lat="43.9776633" lon="12.14244"><ele>551.0</ele><time>2026-03-28T10:10:51.657Z</time></trkpt><trkpt lat="43.97761" lon="12.1426017"><ele>551.0</ele><time>2026-03-28T10:10:52.66Z</time></trkpt><trkpt lat="43.9775633" lon="12.1427617"><ele>550.75</ele><time>2026-03-28T10:10:53.659Z</time></trkpt><trkpt lat="43.9775417" lon="12.142935"><ele>550.5</ele><time>2026-03-28T10:10:54.658Z</time></trkpt><trkpt lat="43.9775217" lon="12.1431067"><ele>550.25</ele><time>2026-03-28T10:10:55.658Z</time></trkpt><trkpt lat="43.977495" lon="12.1432817"><ele>550.0</ele><time>2026-03-28T10:10:56.659Z</time></trkpt><trkpt lat="43.9774567" lon="12.1434517"><ele>550.0</ele><time>2026-03-28T10:10:57.657Z</time></trkpt><trkpt lat="43.977405" lon="12.14362"><ele>550.0</ele><time>2026-03-28T10:10:58.655Z</time></trkpt><trkpt lat="43.9773517" lon="12.1437833"><ele>550.0</ele><time>2026-03-28T10:10:59.659Z</time></trkpt><trkpt lat="43.9773" lon="12.143955"><ele>550.0</ele><time>2026-03-28T10:11:00.657Z</time></trkpt><trkpt lat="43.9772583" lon="12.1441383"><ele>548.0</ele><time>2026-03-28T10:11:01.659Z</time></trkpt><trkpt lat="43.9772267" lon="12.144325"><ele>546.0</ele><time>2026-03-28T10:11:02.658Z</time></trkpt><trkpt lat="43.97721" lon="12.14451"><ele>544.0</ele><time>2026-03-28T10:11:03.658Z</time></trkpt><trkpt lat="43.9771967" lon="12.1446783"><ele>542.0</ele><time>2026-03-28T10:11:04.659Z</time></trkpt><trkpt lat="43.9771767" lon="12.1448417"><ele>539.25</ele><time>2026-03-28T10:11:05.659Z</time></trkpt><trkpt lat="43.97715" lon="12.1450033"><ele>536.5</ele><time>2026-03-28T10:11:06.658Z</time></trkpt><trkpt lat="43.9771167" lon="12.145165"><ele>533.75</ele><time>2026-03-28T10:11:07.658Z</time></trkpt><trkpt lat="43.977075" lon="12.1453317"><ele>531.0</ele><time>2026-03-28T10:11:08.658Z</time></trkpt><trkpt lat="43.977035" lon="12.1455083"><ele>531.0</ele><time>2026-03-28T10:11:09.658Z</time></trkpt><trkpt lat="43.9770017" lon="12.145695"><ele>531.0</ele><time>2026-03-28T10:11:10.658Z</time></trkpt><trkpt lat="43.9769683" lon="12.1458833"><ele>531.0</ele><time>2026-03-28T10:11:11.657Z</time></trkpt><trkpt lat="43.9769417" lon="12.1460517"><ele>531.0</ele><time>2026-03-28T10:11:12.657Z</time></trkpt><trkpt lat="43.976915" lon="12.1461967"><ele>528.5</ele><time>2026-03-28T10:11:13.658Z</time></trkpt><trkpt lat="43.9768933" lon="12.1463083"><ele>526.0</ele><time>2026-03-28T10:11:14.658Z</time></trkpt><trkpt lat="43.9768767" lon="12.1464117"><ele>523.5</ele><time>2026-03-28T10:11:15.658Z</time></trkpt><trkpt lat="43.976855" lon="12.146565"><ele>521.0</ele><time>2026-03-28T10:11:17.655Z</time></trkpt><trkpt lat="43.976815" lon="12.1466417"><ele>518.5</ele><time>2026-03-28T10:11:19.657Z</time></trkpt><trkpt lat="43.9767317" lon="12.146565"><ele>516.0</ele><time>2026-03-28T10:11:22.657Z</time></trkpt><trkpt lat="43.9766933" lon="12.146495"><ele>522.0</ele><time>2026-03-28T10:11:23.656Z</time></trkpt><trkpt lat="43.9766517" lon="12.1464083"><ele>528.0</ele><time>2026-03-28T10:11:24.659Z</time></trkpt><trkpt lat="43.9765983" lon="12.146315"><ele>534.0</ele><time>2026-03-28T10:11:25.659Z</time></trkpt><trkpt lat="43.9765333" lon="12.1462167"><ele>540.0</ele><time>2026-03-28T10:11:26.658Z</time></trkpt><trkpt lat="43.9764617" lon="12.1461"><ele>546.0</ele><time>2026-03-28T10:11:27.658Z</time></trkpt><trkpt lat="43.976385" lon="12.145985"><ele>546.0</ele><time>2026-03-28T10:11:28.658Z</time></trkpt><trkpt lat="43.9763117" lon="12.14587"><ele>546.0</ele><time>2026-03-28T10:11:29.654Z</time></trkpt><trkpt lat="43.9762367" lon="12.1457533"><ele>546.0</ele><time>2026-03-28T10:11:30.658Z</time></trkpt><trkpt lat="43.9761533" lon="12.1456517"><ele>546.0</ele><time>2026-03-28T10:11:31.658Z</time></trkpt><trkpt lat="43.9760583" lon="12.145575"><ele>546.0</ele><time>2026-03-28T10:11:32.658Z</time></trkpt><trkpt lat="43.9759517" lon="12.14552"><ele>553.0</ele><time>2026-03-28T10:11:33.657Z</time></trkpt><trkpt lat="43.9758383" lon="12.14548"><ele>560.0</ele><time>2026-03-28T10:11:34.659Z</time></trkpt><trkpt lat="43.975725" lon="12.14543"><ele>567.0</ele><time>2026-03-28T10:11:35.657Z</time></trkpt><trkpt lat="43.9756117" lon="12.1453617"><ele>574.0</ele><time>2026-03-28T10:11:36.657Z</time></trkpt><trkpt lat="43.9754917" lon="12.1452883"><ele>574.0</ele><time>2026-03-28T10:11:37.659Z</time></trkpt><trkpt lat="43.9753717" lon="12.1452233"><ele>574.0</ele><time>2026-03-28T10:11:38.659Z</time></trkpt><trkpt lat="43.975245" lon="12.14518"><ele>574.0</ele><time>2026-03-28T10:11:39.658Z</time></trkpt><trkpt lat="43.975125" lon="12.145135"><ele>574.0</ele><time>2026-03-28T10:11:40.657Z</time></trkpt><trkpt lat="43.9750167" lon="12.1450917"><ele>573.25</ele><time>2026-03-28T10:11:41.659Z</time></trkpt><trkpt lat="43.9749167" lon="12.1450317"><ele>572.5</ele><time>2026-03-28T10:11:42.658Z</time></trkpt><trkpt lat="43.9748183" lon="12.1449483"><ele>571.75</ele><time>2026-03-28T10:11:43.659Z</time></trkpt><trkpt lat="43.9747167" lon="12.1448533"><ele>571.0</ele><time>2026-03-28T10:11:44.658Z</time></trkpt><trkpt lat="43.974615" lon="12.1447583"><ele>571.0</ele><time>2026-03-28T10:11:45.658Z</time></trkpt><trkpt lat="43.9745117" lon="12.1446683"><ele>571.0</ele><time>2026-03-28T10:11:46.658Z</time></trkpt><trkpt lat="43.974395" lon="12.1445933"><ele>571.0</ele><time>2026-03-28T10:11:47.657Z</time></trkpt><trkpt lat="43.97427" lon="12.144535"><ele>571.0</ele><time>2026-03-28T10:11:48.658Z</time></trkpt><trkpt lat="43.974135" lon="12.1444967"><ele>572.0</ele><time>2026-03-28T10:11:49.658Z</time></trkpt><trkpt lat="43.9740033" lon="12.1444783"><ele>573.0</ele><time>2026-03-28T10:11:50.658Z</time></trkpt><trkpt lat="43.9738767" lon="12.1444817"><ele>574.0</ele><time>2026-03-28T10:11:51.658Z</time></trkpt><trkpt lat="43.9737583" lon="12.1444867"><ele>575.0</ele><time>2026-03-28T10:11:52.659Z</time></trkpt><trkpt lat="43.9736633" lon="12.1444867"><ele>575.0</ele><time>2026-03-28T10:11:53.658Z</time></trkpt><trkpt lat="43.9735817" lon="12.1444767"><ele>575.0</ele><time>2026-03-28T10:11:54.659Z</time></trkpt><trkpt lat="43.9735017" lon="12.144465"><ele>575.0</ele><time>2026-03-28T10:11:55.658Z</time></trkpt><trkpt lat="43.97342" lon="12.1444283"><ele>575.0</ele><time>2026-03-28T10:11:56.657Z</time></trkpt><trkpt lat="43.973335" lon="12.14438"><ele>575.0</ele><time>2026-03-28T10:11:57.659Z</time></trkpt><trkpt lat="43.9732433" lon="12.1443183"><ele>575.0</ele><time>2026-03-28T10:11:58.659Z</time></trkpt><trkpt lat="43.9731533" lon="12.1442483"><ele>573.25</ele><time>2026-03-28T10:11:59.658Z</time></trkpt><trkpt lat="43.9730517" lon="12.144165"><ele>571.5</ele><time>2026-03-28T10:12:00.658Z</time></trkpt><trkpt lat="43.97294" lon="12.1440767"><ele>569.75</ele><time>2026-03-28T10:12:01.659Z</time></trkpt><trkpt lat="43.9728217" lon="12.1440067"><ele>568.0</ele><time>2026-03-28T10:12:02.658Z</time></trkpt><trkpt lat="43.9726933" lon="12.1439583"><ele>565.75</ele><time>2026-03-28T10:12:03.654Z</time></trkpt><trkpt lat="43.9725567" lon="12.1439467"><ele>563.5</ele><time>2026-03-28T10:12:04.657Z</time></trkpt><trkpt lat="43.97242" lon="12.1439383"><ele>561.25</ele><time>2026-03-28T10:12:05.658Z</time></trkpt><trkpt lat="43.9722883" lon="12.1439"><ele>559.0</ele><time>2026-03-28T10:12:06.659Z</time></trkpt><trkpt lat="43.9721667" lon="12.1438367"><ele>559.0</ele><time>2026-03-28T10:12:07.658Z</time></trkpt><trkpt lat="43.972045" lon="12.1437567"><ele>559.0</ele><time>2026-03-28T10:12:08.658Z</time></trkpt><trkpt lat="43.97193" lon="12.1436767"><ele>559.0</ele><time>2026-03-28T10:12:09.657Z</time></trkpt><trkpt lat="43.9718183" lon="12.1436167"><ele>559.0</ele><time>2026-03-28T10:12:10.659Z</time></trkpt><trkpt lat="43.9717017" lon="12.14358"><ele>556.0</ele><time>2026-03-28T10:12:11.659Z</time></trkpt><trkpt lat="43.971575" lon="12.143575"><ele>553.0</ele><time>2026-03-28T10:12:12.658Z</time></trkpt><trkpt lat="43.97144" lon="12.1435917"><ele>550.0</ele><time>2026-03-28T10:12:13.658Z</time></trkpt><trkpt lat="43.9713117" lon="12.1436083"><ele>547.0</ele><time>2026-03-28T10:12:14.659Z</time></trkpt><trkpt lat="43.9711883" lon="12.1436"><ele>547.0</ele><time>2026-03-28T10:12:15.659Z</time></trkpt><trkpt lat="43.9710783" lon="12.1435533"><ele>547.0</ele><time>2026-03-28T10:12:16.658Z</time></trkpt><trkpt lat="43.9709633" lon="12.1434783"><ele>547.0</ele><time>2026-03-28T10:12:17.658Z</time></trkpt><trkpt lat="43.9708633" lon="12.1433783"><ele>547.0</ele><time>2026-03-28T10:12:18.658Z</time></trkpt><trkpt lat="43.9707717" lon="12.1432883"><ele>546.4</ele><time>2026-03-28T10:12:19.658Z</time></trkpt><trkpt lat="43.9706883" lon="12.143195"><ele>545.8000000000001</ele><time>2026-03-28T10:12:20.659Z</time></trkpt><trkpt lat="43.9706333" lon="12.1430917"><ele>545.2</ele><time>2026-03-28T10:12:21.658Z</time></trkpt><trkpt lat="43.970595" lon="12.1429867"><ele>544.6</ele><time>2026-03-28T10:12:22.656Z</time></trkpt><trkpt lat="43.9705517" lon="12.14288"><ele>544.0</ele><time>2026-03-28T10:12:23.659Z</time></trkpt><trkpt lat="43.9705017" lon="12.142785"><ele>544.0</ele><time>2026-03-28T10:12:24.658Z</time></trkpt><trkpt lat="43.9704533" lon="12.1426833"><ele>544.0</ele><time>2026-03-28T10:12:25.658Z</time></trkpt><trkpt lat="43.9704033" lon="12.1425733"><ele>544.0</ele><time>2026-03-28T10:12:26.659Z</time></trkpt><trkpt lat="43.9703517" lon="12.14246"><ele>544.0</ele><time>2026-03-28T10:12:27.655Z</time></trkpt><trkpt lat="43.9702967" lon="12.1423433"><ele>544.0</ele><time>2026-03-28T10:12:28.658Z</time></trkpt><trkpt lat="43.9702433" lon="12.1422267"><ele>542.8</ele><time>2026-03-28T10:12:29.657Z</time></trkpt><trkpt lat="43.9701967" lon="12.1421067"><ele>541.5999999999999</ele><time>2026-03-28T10:12:30.658Z</time></trkpt><trkpt lat="43.9701617" lon="12.1419767"><ele>540.4</ele><time>2026-03-28T10:12:31.658Z</time></trkpt><trkpt lat="43.9701383" lon="12.141835"><ele>539.1999999999999</ele><time>2026-03-28T10:12:32.658Z</time></trkpt><trkpt lat="43.9701067" lon="12.1416933"><ele>538.0</ele><time>2026-03-28T10:12:33.659Z</time></trkpt><trkpt lat="43.97007" lon="12.1415567"><ele>537.5</ele><time>2026-03-28T10:12:34.659Z</time></trkpt><trkpt lat="43.970035" lon="12.14143"><ele>537.0</ele><time>2026-03-28T10:12:35.658Z</time></trkpt><trkpt lat="43.97" lon="12.1413167"><ele>536.5</ele><time>2026-03-28T10:12:36.658Z</time></trkpt><trkpt lat="43.96996" lon="12.1412233"><ele>536.0</ele><time>2026-03-28T10:12:37.66Z</time></trkpt><trkpt lat="43.969905" lon="12.1411533"><ele>535.5</ele><time>2026-03-28T10:12:38.656Z</time></trkpt><trkpt lat="43.9698433" lon="12.14109"><ele>535.0</ele><time>2026-03-28T10:12:39.658Z</time></trkpt><trkpt lat="43.9697667" lon="12.1410433"><ele>540.2</ele><time>2026-03-28T10:12:40.657Z</time></trkpt><trkpt lat="43.96968" lon="12.141015"><ele>545.4</ele><time>2026-03-28T10:12:41.656Z</time></trkpt><trkpt lat="43.9695817" lon="12.1410133"><ele>550.6</ele><time>2026-03-28T10:12:42.658Z</time></trkpt><trkpt lat="43.9694783" lon="12.1410383"><ele>555.8</ele><time>2026-03-28T10:12:43.659Z</time></trkpt><trkpt lat="43.969365" lon="12.1410683"><ele>561.0</ele><time>2026-03-28T10:12:44.656Z</time></trkpt><trkpt lat="43.96926" lon="12.141065"><ele>562.4</ele><time>2026-03-28T10:12:45.656Z</time></trkpt><trkpt lat="43.9691667" lon="12.1410167"><ele>563.8</ele><time>2026-03-28T10:12:46.655Z</time></trkpt><trkpt lat="43.9690867" lon="12.1409267"><ele>565.1999999999999</ele><time>2026-03-28T10:12:47.656Z</time></trkpt><trkpt lat="43.96902" lon="12.140805"><ele>566.6</ele><time>2026-03-28T10:12:48.656Z</time></trkpt><trkpt lat="43.96896" lon="12.1406617"><ele>568.0</ele><time>2026-03-28T10:12:49.656Z</time></trkpt><trkpt lat="43.9689017" lon="12.1405183"><ele>564.8</ele><time>2026-03-28T10:12:50.654Z</time></trkpt><trkpt lat="43.9688467" lon="12.1403917"><ele>561.5999999999999</ele><time>2026-03-28T10:12:51.658Z</time></trkpt><trkpt lat="43.9687867" lon="12.1402883"><ele>558.4000000000001</ele><time>2026-03-28T10:12:52.656Z</time></trkpt><trkpt lat="43.9687183" lon="12.1402133"><ele>555.2</ele><time>2026-03-28T10:12:53.658Z</time></trkpt><trkpt lat="43.9686467" lon="12.1401617"><ele>552.0</ele><time>2026-03-28T10:12:54.656Z</time></trkpt><trkpt lat="43.9685683" lon="12.1401367"><ele>552.0</ele><time>2026-03-28T10:12:55.659Z</time></trkpt><trkpt lat="43.968465" lon="12.1401517"><ele>552.0</ele><time>2026-03-28T10:12:56.658Z</time></trkpt><trkpt lat="43.9683417" lon="12.1401667"><ele>552.0</ele><time>2026-03-28T10:12:57.659Z</time></trkpt><trkpt lat="43.96823" lon="12.1401283"><ele>552.0</ele><time>2026-03-28T10:12:58.658Z</time></trkpt><trkpt lat="43.96813" lon="12.1400467"><ele>551.8000000000001</ele><time>2026-03-28T10:12:59.654Z</time></trkpt><trkpt lat="43.9680383" lon="12.1399467"><ele>551.6</ele><time>2026-03-28T10:13:00.66Z</time></trkpt><trkpt lat="43.9679633" lon="12.139845"><ele>551.4000000000001</ele><time>2026-03-28T10:13:01.656Z</time></trkpt><trkpt lat="43.9678783" lon="12.13976"><ele>551.2</ele><time>2026-03-28T10:13:02.657Z</time></trkpt><trkpt lat="43.967785" lon="12.139685"><ele>551.0</ele><time>2026-03-28T10:13:03.658Z</time></trkpt><trkpt lat="43.9676883" lon="12.1396"><ele>551.0</ele><time>2026-03-28T10:13:04.658Z</time></trkpt><trkpt lat="43.9676133" lon="12.13949"><ele>551.0</ele><time>2026-03-28T10:13:05.658Z</time></trkpt><trkpt lat="43.9675683" lon="12.1393517"><ele>551.0</ele><time>2026-03-28T10:13:06.659Z</time></trkpt><trkpt lat="43.9675233" lon="12.13922"><ele>551.0</ele><time>2026-03-28T10:13:07.656Z</time></trkpt><trkpt lat="43.9674567" lon="12.1391117"><ele>551.0</ele><time>2026-03-28T10:13:08.659Z</time></trkpt><trkpt lat="43.967375" lon="12.1390117"><ele>555.2</ele><time>2026-03-28T10:13:09.659Z</time></trkpt><trkpt lat="43.9672833" lon="12.1389083"><ele>559.4000000000001</ele><time>2026-03-28T10:13:10.658Z</time></trkpt><trkpt lat="43.9672" lon="12.1387917"><ele>563.6</ele><time>2026-03-28T10:13:11.659Z</time></trkpt><trkpt lat="43.967125" lon="12.13868"><ele>567.8000000000001</ele><time>2026-03-28T10:13:12.658Z</time></trkpt><trkpt lat="43.9670617" lon="12.1385867"><ele>572.0</ele><time>2026-03-28T10:13:13.659Z</time></trkpt><trkpt lat="43.9670133" lon="12.1385083"><ele>572.0</ele><time>2026-03-28T10:13:14.659Z</time></trkpt><trkpt lat="43.9669767" lon="12.1384217"><ele>572.0</ele><time>2026-03-28T10:13:15.658Z</time></trkpt><trkpt lat="43.9669367" lon="12.13832"><ele>572.0</ele><time>2026-03-28T10:13:16.657Z</time></trkpt><trkpt lat="43.9668967" lon="12.1382"><ele>572.0</ele><time>2026-03-28T10:13:17.658Z</time></trkpt><trkpt lat="43.96686" lon="12.13807"><ele>572.0</ele><time>2026-03-28T10:13:18.657Z</time></trkpt><trkpt lat="43.9668233" lon="12.1379283"><ele>575.25</ele><time>2026-03-28T10:13:19.658Z</time></trkpt><trkpt lat="43.966785" lon="12.1377833"><ele>578.5</ele><time>2026-03-28T10:13:20.657Z</time></trkpt><trkpt lat="43.966755" lon="12.1376283"><ele>581.75</ele><time>2026-03-28T10:13:21.658Z</time></trkpt><trkpt lat="43.9667367" lon="12.1374683"><ele>585.0</ele><time>2026-03-28T10:13:22.658Z</time></trkpt><trkpt lat="43.9667217" lon="12.1373133"><ele>586.75</ele><time>2026-03-28T10:13:23.659Z</time></trkpt><trkpt lat="43.9667033" lon="12.1371617"><ele>588.5</ele><time>2026-03-28T10:13:24.658Z</time></trkpt><trkpt lat="43.96667" lon="12.1370133"><ele>590.25</ele><time>2026-03-28T10:13:25.661Z</time></trkpt><trkpt lat="43.9666283" lon="12.1368617"><ele>592.0</ele><time>2026-03-28T10:13:26.658Z</time></trkpt><trkpt lat="43.96658" lon="12.1367133"><ele>588.0</ele><time>2026-03-28T10:13:27.659Z</time></trkpt><trkpt lat="43.966535" lon="12.136575"><ele>584.0</ele><time>2026-03-28T10:13:28.658Z</time></trkpt><trkpt lat="43.9664917" lon="12.1364333"><ele>580.0</ele><time>2026-03-28T10:13:29.659Z</time></trkpt><trkpt lat="43.966455" lon="12.1362883"><ele>576.0</ele><time>2026-03-28T10:13:30.659Z</time></trkpt><trkpt lat="43.9664317" lon="12.13613"><ele>572.0</ele><time>2026-03-28T10:13:31.659Z</time></trkpt><trkpt lat="43.9664267" lon="12.135955"><ele>570.6</ele><time>2026-03-28T10:13:32.658Z</time></trkpt><trkpt lat="43.9664233" lon="12.1357867"><ele>569.2</ele><time>2026-03-28T10:13:33.658Z</time></trkpt><trkpt lat="43.9664083" lon="12.13563"><ele>567.8</ele><time>2026-03-28T10:13:34.657Z</time></trkpt><trkpt lat="43.966375" lon="12.13549"><ele>566.4</ele><time>2026-03-28T10:13:35.658Z</time></trkpt><trkpt lat="43.966325" lon="12.1353717"><ele>565.0</ele><time>2026-03-28T10:13:36.658Z</time></trkpt><trkpt lat="43.9662633" lon="12.1352667"><ele>563.4</ele><time>2026-03-28T10:13:37.658Z</time></trkpt><trkpt lat="43.966185" lon="12.135175"><ele>561.8</ele><time>2026-03-28T10:13:38.658Z</time></trkpt><trkpt lat="43.9660917" lon="12.1350917"><ele>560.2</ele><time>2026-03-28T10:13:39.658Z</time></trkpt><trkpt lat="43.9659967" lon="12.1350233"><ele>558.6</ele><time>2026-03-28T10:13:40.659Z</time></trkpt><trkpt lat="43.9659" lon="12.1349717"><ele>557.0</ele><time>2026-03-28T10:13:41.658Z</time></trkpt><trkpt lat="43.9658117" lon="12.1349133"><ele>557.8000000000001</ele><time>2026-03-28T10:13:42.66Z</time></trkpt><trkpt lat="43.965725" lon="12.134835"><ele>558.6</ele><time>2026-03-28T10:13:43.66Z</time></trkpt><trkpt lat="43.9656433" lon="12.13474"><ele>559.4000000000001</ele><time>2026-03-28T10:13:44.658Z</time></trkpt><trkpt lat="43.9655633" lon="12.13463"><ele>560.2</ele><time>2026-03-28T10:13:45.658Z</time></trkpt><trkpt lat="43.9654767" lon="12.1345033"><ele>561.0</ele><time>2026-03-28T10:13:46.658Z</time></trkpt><trkpt lat="43.9653967" lon="12.1343683"><ele>561.0</ele><time>2026-03-28T10:13:47.658Z</time></trkpt><trkpt lat="43.9653167" lon="12.1342417"><ele>561.0</ele><time>2026-03-28T10:13:48.659Z</time></trkpt><trkpt lat="43.9652267" lon="12.1341333"><ele>561.0</ele><time>2026-03-28T10:13:49.658Z</time></trkpt><trkpt lat="43.9651333" lon="12.13405"><ele>561.0</ele><time>2026-03-28T10:13:50.658Z</time></trkpt><trkpt lat="43.9650417" lon="12.1339833"><ele>559.6</ele><time>2026-03-28T10:13:51.659Z</time></trkpt><trkpt lat="43.964955" lon="12.13392"><ele>558.2</ele><time>2026-03-28T10:13:52.661Z</time></trkpt><trkpt lat="43.9648717" lon="12.1338483"><ele>556.8</ele><time>2026-03-28T10:13:53.658Z</time></trkpt><trkpt lat="43.9647833" lon="12.1337717"><ele>555.4</ele><time>2026-03-28T10:13:54.658Z</time></trkpt><trkpt lat="43.9646933" lon="12.1336933"><ele>554.0</ele><time>2026-03-28T10:13:55.658Z</time></trkpt><trkpt lat="43.9645967" lon="12.133615"><ele>554.0</ele><time>2026-03-28T10:13:56.661Z</time></trkpt><trkpt lat="43.964505" lon="12.133545"><ele>554.0</ele><time>2026-03-28T10:13:57.658Z</time></trkpt><trkpt lat="43.9644217" lon="12.1334767"><ele>554.0</ele><time>2026-03-28T10:13:58.658Z</time></trkpt><trkpt lat="43.96434" lon="12.133405"><ele>554.0</ele><time>2026-03-28T10:13:59.658Z</time></trkpt><trkpt lat="43.9642717" lon="12.1333233"><ele>554.0</ele><time>2026-03-28T10:14:00.658Z</time></trkpt><trkpt lat="43.9641983" lon="12.1332383"><ele>546.6</ele><time>2026-03-28T10:14:01.66Z</time></trkpt><trkpt lat="43.9641183" lon="12.133165"><ele>539.2</ele><time>2026-03-28T10:14:02.655Z</time></trkpt><trkpt lat="43.9640233" lon="12.1331117"><ele>531.8000000000001</ele><time>2026-03-28T10:14:03.658Z</time></trkpt><trkpt lat="43.96392" lon="12.1330717"><ele>524.4</ele><time>2026-03-28T10:14:04.657Z</time></trkpt><trkpt lat="43.9638183" lon="12.1330417"><ele>517.0</ele><time>2026-03-28T10:14:05.659Z</time></trkpt><trkpt lat="43.9637233" lon="12.1330333"><ele>517.0</ele><time>2026-03-28T10:14:06.659Z</time></trkpt><trkpt lat="43.9636317" lon="12.1330517"><ele>517.0</ele><time>2026-03-28T10:14:07.659Z</time></trkpt><trkpt lat="43.9635267" lon="12.1330817"><ele>517.0</ele><time>2026-03-28T10:14:08.659Z</time></trkpt><trkpt lat="43.9634217" lon="12.133115"><ele>517.0</ele><time>2026-03-28T10:14:09.658Z</time></trkpt><trkpt lat="43.9633117" lon="12.133135"><ele>517.0</ele><time>2026-03-28T10:14:10.659Z</time></trkpt><trkpt lat="43.96321" lon="12.1331533"><ele>515.8000000000001</ele><time>2026-03-28T10:14:11.659Z</time></trkpt><trkpt lat="43.963105" lon="12.13316"><ele>514.6</ele><time>2026-03-28T10:14:12.659Z</time></trkpt><trkpt lat="43.9629983" lon="12.1331533"><ele>513.4000000000001</ele><time>2026-03-28T10:14:13.658Z</time></trkpt><trkpt lat="43.9628917" lon="12.133155"><ele>512.2</ele><time>2026-03-28T10:14:14.659Z</time></trkpt><trkpt lat="43.9627733" lon="12.1331583"><ele>511.0</ele><time>2026-03-28T10:14:15.659Z</time></trkpt><trkpt lat="43.9626533" lon="12.1331683"><ele>511.0</ele><time>2026-03-28T10:14:16.658Z</time></trkpt><trkpt lat="43.9625317" lon="12.13318"><ele>511.0</ele><time>2026-03-28T10:14:17.659Z</time></trkpt><trkpt lat="43.9624067" lon="12.133185"><ele>511.0</ele><time>2026-03-28T10:14:18.657Z</time></trkpt><trkpt lat="43.9622983" lon="12.1331783"><ele>511.0</ele><time>2026-03-28T10:14:19.66Z</time></trkpt><trkpt lat="43.9622" lon="12.1331583"><ele>512.6</ele><time>2026-03-28T10:14:20.658Z</time></trkpt><trkpt lat="43.9621067" lon="12.13313"><ele>514.2</ele><time>2026-03-28T10:14:21.658Z</time></trkpt><trkpt lat="43.9620067" lon="12.133075"><ele>515.8</ele><time>2026-03-28T10:14:22.659Z</time></trkpt><trkpt lat="43.9619083" lon="12.13301"><ele>517.4</ele><time>2026-03-28T10:14:23.659Z</time></trkpt><trkpt lat="43.961815" lon="12.1329567"><ele>519.0</ele><time>2026-03-28T10:14:24.661Z</time></trkpt><trkpt lat="43.9617217" lon="12.13293"><ele>521.3333333333334</ele><time>2026-03-28T10:14:25.659Z</time></trkpt><trkpt lat="43.96163" lon="12.1329083"><ele>523.6666666666666</ele><time>2026-03-28T10:14:26.658Z</time></trkpt><trkpt lat="43.9615467" lon="12.1328817"><ele>526.0</ele><time>2026-03-28T10:14:27.657Z</time></trkpt><trkpt lat="43.9614683" lon="12.1328417"><ele>528.3333333333333</ele><time>2026-03-28T10:14:28.659Z</time></trkpt><trkpt lat="43.9613933" lon="12.1327867"><ele>530.6666666666666</ele><time>2026-03-28T10:14:29.658Z</time></trkpt><trkpt lat="43.9613117" lon="12.13274"><ele>533.0</ele><time>2026-03-28T10:14:30.659Z</time></trkpt><trkpt lat="43.961225" lon="12.1326983"><ele>533.0</ele><time>2026-03-28T10:14:31.658Z</time></trkpt><trkpt lat="43.96114" lon="12.1326717"><ele>533.0</ele><time>2026-03-28T10:14:32.661Z</time></trkpt><trkpt lat="43.96106" lon="12.1326467"><ele>533.0</ele><time>2026-03-28T10:14:33.659Z</time></trkpt><trkpt lat="43.9609867" lon="12.1326317"><ele>533.0</ele><time>2026-03-28T10:14:34.658Z</time></trkpt><trkpt lat="43.9608633" lon="12.13269"><ele>533.0</ele><time>2026-03-28T10:14:36.659Z</time></trkpt><trkpt lat="43.9608083" lon="12.1327517"><ele>533.0</ele><time>2026-03-28T10:14:37.658Z</time></trkpt><trkpt lat="43.9607533" lon="12.132835"><ele>532.5</ele><time>2026-03-28T10:14:38.658Z</time></trkpt><trkpt lat="43.9606883" lon="12.1329433"><ele>532.0</ele><time>2026-03-28T10:14:39.658Z</time></trkpt><trkpt lat="43.9606017" lon="12.1330733"><ele>531.5</ele><time>2026-03-28T10:14:40.658Z</time></trkpt><trkpt lat="43.9605" lon="12.133215"><ele>531.0</ele><time>2026-03-28T10:14:41.658Z</time></trkpt><trkpt lat="43.9603917" lon="12.133355"><ele>531.0</ele><time>2026-03-28T10:14:42.659Z</time></trkpt><trkpt lat="43.960285" lon="12.133475"><ele>531.0</ele><time>2026-03-28T10:14:43.659Z</time></trkpt><trkpt lat="43.96018" lon="12.1335667"><ele>531.0</ele><time>2026-03-28T10:14:44.659Z</time></trkpt><trkpt lat="43.9600733" lon="12.1336383"><ele>531.0</ele><time>2026-03-28T10:14:45.66Z</time></trkpt><trkpt lat="43.9599717" lon="12.1336983"><ele>530.4</ele><time>2026-03-28T10:14:46.658Z</time></trkpt><trkpt lat="43.9598667" lon="12.133755"><ele>529.8</ele><time>2026-03-28T10:14:47.659Z</time></trkpt><trkpt lat="43.9597633" lon="12.1338067"><ele>529.1999999999999</ele><time>2026-03-28T10:14:48.658Z</time></trkpt><trkpt lat="43.9596633" lon="12.1338583"><ele>528.6</ele><time>2026-03-28T10:14:49.659Z</time></trkpt><trkpt lat="43.9595717" lon="12.133915"><ele>528.0</ele><time>2026-03-28T10:14:50.658Z</time></trkpt><trkpt lat="43.9594883" lon="12.1339733"><ele>528.0</ele><time>2026-03-28T10:14:51.659Z</time></trkpt><trkpt lat="43.95941" lon="12.1340333"><ele>528.0</ele><time>2026-03-28T10:14:52.657Z</time></trkpt><trkpt lat="43.9593383" lon="12.1340933"><ele>528.0</ele><time>2026-03-28T10:14:53.658Z</time></trkpt><trkpt lat="43.9592717" lon="12.1341433"><ele>528.0</ele><time>2026-03-28T10:14:54.66Z</time></trkpt><trkpt lat="43.959205" lon="12.13418"><ele>528.0</ele><time>2026-03-28T10:14:55.658Z</time></trkpt><trkpt lat="43.9591383" lon="12.1342083"><ele>528.0</ele><time>2026-03-28T10:14:56.658Z</time></trkpt><trkpt lat="43.9590683" lon="12.1342233"><ele>527.3333333333334</ele><time>2026-03-28T10:14:57.659Z</time></trkpt><trkpt lat="43.9589917" lon="12.1342283"><ele>526.6666666666666</ele><time>2026-03-28T10:14:58.658Z</time></trkpt><trkpt lat="43.9589117" lon="12.1342317"><ele>526.0</ele><time>2026-03-28T10:14:59.659Z</time></trkpt><trkpt lat="43.9588317" lon="12.134235"><ele>525.3333333333333</ele><time>2026-03-28T10:15:00.659Z</time></trkpt><trkpt lat="43.9587467" lon="12.1342383"><ele>524.6666666666666</ele><time>2026-03-28T10:15:01.659Z</time></trkpt><trkpt lat="43.9586683" lon="12.1342467"><ele>524.0</ele><time>2026-03-28T10:15:02.659Z</time></trkpt><trkpt lat="43.9586017" lon="12.13427"><ele>524.0</ele><time>2026-03-28T10:15:03.66Z</time></trkpt><trkpt lat="43.958545" lon="12.1343133"><ele>524.0</ele><time>2026-03-28T10:15:04.66Z</time></trkpt><trkpt lat="43.958485" lon="12.134375"><ele>524.0</ele><time>2026-03-28T10:15:05.658Z</time></trkpt><trkpt lat="43.958425" lon="12.1344533"><ele>524.0</ele><time>2026-03-28T10:15:06.658Z</time></trkpt><trkpt lat="43.958365" lon="12.1345317"><ele>524.0</ele><time>2026-03-28T10:15:07.658Z</time></trkpt><trkpt lat="43.9583017" lon="12.134605"><ele>524.0</ele><time>2026-03-28T10:15:08.659Z</time></trkpt><trkpt lat="43.958235" lon="12.13468"><ele>524.0</ele><time>2026-03-28T10:15:09.658Z</time></trkpt><trkpt lat="43.9581667" lon="12.134775"><ele>524.0</ele><time>2026-03-28T10:15:10.658Z</time></trkpt><trkpt lat="43.9580983" lon="12.134895"><ele>524.0</ele><time>2026-03-28T10:15:11.658Z</time></trkpt><trkpt lat="43.95804" lon="12.1350317"><ele>524.0</ele><time>2026-03-28T10:15:12.659Z</time></trkpt><trkpt lat="43.957975" lon="12.1351583"><ele>524.0</ele><time>2026-03-28T10:15:13.658Z</time></trkpt><trkpt lat="43.957905" lon="12.1352533"><ele>524.0</ele><time>2026-03-28T10:15:14.658Z</time></trkpt><trkpt lat="43.95783" lon="12.1353117"><ele>524.0</ele><time>2026-03-28T10:15:15.659Z</time></trkpt><trkpt lat="43.9577517" lon="12.13534"><ele>524.0</ele><time>2026-03-28T10:15:16.658Z</time></trkpt><trkpt lat="43.957655" lon="12.1353367"><ele>524.0</ele><time>2026-03-28T10:15:17.654Z</time></trkpt><trkpt lat="43.95754" lon="12.1353"><ele>524.0</ele><time>2026-03-28T10:15:18.656Z</time></trkpt><trkpt lat="43.9574133" lon="12.135255"><ele>530.75</ele><time>2026-03-28T10:15:19.657Z</time></trkpt><trkpt lat="43.9572833" lon="12.1352283"><ele>537.5</ele><time>2026-03-28T10:15:20.656Z</time></trkpt><trkpt lat="43.9571467" lon="12.1352383"><ele>544.25</ele><time>2026-03-28T10:15:21.655Z</time></trkpt><trkpt lat="43.9570067" lon="12.1352783"><ele>551.0</ele><time>2026-03-28T10:15:22.655Z</time></trkpt><trkpt lat="43.95687" lon="12.1353283"><ele>551.0</ele><time>2026-03-28T10:15:23.656Z</time></trkpt><trkpt lat="43.956735" lon="12.1353867"><ele>551.0</ele><time>2026-03-28T10:15:24.656Z</time></trkpt><trkpt lat="43.9565983" lon="12.1354533"><ele>551.0</ele><time>2026-03-28T10:15:25.656Z</time></trkpt><trkpt lat="43.9564617" lon="12.13552"><ele>551.0</ele><time>2026-03-28T10:15:26.654Z</time></trkpt><trkpt lat="43.9563167" lon="12.1355933"><ele>552.5</ele><time>2026-03-28T10:15:27.656Z</time></trkpt><trkpt lat="43.956175" lon="12.1356733"><ele>554.0</ele><time>2026-03-28T10:15:28.659Z</time></trkpt><trkpt lat="43.9560517" lon="12.13574"><ele>555.5</ele><time>2026-03-28T10:15:29.658Z</time></trkpt><trkpt lat="43.9559417" lon="12.135785"><ele>557.0</ele><time>2026-03-28T10:15:30.657Z</time></trkpt><trkpt lat="43.9558483" lon="12.1358083"><ele>557.0</ele><time>2026-03-28T10:15:31.66Z</time></trkpt><trkpt lat="43.9557667" lon="12.1358117"><ele>557.0</ele><time>2026-03-28T10:15:32.659Z</time></trkpt><trkpt lat="43.9557" lon="12.1357967"><ele>557.0</ele><time>2026-03-28T10:15:33.659Z</time></trkpt><trkpt lat="43.95564" lon="12.1357667"><ele>557.0</ele><time>2026-03-28T10:15:34.658Z</time></trkpt><trkpt lat="43.955585" lon="12.135715"><ele>557.0</ele><time>2026-03-28T10:15:35.658Z</time></trkpt><trkpt lat="43.955535" lon="12.1356433"><ele>557.0</ele><time>2026-03-28T10:15:36.658Z</time></trkpt><trkpt lat="43.9554983" lon="12.1355383"><ele>557.0</ele><time>2026-03-28T10:15:37.659Z</time></trkpt><trkpt lat="43.9554667" lon="12.1354083"><ele>560.8000000000001</ele><time>2026-03-28T10:15:38.658Z</time></trkpt><trkpt lat="43.9554267" lon="12.13527"><ele>564.6</ele><time>2026-03-28T10:15:39.658Z</time></trkpt><trkpt lat="43.9553733" lon="12.13515"><ele>568.4000000000001</ele><time>2026-03-28T10:15:40.661Z</time></trkpt><trkpt lat="43.9553033" lon="12.1350483"><ele>572.2</ele><time>2026-03-28T10:15:41.659Z</time></trkpt><trkpt lat="43.9552033" lon="12.1349667"><ele>576.0</ele><time>2026-03-28T10:15:42.658Z</time></trkpt><trkpt lat="43.95508" lon="12.13489"><ele>573.0</ele><time>2026-03-28T10:15:43.659Z</time></trkpt><trkpt lat="43.9549317" lon="12.134825"><ele>570.0</ele><time>2026-03-28T10:15:44.658Z</time></trkpt><trkpt lat="43.9547683" lon="12.1347783"><ele>567.0</ele><time>2026-03-28T10:15:45.657Z</time></trkpt><trkpt lat="43.954605" lon="12.1347517"><ele>567.0</ele><time>2026-03-28T10:15:46.659Z</time></trkpt><trkpt lat="43.9544467" lon="12.1347283"><ele>567.0</ele><time>2026-03-28T10:15:47.654Z</time></trkpt><trkpt lat="43.95429" lon="12.1347417"><ele>567.0</ele><time>2026-03-28T10:15:48.658Z</time></trkpt><trkpt lat="43.9541483" lon="12.1347917"><ele>565.5</ele><time>2026-03-28T10:15:49.658Z</time></trkpt><trkpt lat="43.954015" lon="12.13488"><ele>564.0</ele><time>2026-03-28T10:15:50.657Z</time></trkpt><trkpt lat="43.9538867" lon="12.1349733"><ele>562.5</ele><time>2026-03-28T10:15:51.658Z</time></trkpt><trkpt lat="43.95376" lon="12.13508"><ele>561.0</ele><time>2026-03-28T10:15:52.659Z</time></trkpt><trkpt lat="43.95364" lon="12.1351817"><ele>561.0</ele><time>2026-03-28T10:15:53.658Z</time></trkpt><trkpt lat="43.95352" lon="12.135275"><ele>561.0</ele><time>2026-03-28T10:15:54.658Z</time></trkpt><trkpt lat="43.95339" lon="12.1353433"><ele>561.0</ele><time>2026-03-28T10:15:55.658Z</time></trkpt><trkpt lat="43.95326" lon="12.1353983"><ele>561.0</ele><time>2026-03-28T10:15:56.657Z</time></trkpt><trkpt lat="43.953135" lon="12.1354283"><ele>564.0</ele><time>2026-03-28T10:15:57.658Z</time></trkpt><trkpt lat="43.9530117" lon="12.1354283"><ele>567.0</ele><time>2026-03-28T10:15:58.659Z</time></trkpt><trkpt lat="43.9528883" lon="12.1353933"><ele>570.0</ele><time>2026-03-28T10:15:59.658Z</time></trkpt><trkpt lat="43.9527567" lon="12.1353333"><ele>573.0</ele><time>2026-03-28T10:16:00.657Z</time></trkpt><trkpt lat="43.9526167" lon="12.135255"><ele>572.3333333333334</ele><time>2026-03-28T10:16:01.657Z</time></trkpt><trkpt lat="43.9524817" lon="12.1351833"><ele>571.6666666666667</ele><time>2026-03-28T10:16:02.658Z</time></trkpt><trkpt lat="43.952335" lon="12.1351367"><ele>571.0</ele><time>2026-03-28T10:16:03.658Z</time></trkpt><trkpt lat="43.9521717" lon="12.1351183"><ele>571.0</ele><time>2026-03-28T10:16:04.659Z</time></trkpt><trkpt lat="43.952" lon="12.1351067"><ele>571.0</ele><time>2026-03-28T10:16:05.656Z</time></trkpt><trkpt lat="43.9518283" lon="12.1350983"><ele>571.0</ele><time>2026-03-28T10:16:06.658Z</time></trkpt><trkpt lat="43.951655" lon="12.1350917"><ele>569.0</ele><time>2026-03-28T10:16:07.656Z</time></trkpt><trkpt lat="43.951485" lon="12.1350833"><ele>567.0</ele><time>2026-03-28T10:16:08.659Z</time></trkpt><trkpt lat="43.95131" lon="12.1350767"><ele>565.0</ele><time>2026-03-28T10:16:09.659Z</time></trkpt><trkpt lat="43.9511383" lon="12.135065"><ele>565.0</ele><time>2026-03-28T10:16:10.659Z</time></trkpt><trkpt lat="43.95097" lon="12.1350483"><ele>565.0</ele><time>2026-03-28T10:16:11.658Z</time></trkpt><trkpt lat="43.95081" lon="12.13502"><ele>565.0</ele><time>2026-03-28T10:16:12.655Z</time></trkpt><trkpt lat="43.9506617" lon="12.1349717"><ele>566.0</ele><time>2026-03-28T10:16:13.659Z</time></trkpt><trkpt lat="43.9505283" lon="12.13491"><ele>567.0</ele><time>2026-03-28T10:16:14.659Z</time></trkpt><trkpt lat="43.950405" lon="12.1348267"><ele>568.0</ele><time>2026-03-28T10:16:15.659Z</time></trkpt><trkpt lat="43.9502933" lon="12.1347267"><ele>569.0</ele><time>2026-03-28T10:16:16.662Z</time></trkpt><trkpt lat="43.9501983" lon="12.13461"><ele>570.3333333333333</ele><time>2026-03-28T10:16:17.657Z</time></trkpt><trkpt lat="43.9500717" lon="12.1343517"><ele>571.6666666666666</ele><time>2026-03-28T10:16:19.656Z</time></trkpt><trkpt lat="43.9500467" lon="12.13419"><ele>573.0</ele><time>2026-03-28T10:16:20.658Z</time></trkpt><trkpt lat="43.9500267" lon="12.1340117"><ele>573.0</ele><time>2026-03-28T10:16:21.657Z</time></trkpt><trkpt lat="43.95001" lon="12.1338217"><ele>573.0</ele><time>2026-03-28T10:16:22.66Z</time></trkpt><trkpt lat="43.949995" lon="12.1336133"><ele>573.0</ele><time>2026-03-28T10:16:23.657Z</time></trkpt><trkpt lat="43.94998" lon="12.1334067"><ele>573.0</ele><time>2026-03-28T10:16:24.658Z</time></trkpt><trkpt lat="43.94997" lon="12.1332117"><ele>574.1999999999999</ele><time>2026-03-28T10:16:25.659Z</time></trkpt><trkpt lat="43.9499717" lon="12.1330417"><ele>575.4</ele><time>2026-03-28T10:16:26.656Z</time></trkpt><trkpt lat="43.9499967" lon="12.132895"><ele>576.5999999999999</ele><time>2026-03-28T10:16:27.656Z</time></trkpt><trkpt lat="43.95005" lon="12.1327683"><ele>577.8</ele><time>2026-03-28T10:16:28.658Z</time></trkpt><trkpt lat="43.9501217" lon="12.1326733"><ele>579.0</ele><time>2026-03-28T10:16:29.654Z</time></trkpt><trkpt lat="43.9502217" lon="12.1326033"><ele>575.5</ele><time>2026-03-28T10:16:30.659Z</time></trkpt><trkpt lat="43.95034" lon="12.132545"><ele>572.0</ele><time>2026-03-28T10:16:31.656Z</time></trkpt><trkpt lat="43.9504717" lon="12.1324933"><ele>568.5</ele><time>2026-03-28T10:16:32.654Z</time></trkpt><trkpt lat="43.9505967" lon="12.1324333"><ele>565.0</ele><time>2026-03-28T10:16:33.657Z</time></trkpt><trkpt lat="43.9506983" lon="12.1323733"><ele>565.0</ele><time>2026-03-28T10:16:34.658Z</time></trkpt><trkpt lat="43.9507767" lon="12.1323117"><ele>565.0</ele><time>2026-03-28T10:16:35.658Z</time></trkpt><trkpt lat="43.9508317" lon="12.1322333"><ele>565.0</ele><time>2026-03-28T10:16:36.659Z</time></trkpt><trkpt lat="43.9508617" lon="12.1321383"><ele>565.0</ele><time>2026-03-28T10:16:37.658Z</time></trkpt><trkpt lat="43.95088" lon="12.1320217"><ele>565.0</ele><time>2026-03-28T10:16:38.658Z</time></trkpt><trkpt lat="43.9508917" lon="12.1319083"><ele>565.0</ele><time>2026-03-28T10:16:39.657Z</time></trkpt><trkpt lat="43.9508917" lon="12.1318033"><ele>565.0</ele><time>2026-03-28T10:16:40.657Z</time></trkpt><trkpt lat="43.950885" lon="12.1317133"><ele>565.0</ele><time>2026-03-28T10:16:41.658Z</time></trkpt><trkpt lat="43.9508517" lon="12.13161"><ele>565.0</ele><time>2026-03-28T10:16:43.658Z</time></trkpt><trkpt lat="43.95079" lon="12.131585"><ele>565.0</ele><time>2026-03-28T10:16:45.659Z</time></trkpt><trkpt lat="43.9507033" lon="12.1316517"><ele>565.0</ele><time>2026-03-28T10:16:47.656Z</time></trkpt><trkpt lat="43.95064" lon="12.131715"><ele>565.0</ele><time>2026-03-28T10:16:48.656Z</time></trkpt><trkpt lat="43.9505683" lon="12.1317783"><ele>565.0</ele><time>2026-03-28T10:16:49.656Z</time></trkpt><trkpt lat="43.95048" lon="12.1318283"><ele>565.0</ele><time>2026-03-28T10:16:50.656Z</time></trkpt><trkpt lat="43.95038" lon="12.1318533"><ele>565.0</ele><time>2026-03-28T10:16:51.656Z</time></trkpt><trkpt lat="43.9502617" lon="12.131835"><ele>565.0</ele><time>2026-03-28T10:16:52.655Z</time></trkpt><trkpt lat="43.950145" lon="12.13181"><ele>565.0</ele><time>2026-03-28T10:16:53.656Z</time></trkpt><trkpt lat="43.9500183" lon="12.13181"><ele>565.75</ele><time>2026-03-28T10:16:54.655Z</time></trkpt><trkpt lat="43.9498883" lon="12.13184"><ele>566.5</ele><time>2026-03-28T10:16:55.656Z</time></trkpt><trkpt lat="43.9497683" lon="12.1318733"><ele>567.25</ele><time>2026-03-28T10:16:56.656Z</time></trkpt><trkpt lat="43.949645" lon="12.1318667"><ele>568.0</ele><time>2026-03-28T10:16:57.656Z</time></trkpt><trkpt lat="43.94952" lon="12.1318217"><ele>568.0</ele><time>2026-03-28T10:16:58.656Z</time></trkpt><trkpt lat="43.9494133" lon="12.1317283"><ele>568.0</ele><time>2026-03-28T10:16:59.659Z</time></trkpt><trkpt lat="43.9493117" lon="12.1316217"><ele>568.0</ele><time>2026-03-28T10:17:00.659Z</time></trkpt><trkpt lat="43.9492133" lon="12.1315317"><ele>568.0</ele><time>2026-03-28T10:17:01.656Z</time></trkpt><trkpt lat="43.9491017" lon="12.1314733"><ele>566.0</ele><time>2026-03-28T10:17:02.659Z</time></trkpt><trkpt lat="43.9489917" lon="12.131455"><ele>564.0</ele><time>2026-03-28T10:17:03.658Z</time></trkpt><trkpt lat="43.948885" lon="12.1314867"><ele>562.0</ele><time>2026-03-28T10:17:04.655Z</time></trkpt><trkpt lat="43.9487833" lon="12.1315683"><ele>560.0</ele><time>2026-03-28T10:17:05.658Z</time></trkpt><trkpt lat="43.948695" lon="12.13169"><ele>564.5</ele><time>2026-03-28T10:17:06.658Z</time></trkpt><trkpt lat="43.9486183" lon="12.1318517"><ele>569.0</ele><time>2026-03-28T10:17:07.659Z</time></trkpt><trkpt lat="43.94854" lon="12.1320267"><ele>573.5</ele><time>2026-03-28T10:17:08.655Z</time></trkpt><trkpt lat="43.9484383" lon="12.13217"><ele>578.0</ele><time>2026-03-28T10:17:09.659Z</time></trkpt><trkpt lat="43.9483133" lon="12.13228"><ele>578.0</ele><time>2026-03-28T10:17:10.659Z</time></trkpt><trkpt lat="43.9481817" lon="12.1323467"><ele>578.0</ele><time>2026-03-28T10:17:11.655Z</time></trkpt><trkpt lat="43.948065" lon="12.1324067"><ele>578.0</ele><time>2026-03-28T10:17:12.659Z</time></trkpt><trkpt lat="43.94797" lon="12.132495"><ele>578.0</ele><time>2026-03-28T10:17:13.656Z</time></trkpt><trkpt lat="43.9478983" lon="12.1326317"><ele>583.5</ele><time>2026-03-28T10:17:14.657Z</time></trkpt><trkpt lat="43.9478417" lon="12.1327883"><ele>589.0</ele><time>2026-03-28T10:17:15.658Z</time></trkpt><trkpt lat="43.9477883" lon="12.13296"><ele>594.5</ele><time>2026-03-28T10:17:16.657Z</time></trkpt><trkpt lat="43.9477217" lon="12.13311"><ele>600.0</ele><time>2026-03-28T10:17:17.657Z</time></trkpt><trkpt lat="43.9476483" lon="12.1332333"><ele>601.0</ele><time>2026-03-28T10:17:18.657Z</time></trkpt><trkpt lat="43.9475583" lon="12.13333"><ele>602.0</ele><time>2026-03-28T10:17:19.658Z</time></trkpt><trkpt lat="43.9474467" lon="12.1333833"><ele>603.0</ele><time>2026-03-28T10:17:20.657Z</time></trkpt><trkpt lat="43.94731" lon="12.133405"><ele>604.0</ele><time>2026-03-28T10:17:21.658Z</time></trkpt><trkpt lat="43.9471683" lon="12.1334183"><ele>604.0</ele><time>2026-03-28T10:17:22.657Z</time></trkpt><trkpt lat="43.9470317" lon="12.1334267"><ele>604.0</ele><time>2026-03-28T10:17:23.659Z</time></trkpt><trkpt lat="43.946915" lon="12.1334367"><ele>604.0</ele><time>2026-03-28T10:17:24.659Z</time></trkpt><trkpt lat="43.9468" lon="12.1334867"><ele>604.0</ele><time>2026-03-28T10:17:25.659Z</time></trkpt><trkpt lat="43.9466917" lon="12.1335817"><ele>604.25</ele><time>2026-03-28T10:17:26.659Z</time></trkpt><trkpt lat="43.9465767" lon="12.1336883"><ele>604.5</ele><time>2026-03-28T10:17:27.659Z</time></trkpt><trkpt lat="43.9464517" lon="12.1337917"><ele>604.75</ele><time>2026-03-28T10:17:28.658Z</time></trkpt><trkpt lat="43.9463133" lon="12.1338733"><ele>605.0</ele><time>2026-03-28T10:17:29.658Z</time></trkpt><trkpt lat="43.94616" lon="12.1339367"><ele>605.0</ele><time>2026-03-28T10:17:30.658Z</time></trkpt><trkpt lat="43.9460117" lon="12.1340067"><ele>605.0</ele><time>2026-03-28T10:17:31.658Z</time></trkpt><trkpt lat="43.94587" lon="12.13409"><ele>605.0</ele><time>2026-03-28T10:17:32.657Z</time></trkpt><trkpt lat="43.945735" lon="12.1341883"><ele>604.25</ele><time>2026-03-28T10:17:33.658Z</time></trkpt><trkpt lat="43.9456183" lon="12.1343067"><ele>603.5</ele><time>2026-03-28T10:17:34.657Z</time></trkpt><trkpt lat="43.9455117" lon="12.1344283"><ele>602.75</ele><time>2026-03-28T10:17:35.658Z</time></trkpt><trkpt lat="43.945415" lon="12.1345467"><ele>602.0</ele><time>2026-03-28T10:17:36.656Z</time></trkpt><trkpt lat="43.9453417" lon="12.1346617"><ele>602.0</ele><time>2026-03-28T10:17:37.659Z</time></trkpt><trkpt lat="43.9452833" lon="12.1347633"><ele>602.0</ele><time>2026-03-28T10:17:38.661Z</time></trkpt><trkpt lat="43.9452283" lon="12.13484"><ele>602.0</ele><time>2026-03-28T10:17:39.659Z</time></trkpt><trkpt lat="43.94517" lon="12.1348833"><ele>602.0</ele><time>2026-03-28T10:17:40.659Z</time></trkpt><trkpt lat="43.9450617" lon="12.1348267"><ele>602.0</ele><time>2026-03-28T10:17:42.659Z</time></trkpt><trkpt lat="43.94502" lon="12.1347217"><ele>602.0</ele><time>2026-03-28T10:17:43.658Z</time></trkpt><trkpt lat="43.94502" lon="12.1345883"><ele>599.6666666666666</ele><time>2026-03-28T10:17:44.659Z</time></trkpt><trkpt lat="43.9450267" lon="12.1344633"><ele>597.3333333333333</ele><time>2026-03-28T10:17:45.658Z</time></trkpt><trkpt lat="43.9450317" lon="12.13435"><ele>595.0</ele><time>2026-03-28T10:17:46.655Z</time></trkpt><trkpt lat="43.9450283" lon="12.13424"><ele>592.6666666666666</ele><time>2026-03-28T10:17:47.655Z</time></trkpt><trkpt lat="43.9450033" lon="12.1341583"><ele>590.3333333333334</ele><time>2026-03-28T10:17:48.656Z</time></trkpt><trkpt lat="43.9448917" lon="12.1341283"><ele>588.0</ele><time>2026-03-28T10:17:50.655Z</time></trkpt><trkpt lat="43.94483" lon="12.134195"><ele>588.0</ele><time>2026-03-28T10:17:51.655Z</time></trkpt><trkpt lat="43.9447867" lon="12.1342783"><ele>588.0</ele><time>2026-03-28T10:17:52.656Z</time></trkpt><trkpt lat="43.9447617" lon="12.1343733"><ele>588.0</ele><time>2026-03-28T10:17:53.66Z</time></trkpt><trkpt lat="43.944785" lon="12.134495"><ele>588.0</ele><time>2026-03-28T10:17:54.659Z</time></trkpt><trkpt lat="43.94483" lon="12.1346683"><ele>588.0</ele><time>2026-03-28T10:17:55.655Z</time></trkpt><trkpt lat="43.94487" lon="12.1348433"><ele>584.5</ele><time>2026-03-28T10:17:56.657Z</time></trkpt><trkpt lat="43.9448933" lon="12.1350667"><ele>581.0</ele><time>2026-03-28T10:17:57.659Z</time></trkpt><trkpt lat="43.9449" lon="12.1352733"><ele>577.5</ele><time>2026-03-28T10:17:58.659Z</time></trkpt><trkpt lat="43.944865" lon="12.1354533"><ele>574.0</ele><time>2026-03-28T10:17:59.658Z</time></trkpt><trkpt lat="43.9448167" lon="12.1356233"><ele>572.0</ele><time>2026-03-28T10:18:00.658Z</time></trkpt><trkpt lat="43.9447517" lon="12.1357817"><ele>570.0</ele><time>2026-03-28T10:18:01.659Z</time></trkpt><trkpt lat="43.9446833" lon="12.1359333"><ele>568.0</ele><time>2026-03-28T10:18:02.658Z</time></trkpt><trkpt lat="43.944615" lon="12.1360867"><ele>566.0</ele><time>2026-03-28T10:18:03.658Z</time></trkpt><trkpt lat="43.944545" lon="12.136245"><ele>566.0</ele><time>2026-03-28T10:18:04.658Z</time></trkpt><trkpt lat="43.9444733" lon="12.1364033"><ele>566.0</ele><time>2026-03-28T10:18:05.659Z</time></trkpt><trkpt lat="43.9444" lon="12.1365617"><ele>566.0</ele><time>2026-03-28T10:18:06.659Z</time></trkpt><trkpt lat="43.9443317" lon="12.1367233"><ele>566.0</ele><time>2026-03-28T10:18:07.658Z</time></trkpt><trkpt lat="43.9442767" lon="12.1368767"><ele>566.1666666666666</ele><time>2026-03-28T10:18:08.658Z</time></trkpt><trkpt lat="43.9442383" lon="12.1370017"><ele>566.3333333333333</ele><time>2026-03-28T10:18:09.659Z</time></trkpt><trkpt lat="43.9442017" lon="12.1371033"><ele>566.5</ele><time>2026-03-28T10:18:10.659Z</time></trkpt><trkpt lat="43.9441633" lon="12.1371967"><ele>566.6666666666666</ele><time>2026-03-28T10:18:11.659Z</time></trkpt><trkpt lat="43.9441217" lon="12.1372833"><ele>566.8333333333334</ele><time>2026-03-28T10:18:12.658Z</time></trkpt><trkpt lat="43.9440767" lon="12.1373633"><ele>567.0</ele><time>2026-03-28T10:18:13.66Z</time></trkpt><trkpt lat="43.94403" lon="12.137435"><ele>567.0</ele><time>2026-03-28T10:18:14.658Z</time></trkpt><trkpt lat="43.9439767" lon="12.1375033"><ele>567.0</ele><time>2026-03-28T10:18:15.658Z</time></trkpt><trkpt lat="43.943925" lon="12.137575"><ele>567.0</ele><time>2026-03-28T10:18:16.659Z</time></trkpt><trkpt lat="43.94387" lon="12.137645"><ele>567.0</ele><time>2026-03-28T10:18:17.659Z</time></trkpt><trkpt lat="43.9438183" lon="12.13771"><ele>567.0</ele><time>2026-03-28T10:18:18.659Z</time></trkpt><trkpt lat="43.9437733" lon="12.1377783"><ele>567.0</ele><time>2026-03-28T10:18:19.658Z</time></trkpt><trkpt lat="43.94374" lon="12.1378583"><ele>567.0</ele><time>2026-03-28T10:18:20.659Z</time></trkpt><trkpt lat="43.94372" lon="12.1379517"><ele>567.0</ele><time>2026-03-28T10:18:21.659Z</time></trkpt><trkpt lat="43.9437067" lon="12.1380583"><ele>567.0</ele><time>2026-03-28T10:18:22.658Z</time></trkpt><trkpt lat="43.943685" lon="12.138175"><ele>567.0</ele><time>2026-03-28T10:18:23.659Z</time></trkpt><trkpt lat="43.9436467" lon="12.1382933"><ele>567.0</ele><time>2026-03-28T10:18:24.656Z</time></trkpt><trkpt lat="43.9435917" lon="12.1384067"><ele>567.0</ele><time>2026-03-28T10:18:25.657Z</time></trkpt><trkpt lat="43.9435133" lon="12.1385083"><ele>565.4</ele><time>2026-03-28T10:18:26.658Z</time></trkpt><trkpt lat="43.9434233" lon="12.138615"><ele>563.8000000000001</ele><time>2026-03-28T10:18:27.66Z</time></trkpt><trkpt lat="43.943335" lon="12.138715"><ele>562.2</ele><time>2026-03-28T10:18:28.659Z</time></trkpt><trkpt lat="43.94325" lon="12.1388067"><ele>560.6</ele><time>2026-03-28T10:18:29.656Z</time></trkpt><trkpt lat="43.94318" lon="12.1388817"><ele>559.0</ele><time>2026-03-28T10:18:30.655Z</time></trkpt><trkpt lat="43.9431233" lon="12.1389433"><ele>559.0</ele><time>2026-03-28T10:18:31.656Z</time></trkpt><trkpt lat="43.943055" lon="12.1390167"><ele>559.0</ele><time>2026-03-28T10:18:33.656Z</time></trkpt><trkpt lat="43.943005" lon="12.13909"><ele>559.0</ele><time>2026-03-28T10:18:35.655Z</time></trkpt><trkpt lat="43.9429483" lon="12.139185"><ele>559.0</ele><time>2026-03-28T10:18:37.659Z</time></trkpt><trkpt lat="43.9429133" lon="12.1392633"><ele>559.0</ele><time>2026-03-28T10:18:40.659Z</time></trkpt><trkpt lat="43.9429833" lon="12.139215"><ele>559.0</ele><time>2026-03-28T10:18:47.656Z</time></trkpt><trkpt lat="43.943045" lon="12.13911"><ele>559.0</ele><time>2026-03-28T10:18:49.659Z</time></trkpt><trkpt lat="43.9430917" lon="12.139045"><ele>559.0</ele><time>2026-03-28T10:18:50.659Z</time></trkpt><trkpt lat="43.9431517" lon="12.138965"><ele>559.0</ele><time>2026-03-28T10:18:51.656Z</time></trkpt><trkpt lat="43.9432217" lon="12.1388783"><ele>559.0</ele><time>2026-03-28T10:18:52.658Z</time></trkpt><trkpt lat="43.9432983" lon="12.138785"><ele>559.0</ele><time>2026-03-28T10:18:53.659Z</time></trkpt><trkpt lat="43.9433833" lon="12.138695"><ele>558.5</ele><time>2026-03-28T10:18:54.659Z</time></trkpt><trkpt lat="43.9434683" lon="12.138595"><ele>558.0</ele><time>2026-03-28T10:18:55.659Z</time></trkpt><trkpt lat="43.94355" lon="12.1384917"><ele>557.5</ele><time>2026-03-28T10:18:56.657Z</time></trkpt><trkpt lat="43.9436233" lon="12.1383717"><ele>557.0</ele><time>2026-03-28T10:18:57.657Z</time></trkpt><trkpt lat="43.94368" lon="12.13822"><ele>559.0</ele><time>2026-03-28T10:18:58.657Z</time></trkpt><trkpt lat="43.943725" lon="12.1380683"><ele>561.0</ele><time>2026-03-28T10:18:59.657Z</time></trkpt><trkpt lat="43.9437633" lon="12.1379217"><ele>563.0</ele><time>2026-03-28T10:19:00.658Z</time></trkpt><trkpt lat="43.94382" lon="12.1377967"><ele>565.0</ele><time>2026-03-28T10:19:01.657Z</time></trkpt><trkpt lat="43.9438883" lon="12.1376817"><ele>567.0</ele><time>2026-03-28T10:19:02.659Z</time></trkpt><trkpt lat="43.9439667" lon="12.1375717"><ele>567.0</ele><time>2026-03-28T10:19:03.658Z</time></trkpt><trkpt lat="43.9440517" lon="12.1374483"><ele>567.0</ele><time>2026-03-28T10:19:04.659Z</time></trkpt><trkpt lat="43.94414" lon="12.1371783"><ele>567.0</ele><time>2026-03-28T10:19:06.259Z</time></trkpt><trkpt lat="43.944225" lon="12.136945"><ele>566.75</ele><time>2026-03-28T10:19:07.656Z</time></trkpt><trkpt lat="43.9442917" lon="12.1367883"><ele>566.5</ele><time>2026-03-28T10:19:08.656Z</time></trkpt><trkpt lat="43.9443617" lon="12.1366267"><ele>566.25</ele><time>2026-03-28T10:19:09.656Z</time></trkpt><trkpt lat="43.9444383" lon="12.1364683"><ele>566.0</ele><time>2026-03-28T10:19:10.657Z</time></trkpt><trkpt lat="43.94452" lon="12.136305"><ele>566.0</ele><time>2026-03-28T10:19:11.656Z</time></trkpt><trkpt lat="43.9446017" lon="12.136135"><ele>566.0</ele><time>2026-03-28T10:19:12.661Z</time></trkpt><trkpt lat="43.944685" lon="12.1359617"><ele>566.0</ele><time>2026-03-28T10:19:13.657Z</time></trkpt><trkpt lat="43.9447667" lon="12.1357867"><ele>566.0</ele><time>2026-03-28T10:19:14.657Z</time></trkpt><trkpt lat="43.9448417" lon="12.13561"><ele>568.0</ele><time>2026-03-28T10:19:15.656Z</time></trkpt><trkpt lat="43.9449033" lon="12.135425"><ele>570.0</ele><time>2026-03-28T10:19:16.657Z</time></trkpt><trkpt lat="43.9449467" lon="12.135235"><ele>572.0</ele><time>2026-03-28T10:19:17.656Z</time></trkpt><trkpt lat="43.9449633" lon="12.1350467"><ele>574.0</ele><time>2026-03-28T10:19:18.656Z</time></trkpt><trkpt lat="43.9449567" lon="12.1348667"><ele>576.8</ele><time>2026-03-28T10:19:19.656Z</time></trkpt><trkpt lat="43.9449283" lon="12.1346933"><ele>579.5999999999999</ele><time>2026-03-28T10:19:20.656Z</time></trkpt><trkpt lat="43.9448883" lon="12.1345317"><ele>582.4</ele><time>2026-03-28T10:19:21.656Z</time></trkpt><trkpt lat="43.944855" lon="12.1344"><ele>585.1999999999999</ele><time>2026-03-28T10:19:22.656Z</time></trkpt><trkpt lat="43.9448533" lon="12.1342967"><ele>588.0</ele><time>2026-03-28T10:19:23.656Z</time></trkpt><trkpt lat="43.9448767" lon="12.13421"><ele>588.0</ele><time>2026-03-28T10:19:24.657Z</time></trkpt><trkpt lat="43.9449967" lon="12.134185"><ele>588.0</ele><time>2026-03-28T10:19:26.657Z</time></trkpt><trkpt lat="43.9450533" lon="12.134235"><ele>588.0</ele><time>2026-03-28T10:19:27.656Z</time></trkpt><trkpt lat="43.945085" lon="12.1343133"><ele>588.0</ele><time>2026-03-28T10:19:28.66Z</time></trkpt><trkpt lat="43.94508" lon="12.134435"><ele>588.0</ele><time>2026-03-28T10:19:29.657Z</time></trkpt><trkpt lat="43.9450567" lon="12.134565"><ele>588.0</ele><time>2026-03-28T10:19:30.657Z</time></trkpt><trkpt lat="43.9450467" lon="12.1346833"><ele>590.3333333333334</ele><time>2026-03-28T10:19:31.657Z</time></trkpt><trkpt lat="43.9450583" lon="12.1347883"><ele>592.6666666666666</ele><time>2026-03-28T10:19:32.657Z</time></trkpt><trkpt lat="43.9450933" lon="12.13487"><ele>595.0</ele><time>2026-03-28T10:19:33.657Z</time></trkpt><trkpt lat="43.9451483" lon="12.1349133"><ele>597.3333333333333</ele><time>2026-03-28T10:19:34.656Z</time></trkpt><trkpt lat="43.945265" lon="12.1348867"><ele>599.6666666666666</ele><time>2026-03-28T10:19:36.656Z</time></trkpt><trkpt lat="43.9453283" lon="12.134765"><ele>602.0</ele><time>2026-03-28T10:19:37.657Z</time></trkpt><trkpt lat="43.94541" lon="12.1346183"><ele>602.0</ele><time>2026-03-28T10:19:38.657Z</time></trkpt><trkpt lat="43.9454933" lon="12.1344867"><ele>602.0</ele><time>2026-03-28T10:19:39.657Z</time></trkpt><trkpt lat="43.9455833" lon="12.1343767"><ele>602.0</ele><time>2026-03-28T10:19:40.657Z</time></trkpt><trkpt lat="43.94568" lon="12.1342683"><ele>602.0</ele><time>2026-03-28T10:19:41.657Z</time></trkpt><trkpt lat="43.9457817" lon="12.13417"><ele>601.25</ele><time>2026-03-28T10:19:42.657Z</time></trkpt><trkpt lat="43.9458967" lon="12.1340783"><ele>600.5</ele><time>2026-03-28T10:19:43.656Z</time></trkpt><trkpt lat="43.9460217" lon="12.1340167"><ele>599.75</ele><time>2026-03-28T10:19:44.658Z</time></trkpt><trkpt lat="43.9461467" lon="12.1339667"><ele>599.0</ele><time>2026-03-28T10:19:45.656Z</time></trkpt><trkpt lat="43.9462667" lon="12.1339183"><ele>600.0</ele><time>2026-03-28T10:19:46.658Z</time></trkpt><trkpt lat="43.9463883" lon="12.1338617"><ele>601.0</ele><time>2026-03-28T10:19:47.658Z</time></trkpt><trkpt lat="43.9464967" lon="12.1337933"><ele>602.0</ele><time>2026-03-28T10:19:48.657Z</time></trkpt><trkpt lat="43.946585" lon="12.133725"><ele>603.0</ele><time>2026-03-28T10:19:49.657Z</time></trkpt><trkpt lat="43.9466583" lon="12.1336517"><ele>604.0</ele><time>2026-03-28T10:19:50.657Z</time></trkpt><trkpt lat="43.946715" lon="12.1335867"><ele>604.0</ele><time>2026-03-28T10:19:51.657Z</time></trkpt><trkpt lat="43.9468117" lon="12.133505"><ele>604.0</ele><time>2026-03-28T10:19:53.657Z</time></trkpt><trkpt lat="43.9468683" lon="12.133445"><ele>604.0</ele><time>2026-03-28T10:19:55.657Z</time></trkpt><trkpt lat="43.9468217" lon="12.1333733"><ele>604.0</ele><time>2026-03-28T10:19:58.658Z</time></trkpt><trkpt lat="43.9467167" lon="12.1334217"><ele>604.0</ele><time>2026-03-28T10:20:00.657Z</time></trkpt><trkpt lat="43.9466167" lon="12.1335133"><ele>604.1666666666667</ele><time>2026-03-28T10:20:02.658Z</time></trkpt><trkpt lat="43.946555" lon="12.1335583"><ele>604.3333333333334</ele><time>2026-03-28T10:20:03.656Z</time></trkpt><trkpt lat="43.946485" lon="12.1336017"><ele>604.5</ele><time>2026-03-28T10:20:04.657Z</time></trkpt><trkpt lat="43.9464117" lon="12.1336333"><ele>604.6666666666666</ele><time>2026-03-28T10:20:05.658Z</time></trkpt><trkpt lat="43.946335" lon="12.1336533"><ele>604.8333333333333</ele><time>2026-03-28T10:20:06.657Z</time></trkpt><trkpt lat="43.9462533" lon="12.1336567"><ele>605.0</ele><time>2026-03-28T10:20:07.658Z</time></trkpt><trkpt lat="43.946175" lon="12.13365"><ele>605.0</ele><time>2026-03-28T10:20:08.658Z</time></trkpt><trkpt lat="43.9461017" lon="12.1336283"><ele>605.0</ele><time>2026-03-28T10:20:09.659Z</time></trkpt><trkpt lat="43.9460267" lon="12.1335967"><ele>605.0</ele><time>2026-03-28T10:20:10.659Z</time></trkpt><trkpt lat="43.9459517" lon="12.1335483"><ele>605.0</ele><time>2026-03-28T10:20:11.658Z</time></trkpt><trkpt lat="43.94588" lon="12.1334767"><ele>605.0</ele><time>2026-03-28T10:20:12.659Z</time></trkpt><trkpt lat="43.9458133" lon="12.1333917"><ele>605.0</ele><time>2026-03-28T10:20:13.661Z</time></trkpt><trkpt lat="43.94575" lon="12.1332717"><ele>605.5</ele><time>2026-03-28T10:20:14.659Z</time></trkpt><trkpt lat="43.945685" lon="12.1331333"><ele>606.0</ele><time>2026-03-28T10:20:15.658Z</time></trkpt><trkpt lat="43.9456233" lon="12.1329817"><ele>606.5</ele><time>2026-03-28T10:20:16.658Z</time></trkpt><trkpt lat="43.9455717" lon="12.1328333"><ele>607.0</ele><time>2026-03-28T10:20:17.658Z</time></trkpt><trkpt lat="43.9455333" lon="12.1327083"><ele>607.0</ele><time>2026-03-28T10:20:18.658Z</time></trkpt><trkpt lat="43.9455033" lon="12.13261"><ele>607.0</ele><time>2026-03-28T10:20:19.66Z</time></trkpt><trkpt lat="43.9454767" lon="12.1325233"><ele>607.0</ele><time>2026-03-28T10:20:20.658Z</time></trkpt><trkpt lat="43.9454583" lon="12.13243"><ele>607.0</ele><time>2026-03-28T10:20:21.659Z</time></trkpt><trkpt lat="43.94545" lon="12.132325"><ele>607.0</ele><time>2026-03-28T10:20:22.658Z</time></trkpt><trkpt lat="43.9454483" lon="12.1322117"><ele>607.0</ele><time>2026-03-28T10:20:23.659Z</time></trkpt><trkpt lat="43.9454517" lon="12.1320967"><ele>606.8333333333334</ele><time>2026-03-28T10:20:24.662Z</time></trkpt><trkpt lat="43.9454467" lon="12.1319917"><ele>606.6666666666667</ele><time>2026-03-28T10:20:25.659Z</time></trkpt><trkpt lat="43.945425" lon="12.1319033"><ele>606.5</ele><time>2026-03-28T10:20:26.659Z</time></trkpt><trkpt lat="43.9453933" lon="12.13182"><ele>606.3333333333334</ele><time>2026-03-28T10:20:27.658Z</time></trkpt><trkpt lat="43.9453567" lon="12.1317233"><ele>606.1666666666666</ele><time>2026-03-28T10:20:28.658Z</time></trkpt><trkpt lat="43.945325" lon="12.13161"><ele>606.0</ele><time>2026-03-28T10:20:29.659Z</time></trkpt><trkpt lat="43.9452967" lon="12.1314817"><ele>606.8333333333334</ele><time>2026-03-28T10:20:30.659Z</time></trkpt><trkpt lat="43.9452667" lon="12.1313417"><ele>607.6666666666666</ele><time>2026-03-28T10:20:31.658Z</time></trkpt><trkpt lat="43.9452417" lon="12.1312133"><ele>608.5</ele><time>2026-03-28T10:20:32.658Z</time></trkpt><trkpt lat="43.9452267" lon="12.1311067"><ele>609.3333333333333</ele><time>2026-03-28T10:20:33.658Z</time></trkpt><trkpt lat="43.9452067" lon="12.131015"><ele>610.1666666666666</ele><time>2026-03-28T10:20:34.658Z</time></trkpt><trkpt lat="43.9451833" lon="12.130925"><ele>611.0</ele><time>2026-03-28T10:20:35.658Z</time></trkpt><trkpt lat="43.9451517" lon="12.1308367"><ele>611.0000000000001</ele><time>2026-03-28T10:20:36.658Z</time></trkpt><trkpt lat="43.9451183" lon="12.13074"><ele>611.0</ele><time>2026-03-28T10:20:37.659Z</time></trkpt><trkpt lat="43.9450883" lon="12.1306417"><ele>611.0</ele><time>2026-03-28T10:20:38.658Z</time></trkpt><trkpt lat="43.94506" lon="12.130545"><ele>611.0</ele><time>2026-03-28T10:20:39.658Z</time></trkpt><trkpt lat="43.945035" lon="12.1304483"><ele>611.0</ele><time>2026-03-28T10:20:40.66Z</time></trkpt><trkpt lat="43.945015" lon="12.1303517"><ele>611.0000000000001</ele><time>2026-03-28T10:20:41.659Z</time></trkpt><trkpt lat="43.944995" lon="12.1302583"><ele>611.0</ele><time>2026-03-28T10:20:42.658Z</time></trkpt><trkpt lat="43.94498" lon="12.1301633"><ele>614.7142857142858</ele><time>2026-03-28T10:20:43.659Z</time></trkpt><trkpt lat="43.9449667" lon="12.1300633"><ele>618.4285714285714</ele><time>2026-03-28T10:20:44.659Z</time></trkpt><trkpt lat="43.9449567" lon="12.12996"><ele>622.1428571428571</ele><time>2026-03-28T10:20:45.659Z</time></trkpt><trkpt lat="43.9449383" lon="12.1298633"><ele>625.8571428571429</ele><time>2026-03-28T10:20:46.658Z</time></trkpt><trkpt lat="43.94491" lon="12.1297717"><ele>629.5714285714286</ele><time>2026-03-28T10:20:47.659Z</time></trkpt><trkpt lat="43.9448817" lon="12.12968"><ele>633.2857142857143</ele><time>2026-03-28T10:20:48.658Z</time></trkpt><trkpt lat="43.9448483" lon="12.1295933"><ele>637.0</ele><time>2026-03-28T10:20:49.658Z</time></trkpt><trkpt lat="43.9448083" lon="12.12952"><ele>637.5</ele><time>2026-03-28T10:20:50.658Z</time></trkpt><trkpt lat="43.9447633" lon="12.1294583"><ele>638.0</ele><time>2026-03-28T10:20:51.659Z</time></trkpt><trkpt lat="43.944705" lon="12.12941"><ele>638.5</ele><time>2026-03-28T10:20:52.659Z</time></trkpt><trkpt lat="43.9446383" lon="12.1293717"><ele>639.0</ele><time>2026-03-28T10:20:53.661Z</time></trkpt><trkpt lat="43.9445767" lon="12.1293367"><ele>639.5</ele><time>2026-03-28T10:20:54.658Z</time></trkpt><trkpt lat="43.9445133" lon="12.1292933"><ele>640.0</ele><time>2026-03-28T10:20:55.659Z</time></trkpt><trkpt lat="43.94443" lon="12.1291917"><ele>638.2</ele><time>2026-03-28T10:20:57.658Z</time></trkpt><trkpt lat="43.94439" lon="12.1290433"><ele>636.4</ele><time>2026-03-28T10:20:59.659Z</time></trkpt><trkpt lat="43.9443817" lon="12.1289383"><ele>634.6</ele><time>2026-03-28T10:21:00.659Z</time></trkpt><trkpt lat="43.94438" lon="12.128805"><ele>632.8</ele><time>2026-03-28T10:21:01.66Z</time></trkpt><trkpt lat="43.94438" lon="12.128675"><ele>631.0</ele><time>2026-03-28T10:21:02.658Z</time></trkpt><trkpt lat="43.9443783" lon="12.1285483"><ele>631.0</ele><time>2026-03-28T10:21:03.659Z</time></trkpt><trkpt lat="43.9443733" lon="12.1284283"><ele>631.0</ele><time>2026-03-28T10:21:04.658Z</time></trkpt><trkpt lat="43.9443683" lon="12.12831"><ele>631.0</ele><time>2026-03-28T10:21:05.658Z</time></trkpt><trkpt lat="43.94437" lon="12.1282"><ele>631.0</ele><time>2026-03-28T10:21:06.659Z</time></trkpt><trkpt lat="43.9443783" lon="12.1280867"><ele>631.0</ele><time>2026-03-28T10:21:07.658Z</time></trkpt><trkpt lat="43.9443867" lon="12.12798"><ele>631.0</ele><time>2026-03-28T10:21:08.658Z</time></trkpt><trkpt lat="43.9443867" lon="12.12788"><ele>627.8333333333334</ele><time>2026-03-28T10:21:09.658Z</time></trkpt><trkpt lat="43.9443733" lon="12.1277717"><ele>624.6666666666667</ele><time>2026-03-28T10:21:10.659Z</time></trkpt><trkpt lat="43.944345" lon="12.1276617"><ele>621.5</ele><time>2026-03-28T10:21:11.659Z</time></trkpt><trkpt lat="43.94431" lon="12.1275483"><ele>618.3333333333334</ele><time>2026-03-28T10:21:12.658Z</time></trkpt><trkpt lat="43.9442717" lon="12.12744"><ele>615.1666666666666</ele><time>2026-03-28T10:21:13.659Z</time></trkpt><trkpt lat="43.9442333" lon="12.1273433"><ele>612.0</ele><time>2026-03-28T10:21:14.658Z</time></trkpt><trkpt lat="43.9441983" lon="12.127265"><ele>611.7142857142857</ele><time>2026-03-28T10:21:15.658Z</time></trkpt><trkpt lat="43.9441583" lon="12.1271917"><ele>611.4285714285714</ele><time>2026-03-28T10:21:16.659Z</time></trkpt><trkpt lat="43.9441133" lon="12.1271267"><ele>611.1428571428571</ele><time>2026-03-28T10:21:17.658Z</time></trkpt><trkpt lat="43.94406" lon="12.12707"><ele>610.8571428571429</ele><time>2026-03-28T10:21:18.659Z</time></trkpt><trkpt lat="43.944" lon="12.1270267"><ele>610.5714285714286</ele><time>2026-03-28T10:21:19.659Z</time></trkpt><trkpt lat="43.9439367" lon="12.126995"><ele>610.2857142857143</ele><time>2026-03-28T10:21:20.659Z</time></trkpt><trkpt lat="43.94387" lon="12.1269733"><ele>610.0</ele><time>2026-03-28T10:21:21.658Z</time></trkpt><trkpt lat="43.9437917" lon="12.12697"><ele>610.0</ele><time>2026-03-28T10:21:22.66Z</time></trkpt><trkpt lat="43.94371" lon="12.1269717"><ele>610.0</ele><time>2026-03-28T10:21:23.659Z</time></trkpt><trkpt lat="43.9436317" lon="12.1269833"><ele>610.0</ele><time>2026-03-28T10:21:24.658Z</time></trkpt><trkpt lat="43.9435633" lon="12.1270083"><ele>610.0</ele><time>2026-03-28T10:21:25.659Z</time></trkpt><trkpt lat="43.9435" lon="12.1270433"><ele>610.0</ele><time>2026-03-28T10:21:26.659Z</time></trkpt><trkpt lat="43.9434433" lon="12.1270817"><ele>610.0</ele><time>2026-03-28T10:21:27.658Z</time></trkpt><trkpt lat="43.943335" lon="12.1271767"><ele>608.3333333333334</ele><time>2026-03-28T10:21:29.659Z</time></trkpt><trkpt lat="43.94328" lon="12.1272317"><ele>606.6666666666667</ele><time>2026-03-28T10:21:30.661Z</time></trkpt><trkpt lat="43.9432233" lon="12.1272783"><ele>605.0</ele><time>2026-03-28T10:21:31.659Z</time></trkpt><trkpt lat="43.943155" lon="12.1273167"><ele>603.3333333333334</ele><time>2026-03-28T10:21:32.658Z</time></trkpt><trkpt lat="43.9430783" lon="12.127345"><ele>601.6666666666666</ele><time>2026-03-28T10:21:33.662Z</time></trkpt><trkpt lat="43.9429967" lon="12.127365"><ele>600.0</ele><time>2026-03-28T10:21:34.659Z</time></trkpt><trkpt lat="43.9429117" lon="12.12737"><ele>600.0</ele><time>2026-03-28T10:21:35.658Z</time></trkpt><trkpt lat="43.9428183" lon="12.1273667"><ele>600.0</ele><time>2026-03-28T10:21:36.659Z</time></trkpt><trkpt lat="43.9427233" lon="12.12736"><ele>600.0</ele><time>2026-03-28T10:21:37.659Z</time></trkpt><trkpt lat="43.9426333" lon="12.1273433"><ele>600.0</ele><time>2026-03-28T10:21:38.659Z</time></trkpt><trkpt lat="43.94255" lon="12.127315"><ele>600.0</ele><time>2026-03-28T10:21:39.659Z</time></trkpt><trkpt lat="43.9424767" lon="12.1272717"><ele>600.0</ele><time>2026-03-28T10:21:40.659Z</time></trkpt><trkpt lat="43.94242" lon="12.12721"><ele>598.5714285714286</ele><time>2026-03-28T10:21:41.659Z</time></trkpt><trkpt lat="43.9423617" lon="12.1271433"><ele>597.1428571428571</ele><time>2026-03-28T10:21:42.658Z</time></trkpt><trkpt lat="43.9423067" lon="12.127075"><ele>595.7142857142858</ele><time>2026-03-28T10:21:43.659Z</time></trkpt><trkpt lat="43.942255" lon="12.12701"><ele>594.2857142857142</ele><time>2026-03-28T10:21:44.658Z</time></trkpt><trkpt lat="43.9422083" lon="12.12694"><ele>592.8571428571429</ele><time>2026-03-28T10:21:45.659Z</time></trkpt><trkpt lat="43.94216" lon="12.126865"><ele>591.4285714285714</ele><time>2026-03-28T10:21:46.656Z</time></trkpt><trkpt lat="43.9421067" lon="12.12678"><ele>590.0</ele><time>2026-03-28T10:21:47.658Z</time></trkpt><trkpt lat="43.9420467" lon="12.1266817"><ele>590.0</ele><time>2026-03-28T10:21:48.657Z</time></trkpt><trkpt lat="43.941985" lon="12.126575"><ele>590.0</ele><time>2026-03-28T10:21:49.656Z</time></trkpt><trkpt lat="43.941925" lon="12.1264667"><ele>590.0</ele><time>2026-03-28T10:21:50.654Z</time></trkpt><trkpt lat="43.9418733" lon="12.1263633"><ele>590.0</ele><time>2026-03-28T10:21:51.656Z</time></trkpt><trkpt lat="43.9418267" lon="12.1262633"><ele>590.0</ele><time>2026-03-28T10:21:52.655Z</time></trkpt><trkpt lat="43.941785" lon="12.126165"><ele>588.6</ele><time>2026-03-28T10:21:53.658Z</time></trkpt><trkpt lat="43.9417467" lon="12.1260683"><ele>587.2</ele><time>2026-03-28T10:21:54.659Z</time></trkpt><trkpt lat="43.9417133" lon="12.12597"><ele>585.8</ele><time>2026-03-28T10:21:55.658Z</time></trkpt><trkpt lat="43.94168" lon="12.1258783"><ele>584.4</ele><time>2026-03-28T10:21:56.659Z</time></trkpt><trkpt lat="43.9416183" lon="12.1257383"><ele>583.0</ele><time>2026-03-28T10:21:58.657Z</time></trkpt><trkpt lat="43.9415233" lon="12.1256717"><ele>583.0</ele><time>2026-03-28T10:22:00.657Z</time></trkpt><trkpt lat="43.94141" lon="12.1256967"><ele>583.0</ele><time>2026-03-28T10:22:02.658Z</time></trkpt><trkpt lat="43.94135" lon="12.1257517"><ele>583.0</ele><time>2026-03-28T10:22:03.656Z</time></trkpt><trkpt lat="43.941285" lon="12.1258333"><ele>583.0</ele><time>2026-03-28T10:22:04.658Z</time></trkpt><trkpt lat="43.9412183" lon="12.125915"><ele>583.0</ele><time>2026-03-28T10:22:05.658Z</time></trkpt><trkpt lat="43.9411417" lon="12.1259933"><ele>583.0</ele><time>2026-03-28T10:22:06.66Z</time></trkpt><trkpt lat="43.94106" lon="12.1260733"><ele>583.0</ele><time>2026-03-28T10:22:07.658Z</time></trkpt><trkpt lat="43.94099" lon="12.126165"><ele>583.0</ele><time>2026-03-28T10:22:08.658Z</time></trkpt><trkpt lat="43.9409317" lon="12.1262717"><ele>583.0</ele><time>2026-03-28T10:22:09.656Z</time></trkpt><trkpt lat="43.9408733" lon="12.1263717"><ele>583.0</ele><time>2026-03-28T10:22:10.658Z</time></trkpt><trkpt lat="43.9408183" lon="12.126465"><ele>583.4</ele><time>2026-03-28T10:22:11.657Z</time></trkpt><trkpt lat="43.94077" lon="12.12656"><ele>583.8</ele><time>2026-03-28T10:22:12.657Z</time></trkpt><trkpt lat="43.9407317" lon="12.1266683"><ele>584.2</ele><time>2026-03-28T10:22:13.658Z</time></trkpt><trkpt lat="43.940705" lon="12.1267967"><ele>584.6</ele><time>2026-03-28T10:22:14.659Z</time></trkpt><trkpt lat="43.94069" lon="12.12693"><ele>585.0</ele><time>2026-03-28T10:22:15.658Z</time></trkpt><trkpt lat="43.9406633" lon="12.127045"><ele>585.0</ele><time>2026-03-28T10:22:16.658Z</time></trkpt><trkpt lat="43.9406267" lon="12.1271483"><ele>585.0</ele><time>2026-03-28T10:22:17.656Z</time></trkpt><trkpt lat="43.9405733" lon="12.1272183"><ele>585.0</ele><time>2026-03-28T10:22:18.656Z</time></trkpt><trkpt lat="43.9405017" lon="12.127265"><ele>585.0</ele><time>2026-03-28T10:22:19.657Z</time></trkpt><trkpt lat="43.9404233" lon="12.127285"><ele>585.0</ele><time>2026-03-28T10:22:20.654Z</time></trkpt><trkpt lat="43.94034" lon="12.127275"><ele>585.0</ele><time>2026-03-28T10:22:21.656Z</time></trkpt><trkpt lat="43.9402433" lon="12.127255"><ele>585.0</ele><time>2026-03-28T10:22:22.656Z</time></trkpt><trkpt lat="43.9401483" lon="12.12722"><ele>585.0</ele><time>2026-03-28T10:22:23.659Z</time></trkpt><trkpt lat="43.9400667" lon="12.127175"><ele>585.0</ele><time>2026-03-28T10:22:24.659Z</time></trkpt><trkpt lat="43.939995" lon="12.127115"><ele>585.0</ele><time>2026-03-28T10:22:25.66Z</time></trkpt><trkpt lat="43.9399433" lon="12.1270533"><ele>585.0</ele><time>2026-03-28T10:22:26.658Z</time></trkpt><trkpt lat="43.9398933" lon="12.1269817"><ele>585.0</ele><time>2026-03-28T10:22:27.659Z</time></trkpt><trkpt lat="43.9398383" lon="12.1269"><ele>582.2</ele><time>2026-03-28T10:22:28.658Z</time></trkpt><trkpt lat="43.9397867" lon="12.1268033"><ele>579.4</ele><time>2026-03-28T10:22:29.659Z</time></trkpt><trkpt lat="43.9397367" lon="12.1266867"><ele>576.6</ele><time>2026-03-28T10:22:30.659Z</time></trkpt><trkpt lat="43.9396967" lon="12.1265533"><ele>573.8</ele><time>2026-03-28T10:22:31.659Z</time></trkpt><trkpt lat="43.9396667" lon="12.12642"><ele>571.0</ele><time>2026-03-28T10:22:32.658Z</time></trkpt><trkpt lat="43.939635" lon="12.1263017"><ele>568.6666666666667</ele><time>2026-03-28T10:22:33.658Z</time></trkpt><trkpt lat="43.9395983" lon="12.1261917"><ele>566.3333333333334</ele><time>2026-03-28T10:22:34.659Z</time></trkpt><trkpt lat="43.9395533" lon="12.1260967"><ele>564.0</ele><time>2026-03-28T10:22:35.658Z</time></trkpt><trkpt lat="43.939505" lon="12.126015"><ele>561.6666666666666</ele><time>2026-03-28T10:22:36.659Z</time></trkpt><trkpt lat="43.9394517" lon="12.1259567"><ele>559.3333333333333</ele><time>2026-03-28T10:22:37.658Z</time></trkpt><trkpt lat="43.93933" lon="12.1259067"><ele>557.0</ele><time>2026-03-28T10:22:39.659Z</time></trkpt><trkpt lat="43.9392517" lon="12.1258983"><ele>560.0</ele><time>2026-03-28T10:22:40.658Z</time></trkpt><trkpt lat="43.9391767" lon="12.1258833"><ele>563.0</ele><time>2026-03-28T10:22:41.659Z</time></trkpt><trkpt lat="43.9391017" lon="12.1258733"><ele>566.0</ele><time>2026-03-28T10:22:42.659Z</time></trkpt><trkpt lat="43.939025" lon="12.1258633"><ele>569.0</ele><time>2026-03-28T10:22:43.658Z</time></trkpt><trkpt lat="43.9389583" lon="12.12586"><ele>572.0</ele><time>2026-03-28T10:22:44.658Z</time></trkpt><trkpt lat="43.938895" lon="12.1258733"><ele>575.0</ele><time>2026-03-28T10:22:45.659Z</time></trkpt><trkpt lat="43.9388317" lon="12.1258883"><ele>578.0</ele><time>2026-03-28T10:22:46.655Z</time></trkpt><trkpt lat="43.9387067" lon="12.1258833"><ele>578.0</ele><time>2026-03-28T10:22:48.657Z</time></trkpt><trkpt lat="43.9386383" lon="12.1258483"><ele>578.0</ele><time>2026-03-28T10:22:49.659Z</time></trkpt><trkpt lat="43.938555" lon="12.1257867"><ele>578.0</ele><time>2026-03-28T10:22:50.656Z</time></trkpt><trkpt lat="43.93847" lon="12.1257117"><ele>578.0</ele><time>2026-03-28T10:22:51.656Z</time></trkpt><trkpt lat="43.9383867" lon="12.125635"><ele>578.0</ele><time>2026-03-28T10:22:52.656Z</time></trkpt><trkpt lat="43.9383067" lon="12.12556"><ele>579.0</ele><time>2026-03-28T10:22:53.662Z</time></trkpt><trkpt lat="43.938235" lon="12.1254967"><ele>580.0</ele><time>2026-03-28T10:22:54.658Z</time></trkpt><trkpt lat="43.9381517" lon="12.1254433"><ele>581.0</ele><time>2026-03-28T10:22:55.658Z</time></trkpt><trkpt lat="43.9380583" lon="12.125395"><ele>582.0</ele><time>2026-03-28T10:22:56.658Z</time></trkpt><trkpt lat="43.937965" lon="12.1253467"><ele>583.0</ele><time>2026-03-28T10:22:57.655Z</time></trkpt><trkpt lat="43.937885" lon="12.12529"><ele>583.0</ele><time>2026-03-28T10:22:58.659Z</time></trkpt><trkpt lat="43.9378217" lon="12.1252183"><ele>583.0</ele><time>2026-03-28T10:22:59.656Z</time></trkpt><trkpt lat="43.9377683" lon="12.1251417"><ele>583.0</ele><time>2026-03-28T10:23:00.658Z</time></trkpt><trkpt lat="43.93773" lon="12.1250567"><ele>583.0</ele><time>2026-03-28T10:23:01.66Z</time></trkpt><trkpt lat="43.937705" lon="12.1248833"><ele>583.0</ele><time>2026-03-28T10:23:03.659Z</time></trkpt><trkpt lat="43.93771" lon="12.1247017"><ele>582.1999999999999</ele><time>2026-03-28T10:23:05.658Z</time></trkpt><trkpt lat="43.9377067" lon="12.1246"><ele>581.4</ele><time>2026-03-28T10:23:06.659Z</time></trkpt><trkpt lat="43.9376917" lon="12.1244817"><ele>580.5999999999999</ele><time>2026-03-28T10:23:07.66Z</time></trkpt><trkpt lat="43.93767" lon="12.1243483"><ele>579.8</ele><time>2026-03-28T10:23:08.659Z</time></trkpt><trkpt lat="43.9376417" lon="12.124205"><ele>579.0</ele><time>2026-03-28T10:23:09.659Z</time></trkpt><trkpt lat="43.937605" lon="12.1240567"><ele>573.4</ele><time>2026-03-28T10:23:10.659Z</time></trkpt><trkpt lat="43.9375717" lon="12.1239133"><ele>567.8</ele><time>2026-03-28T10:23:11.658Z</time></trkpt><trkpt lat="43.937535" lon="12.1237817"><ele>562.2</ele><time>2026-03-28T10:23:12.658Z</time></trkpt><trkpt lat="43.9374883" lon="12.123665"><ele>556.6</ele><time>2026-03-28T10:23:13.658Z</time></trkpt><trkpt lat="43.9374333" lon="12.1235617"><ele>551.0</ele><time>2026-03-28T10:23:14.659Z</time></trkpt><trkpt lat="43.9373717" lon="12.1234767"><ele>551.0</ele><time>2026-03-28T10:23:15.661Z</time></trkpt><trkpt lat="43.937315" lon="12.1234117"><ele>551.0</ele><time>2026-03-28T10:23:16.657Z</time></trkpt><trkpt lat="43.9372517" lon="12.123345"><ele>551.0</ele><time>2026-03-28T10:23:17.657Z</time></trkpt><trkpt lat="43.9371983" lon="12.1232633"><ele>551.0</ele><time>2026-03-28T10:23:18.656Z</time></trkpt><trkpt lat="43.9371583" lon="12.123165"><ele>551.0</ele><time>2026-03-28T10:23:19.655Z</time></trkpt><trkpt lat="43.9371333" lon="12.1230383"><ele>551.0</ele><time>2026-03-28T10:23:20.655Z</time></trkpt><trkpt lat="43.9371167" lon="12.12289"><ele>550.6</ele><time>2026-03-28T10:23:21.656Z</time></trkpt><trkpt lat="43.937085" lon="12.1227417"><ele>550.2</ele><time>2026-03-28T10:23:22.656Z</time></trkpt><trkpt lat="43.937045" lon="12.122595"><ele>549.8</ele><time>2026-03-28T10:23:23.659Z</time></trkpt><trkpt lat="43.9370033" lon="12.12246"><ele>549.4</ele><time>2026-03-28T10:23:24.659Z</time></trkpt><trkpt lat="43.93695" lon="12.1223267"><ele>549.0</ele><time>2026-03-28T10:23:25.66Z</time></trkpt><trkpt lat="43.9368817" lon="12.122205"><ele>549.5</ele><time>2026-03-28T10:23:26.658Z</time></trkpt><trkpt lat="43.9368033" lon="12.1220817"><ele>550.0</ele><time>2026-03-28T10:23:27.659Z</time></trkpt><trkpt lat="43.936725" lon="12.1219567"><ele>550.5</ele><time>2026-03-28T10:23:28.659Z</time></trkpt><trkpt lat="43.93664" lon="12.1218233"><ele>551.0</ele><time>2026-03-28T10:23:29.658Z</time></trkpt><trkpt lat="43.9365533" lon="12.1216767"><ele>555.2</ele><time>2026-03-28T10:23:30.66Z</time></trkpt><trkpt lat="43.936475" lon="12.1215283"><ele>559.4000000000001</ele><time>2026-03-28T10:23:31.659Z</time></trkpt><trkpt lat="43.9364117" lon="12.1214017"><ele>563.6</ele><time>2026-03-28T10:23:32.659Z</time></trkpt><trkpt lat="43.936345" lon="12.1212967"><ele>567.8000000000001</ele><time>2026-03-28T10:23:33.659Z</time></trkpt><trkpt lat="43.9362667" lon="12.1212067"><ele>572.0</ele><time>2026-03-28T10:23:34.659Z</time></trkpt><trkpt lat="43.9361767" lon="12.121135"><ele>572.0</ele><time>2026-03-28T10:23:35.658Z</time></trkpt><trkpt lat="43.9360817" lon="12.1210833"><ele>572.0</ele><time>2026-03-28T10:23:36.659Z</time></trkpt><trkpt lat="43.9359817" lon="12.1210483"><ele>572.0</ele><time>2026-03-28T10:23:37.659Z</time></trkpt><trkpt lat="43.93589" lon="12.1210217"><ele>572.0</ele><time>2026-03-28T10:23:38.656Z</time></trkpt><trkpt lat="43.9358067" lon="12.1209917"><ele>572.0</ele><time>2026-03-28T10:23:39.658Z</time></trkpt><trkpt lat="43.9357217" lon="12.1209533"><ele>571.1666666666666</ele><time>2026-03-28T10:23:40.659Z</time></trkpt><trkpt lat="43.93564" lon="12.120915"><ele>570.3333333333333</ele><time>2026-03-28T10:23:41.659Z</time></trkpt><trkpt lat="43.9355617" lon="12.120885"><ele>569.5</ele><time>2026-03-28T10:23:42.656Z</time></trkpt><trkpt lat="43.9354883" lon="12.120875"><ele>568.6666666666666</ele><time>2026-03-28T10:23:43.659Z</time></trkpt><trkpt lat="43.9354083" lon="12.12088"><ele>567.8333333333334</ele><time>2026-03-28T10:23:44.659Z</time></trkpt><trkpt lat="43.9353317" lon="12.1209017"><ele>567.0</ele><time>2026-03-28T10:23:45.659Z</time></trkpt><trkpt lat="43.9352567" lon="12.1209233"><ele>567.0</ele><time>2026-03-28T10:23:46.659Z</time></trkpt><trkpt lat="43.9351417" lon="12.1208933"><ele>567.0</ele><time>2026-03-28T10:23:48.656Z</time></trkpt><trkpt lat="43.9350767" lon="12.1207817"><ele>567.0</ele><time>2026-03-28T10:23:50.658Z</time></trkpt><trkpt lat="43.9350567" lon="12.1206617"><ele>567.0</ele><time>2026-03-28T10:23:52.658Z</time></trkpt><trkpt lat="43.93509" lon="12.1204883"><ele>567.0</ele><time>2026-03-28T10:23:54.658Z</time></trkpt><trkpt lat="43.935115" lon="12.120405"><ele>565.0</ele><time>2026-03-28T10:23:55.658Z</time></trkpt><trkpt lat="43.9351917" lon="12.1202917"><ele>563.0</ele><time>2026-03-28T10:23:57.658Z</time></trkpt><trkpt lat="43.9352933" lon="12.1202033"><ele>561.0</ele><time>2026-03-28T10:23:59.659Z</time></trkpt><trkpt lat="43.93536" lon="12.1201617"><ele>559.0</ele><time>2026-03-28T10:24:00.658Z</time></trkpt><trkpt lat="43.935435" lon="12.1201167"><ele>557.0</ele><time>2026-03-28T10:24:01.658Z</time></trkpt><trkpt lat="43.935505" lon="12.1200783"><ele>557.0</ele><time>2026-03-28T10:24:02.659Z</time></trkpt><trkpt lat="43.9355667" lon="12.1200533"><ele>557.0</ele><time>2026-03-28T10:24:03.658Z</time></trkpt><trkpt lat="43.93567" lon="12.120025"><ele>557.0</ele><time>2026-03-28T10:24:05.659Z</time></trkpt><trkpt lat="43.9357517" lon="12.1200283"><ele>557.0</ele><time>2026-03-28T10:24:07.659Z</time></trkpt><trkpt lat="43.9358417" lon="12.1200233"><ele>557.0</ele><time>2026-03-28T10:24:09.659Z</time></trkpt><trkpt lat="43.9359633" lon="12.1199617"><ele>556.6</ele><time>2026-03-28T10:24:11.658Z</time></trkpt><trkpt lat="43.9360417" lon="12.1199117"><ele>556.2</ele><time>2026-03-28T10:24:12.659Z</time></trkpt><trkpt lat="43.9361383" lon="12.1198517"><ele>555.8</ele><time>2026-03-28T10:24:13.658Z</time></trkpt><trkpt lat="43.9362467" lon="12.11976"><ele>555.4</ele><time>2026-03-28T10:24:14.659Z</time></trkpt><trkpt lat="43.9363417" lon="12.1196717"><ele>555.0</ele><time>2026-03-28T10:24:15.659Z</time></trkpt><trkpt lat="43.9364267" lon="12.119585"><ele>555.0</ele><time>2026-03-28T10:24:16.658Z</time></trkpt><trkpt lat="43.9365017" lon="12.1195"><ele>555.0</ele><time>2026-03-28T10:24:17.658Z</time></trkpt><trkpt lat="43.9365683" lon="12.119415"><ele>555.0</ele><time>2026-03-28T10:24:18.659Z</time></trkpt><trkpt lat="43.936625" lon="12.1193283"><ele>555.0</ele><time>2026-03-28T10:24:19.658Z</time></trkpt><trkpt lat="43.9366767" lon="12.11923"><ele>555.0</ele><time>2026-03-28T10:24:20.658Z</time></trkpt><trkpt lat="43.9367283" lon="12.1191233"><ele>555.0</ele><time>2026-03-28T10:24:21.658Z</time></trkpt><trkpt lat="43.9367767" lon="12.1189967"><ele>555.0</ele><time>2026-03-28T10:24:22.658Z</time></trkpt><trkpt lat="43.9368217" lon="12.1188683"><ele>555.0</ele><time>2026-03-28T10:24:23.658Z</time></trkpt><trkpt lat="43.9368683" lon="12.1187517"><ele>555.0</ele><time>2026-03-28T10:24:24.658Z</time></trkpt><trkpt lat="43.9369083" lon="12.1186433"><ele>555.0</ele><time>2026-03-28T10:24:25.657Z</time></trkpt><trkpt lat="43.9369367" lon="12.11856"><ele>555.0</ele><time>2026-03-28T10:24:26.658Z</time></trkpt><trkpt lat="43.936975" lon="12.1184883"><ele>555.0</ele><time>2026-03-28T10:24:27.659Z</time></trkpt><trkpt lat="43.937045" lon="12.1184083"><ele>555.0</ele><time>2026-03-28T10:24:29.659Z</time></trkpt><trkpt lat="43.937115" lon="12.118385"><ele>555.0</ele><time>2026-03-28T10:24:31.658Z</time></trkpt><trkpt lat="43.937195" lon="12.1184083"><ele>555.0</ele><time>2026-03-28T10:24:33.659Z</time></trkpt><trkpt lat="43.9371317" lon="12.1184633"><ele>555.0</ele><time>2026-03-28T10:28:04.659Z</time></trkpt></trkseg></trk></gpx>